<?xml version="1.0" encoding="UTF-8" standalone="no" ?>
<gpx xmlns="http://www.topografix.com/GPX/1/1" xmlns:xsi="http://www.w3.org/2001/XMLSchema-instance" xsi:schemaLocation="http://www.topografix.com/GPX/1/1 http://www.topografix.com/GPX/1/1/gpx.xsd" version="1.1" creator="VisuGPX - https://www.visugpx.com">
  <metadata>
    <name>2019-09-15 La Castille</name>
    <desc><![CDATA[boucle au départ de la Castille via Valcros et Cuers]]></desc>
  </metadata>
  <trk>
    <name><![CDATA[2019-09-15 La Castille]]></name>
    <desc><![CDATA[Jean-Louis+Matthieu]]></desc>
    <trkseg>
      <trkpt lat="43.16164" lon="6.0676">
        <ele>51</ele>
        <time>2019-09-15T06:54:32Z</time>
      </trkpt>
      <trkpt lat="43.16158" lon="6.06762">
        <ele>51</ele>
        <time>2019-09-15T06:54:54Z</time>
      </trkpt>
      <trkpt lat="43.16158" lon="6.06762">
        <ele>51</ele>
        <time>2019-09-15T06:54:55Z</time>
      </trkpt>
      <trkpt lat="43.16157" lon="6.06766">
        <ele>51</ele>
        <time>2019-09-15T06:55:10Z</time>
      </trkpt>
      <trkpt lat="43.16155" lon="6.06768">
        <ele>51</ele>
        <time>2019-09-15T06:55:40Z</time>
      </trkpt>
      <trkpt lat="43.16155" lon="6.06771">
        <ele>51</ele>
        <time>2019-09-15T06:56:22Z</time>
      </trkpt>
      <trkpt lat="43.16151" lon="6.06776">
        <ele>51</ele>
        <time>2019-09-15T06:56:49Z</time>
      </trkpt>
      <trkpt lat="43.16164" lon="6.06785">
        <ele>51</ele>
        <time>2019-09-15T06:57:23Z</time>
      </trkpt>
      <trkpt lat="43.16161" lon="6.06786">
        <ele>51</ele>
        <time>2019-09-15T06:57:51Z</time>
      </trkpt>
      <trkpt lat="43.16154" lon="6.06779">
        <ele>51</ele>
        <time>2019-09-15T06:58:26Z</time>
      </trkpt>
      <trkpt lat="43.16155" lon="6.06773">
        <ele>51</ele>
        <time>2019-09-15T06:58:54Z</time>
      </trkpt>
      <trkpt lat="43.16158" lon="6.0677">
        <ele>51</ele>
        <time>2019-09-15T06:59:25Z</time>
      </trkpt>
      <trkpt lat="43.16158" lon="6.06769">
        <ele>51</ele>
        <time>2019-09-15T06:59:55Z</time>
      </trkpt>
      <trkpt lat="43.16159" lon="6.06768">
        <ele>51</ele>
        <time>2019-09-15T07:00:24Z</time>
      </trkpt>
      <trkpt lat="43.16162" lon="6.06766">
        <ele>51</ele>
        <time>2019-09-15T07:01:05Z</time>
      </trkpt>
      <trkpt lat="43.16162" lon="6.06764">
        <ele>51</ele>
        <time>2019-09-15T07:01:28Z</time>
      </trkpt>
      <trkpt lat="43.16162" lon="6.06763">
        <ele>51</ele>
        <time>2019-09-15T07:01:46Z</time>
      </trkpt>
      <trkpt lat="43.16164" lon="6.06758">
        <ele>51</ele>
        <time>2019-09-15T07:02:16Z</time>
      </trkpt>
      <trkpt lat="43.16174" lon="6.06755">
        <ele>51</ele>
        <time>2019-09-15T07:02:24Z</time>
      </trkpt>
      <trkpt lat="43.16171" lon="6.06734">
        <ele>50.953125</ele>
        <time>2019-09-15T07:02:37Z</time>
      </trkpt>
      <trkpt lat="43.16171" lon="6.06727">
        <ele>50.90234375</ele>
        <time>2019-09-15T07:02:39Z</time>
      </trkpt>
      <trkpt lat="43.16173" lon="6.06722">
        <ele>50.92578125</ele>
        <time>2019-09-15T07:02:41Z</time>
      </trkpt>
      <trkpt lat="43.16176" lon="6.06719">
        <ele>51</ele>
        <time>2019-09-15T07:02:44Z</time>
      </trkpt>
      <trkpt lat="43.16178" lon="6.06719">
        <ele>51</ele>
        <time>2019-09-15T07:02:45Z</time>
      </trkpt>
      <trkpt lat="43.16207" lon="6.06715">
        <ele>51</ele>
        <time>2019-09-15T07:02:57Z</time>
      </trkpt>
      <trkpt lat="43.1624" lon="6.06732">
        <ele>51</ele>
        <time>2019-09-15T07:03:10Z</time>
      </trkpt>
      <trkpt lat="43.16259" lon="6.0678">
        <ele>51.9921875</ele>
        <time>2019-09-15T07:03:24Z</time>
      </trkpt>
      <trkpt lat="43.16271" lon="6.06808">
        <ele>52</ele>
        <time>2019-09-15T07:03:33Z</time>
      </trkpt>
      <trkpt lat="43.16274" lon="6.06808">
        <ele>52</ele>
        <time>2019-09-15T07:03:34Z</time>
      </trkpt>
      <trkpt lat="43.16277" lon="6.06807">
        <ele>52</ele>
        <time>2019-09-15T07:03:35Z</time>
      </trkpt>
      <trkpt lat="43.16279" lon="6.06805">
        <ele>52</ele>
        <time>2019-09-15T07:03:36Z</time>
      </trkpt>
      <trkpt lat="43.16282" lon="6.06803">
        <ele>52</ele>
        <time>2019-09-15T07:03:37Z</time>
      </trkpt>
      <trkpt lat="43.16284" lon="6.068">
        <ele>52</ele>
        <time>2019-09-15T07:03:38Z</time>
      </trkpt>
      <trkpt lat="43.16287" lon="6.06798">
        <ele>52</ele>
        <time>2019-09-15T07:03:39Z</time>
      </trkpt>
      <trkpt lat="43.1629" lon="6.06795">
        <ele>52</ele>
        <time>2019-09-15T07:03:40Z</time>
      </trkpt>
      <trkpt lat="43.16334" lon="6.06771">
        <ele>52</ele>
        <time>2019-09-15T07:03:53Z</time>
      </trkpt>
      <trkpt lat="43.1637" lon="6.06761">
        <ele>52</ele>
        <time>2019-09-15T07:04:05Z</time>
      </trkpt>
      <trkpt lat="43.16425" lon="6.06741">
        <ele>52</ele>
        <time>2019-09-15T07:04:22Z</time>
      </trkpt>
      <trkpt lat="43.16498" lon="6.06713">
        <ele>52.61328125</ele>
        <time>2019-09-15T07:04:43Z</time>
      </trkpt>
      <trkpt lat="43.16551" lon="6.06676">
        <ele>53</ele>
        <time>2019-09-15T07:04:59Z</time>
      </trkpt>
      <trkpt lat="43.166" lon="6.06646">
        <ele>53.27734375</ele>
        <time>2019-09-15T07:05:14Z</time>
      </trkpt>
      <trkpt lat="43.1665" lon="6.06622">
        <ele>54.02734375</ele>
        <time>2019-09-15T07:05:29Z</time>
      </trkpt>
      <trkpt lat="43.16717" lon="6.06591">
        <ele>55</ele>
        <time>2019-09-15T07:05:48Z</time>
      </trkpt>
      <trkpt lat="43.16772" lon="6.06574">
        <ele>55.48828125</ele>
        <time>2019-09-15T07:06:04Z</time>
      </trkpt>
      <trkpt lat="43.16781" lon="6.06543">
        <ele>55</ele>
        <time>2019-09-15T07:06:12Z</time>
      </trkpt>
      <trkpt lat="43.1678" lon="6.06539">
        <ele>55</ele>
        <time>2019-09-15T07:06:13Z</time>
      </trkpt>
      <trkpt lat="43.1678" lon="6.06535">
        <ele>55</ele>
        <time>2019-09-15T07:06:14Z</time>
      </trkpt>
      <trkpt lat="43.16781" lon="6.0653">
        <ele>55</ele>
        <time>2019-09-15T07:06:15Z</time>
      </trkpt>
      <trkpt lat="43.16784" lon="6.06526">
        <ele>55</ele>
        <time>2019-09-15T07:06:16Z</time>
      </trkpt>
      <trkpt lat="43.16787" lon="6.06523">
        <ele>55</ele>
        <time>2019-09-15T07:06:17Z</time>
      </trkpt>
      <trkpt lat="43.16815" lon="6.06496">
        <ele>55.00390625</ele>
        <time>2019-09-15T07:06:27Z</time>
      </trkpt>
      <trkpt lat="43.16855" lon="6.06452">
        <ele>55</ele>
        <time>2019-09-15T07:06:41Z</time>
      </trkpt>
      <trkpt lat="43.16861" lon="6.0644">
        <ele>55</ele>
        <time>2019-09-15T07:06:50Z</time>
      </trkpt>
      <trkpt lat="43.16862" lon="6.06438">
        <ele>55</ele>
        <time>2019-09-15T07:06:51Z</time>
      </trkpt>
      <trkpt lat="43.16863" lon="6.06436">
        <ele>55</ele>
        <time>2019-09-15T07:06:52Z</time>
      </trkpt>
      <trkpt lat="43.16886" lon="6.06394">
        <ele>55</ele>
        <time>2019-09-15T07:07:04Z</time>
      </trkpt>
      <trkpt lat="43.16909" lon="6.0633">
        <ele>55</ele>
        <time>2019-09-15T07:07:18Z</time>
      </trkpt>
      <trkpt lat="43.16956" lon="6.06256">
        <ele>55.5</ele>
        <time>2019-09-15T07:07:36Z</time>
      </trkpt>
      <trkpt lat="43.17004" lon="6.06193">
        <ele>57</ele>
        <time>2019-09-15T07:07:52Z</time>
      </trkpt>
      <trkpt lat="43.17024" lon="6.06166">
        <ele>57.72265625</ele>
        <time>2019-09-15T07:07:59Z</time>
      </trkpt>
      <trkpt lat="43.17028" lon="6.06162">
        <ele>57.859375</ele>
        <time>2019-09-15T07:08:00Z</time>
      </trkpt>
      <trkpt lat="43.17031" lon="6.06158">
        <ele>58</ele>
        <time>2019-09-15T07:08:01Z</time>
      </trkpt>
      <trkpt lat="43.17064" lon="6.0609">
        <ele>59.00390625</ele>
        <time>2019-09-15T07:08:16Z</time>
      </trkpt>
      <trkpt lat="43.17107" lon="6.06008">
        <ele>60.2265625</ele>
        <time>2019-09-15T07:08:35Z</time>
      </trkpt>
      <trkpt lat="43.17148" lon="6.05924">
        <ele>61</ele>
        <time>2019-09-15T07:08:54Z</time>
      </trkpt>
      <trkpt lat="43.17173" lon="6.05904">
        <ele>61</ele>
        <time>2019-09-15T07:09:05Z</time>
      </trkpt>
      <trkpt lat="43.17174" lon="6.05904">
        <ele>61</ele>
        <time>2019-09-15T07:09:27Z</time>
      </trkpt>
      <trkpt lat="43.17173" lon="6.05902">
        <ele>61</ele>
        <time>2019-09-15T07:09:50Z</time>
      </trkpt>
      <trkpt lat="43.17174" lon="6.05901">
        <ele>61</ele>
        <time>2019-09-15T07:09:51Z</time>
      </trkpt>
      <trkpt lat="43.17175" lon="6.05899">
        <ele>61</ele>
        <time>2019-09-15T07:09:52Z</time>
      </trkpt>
      <trkpt lat="43.17177" lon="6.05898">
        <ele>61</ele>
        <time>2019-09-15T07:09:53Z</time>
      </trkpt>
      <trkpt lat="43.1718" lon="6.05897">
        <ele>61</ele>
        <time>2019-09-15T07:09:54Z</time>
      </trkpt>
      <trkpt lat="43.17182" lon="6.05895">
        <ele>61</ele>
        <time>2019-09-15T07:09:55Z</time>
      </trkpt>
      <trkpt lat="43.17185" lon="6.05893">
        <ele>61</ele>
        <time>2019-09-15T07:09:56Z</time>
      </trkpt>
      <trkpt lat="43.17187" lon="6.0589">
        <ele>61</ele>
        <time>2019-09-15T07:09:57Z</time>
      </trkpt>
      <trkpt lat="43.17229" lon="6.05851">
        <ele>61.953125</ele>
        <time>2019-09-15T07:10:08Z</time>
      </trkpt>
      <trkpt lat="43.17271" lon="6.05821">
        <ele>62</ele>
        <time>2019-09-15T07:10:20Z</time>
      </trkpt>
      <trkpt lat="43.17315" lon="6.05781">
        <ele>62</ele>
        <time>2019-09-15T07:10:35Z</time>
      </trkpt>
      <trkpt lat="43.17343" lon="6.05765">
        <ele>62.03125</ele>
        <time>2019-09-15T07:10:49Z</time>
      </trkpt>
      <trkpt lat="43.17387" lon="6.05736">
        <ele>62.91796875</ele>
        <time>2019-09-15T07:11:04Z</time>
      </trkpt>
      <trkpt lat="43.1742" lon="6.057">
        <ele>62.91015625</ele>
        <time>2019-09-15T07:11:20Z</time>
      </trkpt>
      <trkpt lat="43.17479" lon="6.05656">
        <ele>63</ele>
        <time>2019-09-15T07:11:40Z</time>
      </trkpt>
      <trkpt lat="43.17538" lon="6.05616">
        <ele>63.0625</ele>
        <time>2019-09-15T07:11:57Z</time>
      </trkpt>
      <trkpt lat="43.17541" lon="6.05612">
        <ele>63.17578125</ele>
        <time>2019-09-15T07:11:58Z</time>
      </trkpt>
      <trkpt lat="43.17544" lon="6.05608">
        <ele>63.28125</ele>
        <time>2019-09-15T07:11:59Z</time>
      </trkpt>
      <trkpt lat="43.17546" lon="6.05602">
        <ele>63.3671875</ele>
        <time>2019-09-15T07:12:00Z</time>
      </trkpt>
      <trkpt lat="43.17548" lon="6.05597">
        <ele>63.43359375</ele>
        <time>2019-09-15T07:12:01Z</time>
      </trkpt>
      <trkpt lat="43.17549" lon="6.05591">
        <ele>63.48046875</ele>
        <time>2019-09-15T07:12:02Z</time>
      </trkpt>
      <trkpt lat="43.17551" lon="6.05585">
        <ele>63.5234375</ele>
        <time>2019-09-15T07:12:03Z</time>
      </trkpt>
      <trkpt lat="43.17552" lon="6.05579">
        <ele>63.578125</ele>
        <time>2019-09-15T07:12:04Z</time>
      </trkpt>
      <trkpt lat="43.17554" lon="6.05573">
        <ele>63.65234375</ele>
        <time>2019-09-15T07:12:05Z</time>
      </trkpt>
      <trkpt lat="43.17556" lon="6.05568">
        <ele>63.73828125</ele>
        <time>2019-09-15T07:12:06Z</time>
      </trkpt>
      <trkpt lat="43.17567" lon="6.0555">
        <ele>64</ele>
        <time>2019-09-15T07:12:10Z</time>
      </trkpt>
      <trkpt lat="43.17577" lon="6.05538">
        <ele>64</ele>
        <time>2019-09-15T07:12:13Z</time>
      </trkpt>
      <trkpt lat="43.17581" lon="6.05535">
        <ele>64</ele>
        <time>2019-09-15T07:12:14Z</time>
      </trkpt>
      <trkpt lat="43.17658" lon="6.0547">
        <ele>65</ele>
        <time>2019-09-15T07:12:37Z</time>
      </trkpt>
      <trkpt lat="43.17699" lon="6.0543">
        <ele>65.8984375</ele>
        <time>2019-09-15T07:12:50Z</time>
      </trkpt>
      <trkpt lat="43.17752" lon="6.05384">
        <ele>66</ele>
        <time>2019-09-15T07:13:07Z</time>
      </trkpt>
      <trkpt lat="43.17823" lon="6.05336">
        <ele>67</ele>
        <time>2019-09-15T07:13:27Z</time>
      </trkpt>
      <trkpt lat="43.17882" lon="6.05285">
        <ele>68</ele>
        <time>2019-09-15T07:13:44Z</time>
      </trkpt>
      <trkpt lat="43.17937" lon="6.05244">
        <ele>68.4453125</ele>
        <time>2019-09-15T07:14:00Z</time>
      </trkpt>
      <trkpt lat="43.1797" lon="6.05203">
        <ele>69</ele>
        <time>2019-09-15T07:14:12Z</time>
      </trkpt>
      <trkpt lat="43.17973" lon="6.05187">
        <ele>69</ele>
        <time>2019-09-15T07:14:15Z</time>
      </trkpt>
      <trkpt lat="43.17975" lon="6.05182">
        <ele>69</ele>
        <time>2019-09-15T07:14:16Z</time>
      </trkpt>
      <trkpt lat="43.17977" lon="6.05178">
        <ele>69</ele>
        <time>2019-09-15T07:14:17Z</time>
      </trkpt>
      <trkpt lat="43.1798" lon="6.05174">
        <ele>69</ele>
        <time>2019-09-15T07:14:18Z</time>
      </trkpt>
      <trkpt lat="43.17983" lon="6.05171">
        <ele>69</ele>
        <time>2019-09-15T07:14:19Z</time>
      </trkpt>
      <trkpt lat="43.17986" lon="6.05169">
        <ele>69</ele>
        <time>2019-09-15T07:14:20Z</time>
      </trkpt>
      <trkpt lat="43.1799" lon="6.05167">
        <ele>69</ele>
        <time>2019-09-15T07:14:21Z</time>
      </trkpt>
      <trkpt lat="43.17994" lon="6.05165">
        <ele>69</ele>
        <time>2019-09-15T07:14:22Z</time>
      </trkpt>
      <trkpt lat="43.18073" lon="6.0513">
        <ele>70.33203125</ele>
        <time>2019-09-15T07:14:42Z</time>
      </trkpt>
      <trkpt lat="43.18093" lon="6.0512">
        <ele>70.62890625</ele>
        <time>2019-09-15T07:14:47Z</time>
      </trkpt>
      <trkpt lat="43.18097" lon="6.05119">
        <ele>70.640625</ele>
        <time>2019-09-15T07:14:48Z</time>
      </trkpt>
      <trkpt lat="43.181" lon="6.05117">
        <ele>70.6640625</ele>
        <time>2019-09-15T07:14:49Z</time>
      </trkpt>
      <trkpt lat="43.18104" lon="6.05116">
        <ele>70.703125</ele>
        <time>2019-09-15T07:14:50Z</time>
      </trkpt>
      <trkpt lat="43.18108" lon="6.05114">
        <ele>70.7421875</ele>
        <time>2019-09-15T07:14:51Z</time>
      </trkpt>
      <trkpt lat="43.18111" lon="6.05111">
        <ele>70.80078125</ele>
        <time>2019-09-15T07:14:52Z</time>
      </trkpt>
      <trkpt lat="43.18115" lon="6.05109">
        <ele>70.88671875</ele>
        <time>2019-09-15T07:14:53Z</time>
      </trkpt>
      <trkpt lat="43.18161" lon="6.05084">
        <ele>71</ele>
        <time>2019-09-15T07:15:07Z</time>
      </trkpt>
      <trkpt lat="43.18164" lon="6.05079">
        <ele>71</ele>
        <time>2019-09-15T07:15:09Z</time>
      </trkpt>
      <trkpt lat="43.18165" lon="6.05075">
        <ele>71</ele>
        <time>2019-09-15T07:15:10Z</time>
      </trkpt>
      <trkpt lat="43.18164" lon="6.05071">
        <ele>71</ele>
        <time>2019-09-15T07:15:11Z</time>
      </trkpt>
      <trkpt lat="43.18163" lon="6.05067">
        <ele>71</ele>
        <time>2019-09-15T07:15:12Z</time>
      </trkpt>
      <trkpt lat="43.18161" lon="6.05063">
        <ele>71</ele>
        <time>2019-09-15T07:15:13Z</time>
      </trkpt>
      <trkpt lat="43.18155" lon="6.05046">
        <ele>71</ele>
        <time>2019-09-15T07:15:17Z</time>
      </trkpt>
      <trkpt lat="43.18138" lon="6.04999">
        <ele>70.16015625</ele>
        <time>2019-09-15T07:15:28Z</time>
      </trkpt>
      <trkpt lat="43.18138" lon="6.04993">
        <ele>70.00390625</ele>
        <time>2019-09-15T07:15:32Z</time>
      </trkpt>
      <trkpt lat="43.18139" lon="6.04991">
        <ele>69.98828125</ele>
        <time>2019-09-15T07:15:33Z</time>
      </trkpt>
      <trkpt lat="43.18141" lon="6.0499">
        <ele>69.984375</ele>
        <time>2019-09-15T07:15:34Z</time>
      </trkpt>
      <trkpt lat="43.18143" lon="6.0499">
        <ele>69.98828125</ele>
        <time>2019-09-15T07:15:35Z</time>
      </trkpt>
      <trkpt lat="43.18145" lon="6.0499">
        <ele>69.9921875</ele>
        <time>2019-09-15T07:15:36Z</time>
      </trkpt>
      <trkpt lat="43.18169" lon="6.04979">
        <ele>70.3984375</ele>
        <time>2019-09-15T07:15:49Z</time>
      </trkpt>
      <trkpt lat="43.18215" lon="6.04973">
        <ele>71</ele>
        <time>2019-09-15T07:16:03Z</time>
      </trkpt>
      <trkpt lat="43.18276" lon="6.04975">
        <ele>71.76953125</ele>
        <time>2019-09-15T07:16:20Z</time>
      </trkpt>
      <trkpt lat="43.18336" lon="6.04975">
        <ele>72</ele>
        <time>2019-09-15T07:16:36Z</time>
      </trkpt>
      <trkpt lat="43.18383" lon="6.04927">
        <ele>72.83203125</ele>
        <time>2019-09-15T07:16:52Z</time>
      </trkpt>
      <trkpt lat="43.18438" lon="6.04892">
        <ele>73.1953125</ele>
        <time>2019-09-15T07:17:08Z</time>
      </trkpt>
      <trkpt lat="43.1849" lon="6.04866">
        <ele>74.3828125</ele>
        <time>2019-09-15T07:17:23Z</time>
      </trkpt>
      <trkpt lat="43.18517" lon="6.04842">
        <ele>74.70703125</ele>
        <time>2019-09-15T07:17:36Z</time>
      </trkpt>
      <trkpt lat="43.18554" lon="6.04824">
        <ele>74.92578125</ele>
        <time>2019-09-15T07:17:49Z</time>
      </trkpt>
      <trkpt lat="43.18607" lon="6.04793">
        <ele>74.56640625</ele>
        <time>2019-09-15T07:18:04Z</time>
      </trkpt>
      <trkpt lat="43.18659" lon="6.04751">
        <ele>75.1328125</ele>
        <time>2019-09-15T07:18:20Z</time>
      </trkpt>
      <trkpt lat="43.18726" lon="6.04727">
        <ele>76</ele>
        <time>2019-09-15T07:18:38Z</time>
      </trkpt>
      <trkpt lat="43.18789" lon="6.04716">
        <ele>75</ele>
        <time>2019-09-15T07:18:55Z</time>
      </trkpt>
      <trkpt lat="43.18855" lon="6.04692">
        <ele>75</ele>
        <time>2019-09-15T07:19:13Z</time>
      </trkpt>
      <trkpt lat="43.18902" lon="6.0467">
        <ele>75.484375</ele>
        <time>2019-09-15T07:19:24Z</time>
      </trkpt>
      <trkpt lat="43.18906" lon="6.04667">
        <ele>75.46875</ele>
        <time>2019-09-15T07:19:25Z</time>
      </trkpt>
      <trkpt lat="43.18964" lon="6.04622">
        <ele>75.1953125</ele>
        <time>2019-09-15T07:19:40Z</time>
      </trkpt>
      <trkpt lat="43.18969" lon="6.0462">
        <ele>75.1640625</ele>
        <time>2019-09-15T07:19:41Z</time>
      </trkpt>
      <trkpt lat="43.18973" lon="6.04619">
        <ele>75.1015625</ele>
        <time>2019-09-15T07:19:42Z</time>
      </trkpt>
      <trkpt lat="43.18978" lon="6.0462">
        <ele>75.03125</ele>
        <time>2019-09-15T07:19:43Z</time>
      </trkpt>
      <trkpt lat="43.18982" lon="6.04621">
        <ele>75</ele>
        <time>2019-09-15T07:19:44Z</time>
      </trkpt>
      <trkpt lat="43.18986" lon="6.04622">
        <ele>75</ele>
        <time>2019-09-15T07:19:45Z</time>
      </trkpt>
      <trkpt lat="43.1899" lon="6.04624">
        <ele>75</ele>
        <time>2019-09-15T07:19:46Z</time>
      </trkpt>
      <trkpt lat="43.19026" lon="6.04648">
        <ele>75</ele>
        <time>2019-09-15T07:20:00Z</time>
      </trkpt>
      <trkpt lat="43.19044" lon="6.04653">
        <ele>75</ele>
        <time>2019-09-15T07:20:07Z</time>
      </trkpt>
      <trkpt lat="43.19084" lon="6.04665">
        <ele>75</ele>
        <time>2019-09-15T07:20:18Z</time>
      </trkpt>
      <trkpt lat="43.19145" lon="6.04678">
        <ele>75.32421875</ele>
        <time>2019-09-15T07:20:34Z</time>
      </trkpt>
      <trkpt lat="43.19204" lon="6.04688">
        <ele>75.07421875</ele>
        <time>2019-09-15T07:20:49Z</time>
      </trkpt>
      <trkpt lat="43.19208" lon="6.04687">
        <ele>75.23046875</ele>
        <time>2019-09-15T07:20:52Z</time>
      </trkpt>
      <trkpt lat="43.19211" lon="6.04686">
        <ele>75.3671875</ele>
        <time>2019-09-15T07:20:56Z</time>
      </trkpt>
      <trkpt lat="43.19212" lon="6.04688">
        <ele>75.390625</ele>
        <time>2019-09-15T07:20:57Z</time>
      </trkpt>
      <trkpt lat="43.19213" lon="6.04691">
        <ele>75.390625</ele>
        <time>2019-09-15T07:20:58Z</time>
      </trkpt>
      <trkpt lat="43.19211" lon="6.04692">
        <ele>75.32421875</ele>
        <time>2019-09-15T07:20:59Z</time>
      </trkpt>
      <trkpt lat="43.19208" lon="6.04691">
        <ele>75.2421875</ele>
        <time>2019-09-15T07:21:00Z</time>
      </trkpt>
      <trkpt lat="43.19207" lon="6.04689">
        <ele>75.20703125</ele>
        <time>2019-09-15T07:21:01Z</time>
      </trkpt>
      <trkpt lat="43.19208" lon="6.04685">
        <ele>75.296875</ele>
        <time>2019-09-15T07:21:02Z</time>
      </trkpt>
      <trkpt lat="43.19209" lon="6.04682">
        <ele>75.39453125</ele>
        <time>2019-09-15T07:21:03Z</time>
      </trkpt>
      <trkpt lat="43.1921" lon="6.04681">
        <ele>75.453125</ele>
        <time>2019-09-15T07:21:04Z</time>
      </trkpt>
      <trkpt lat="43.19211" lon="6.04679">
        <ele>75.5390625</ele>
        <time>2019-09-15T07:21:07Z</time>
      </trkpt>
      <trkpt lat="43.19212" lon="6.04677">
        <ele>75.58984375</ele>
        <time>2019-09-15T07:21:08Z</time>
      </trkpt>
      <trkpt lat="43.19213" lon="6.04674">
        <ele>75.671875</ele>
        <time>2019-09-15T07:21:09Z</time>
      </trkpt>
      <trkpt lat="43.19216" lon="6.04661">
        <ele>75.96875</ele>
        <time>2019-09-15T07:21:12Z</time>
      </trkpt>
      <trkpt lat="43.19211" lon="6.04638">
        <ele>76</ele>
        <time>2019-09-15T07:21:21Z</time>
      </trkpt>
      <trkpt lat="43.1921" lon="6.04636">
        <ele>76</ele>
        <time>2019-09-15T07:21:22Z</time>
      </trkpt>
      <trkpt lat="43.19207" lon="6.04633">
        <ele>76</ele>
        <time>2019-09-15T07:21:23Z</time>
      </trkpt>
      <trkpt lat="43.19204" lon="6.04631">
        <ele>76</ele>
        <time>2019-09-15T07:21:24Z</time>
      </trkpt>
      <trkpt lat="43.192" lon="6.04628">
        <ele>76</ele>
        <time>2019-09-15T07:21:25Z</time>
      </trkpt>
      <trkpt lat="43.19166" lon="6.04604">
        <ele>76</ele>
        <time>2019-09-15T07:21:38Z</time>
      </trkpt>
      <trkpt lat="43.19156" lon="6.04596">
        <ele>76</ele>
        <time>2019-09-15T07:21:44Z</time>
      </trkpt>
      <trkpt lat="43.19155" lon="6.04594">
        <ele>76</ele>
        <time>2019-09-15T07:21:45Z</time>
      </trkpt>
      <trkpt lat="43.19156" lon="6.0459">
        <ele>76</ele>
        <time>2019-09-15T07:21:46Z</time>
      </trkpt>
      <trkpt lat="43.19156" lon="6.04585">
        <ele>76</ele>
        <time>2019-09-15T07:21:47Z</time>
      </trkpt>
      <trkpt lat="43.19155" lon="6.0458">
        <ele>76</ele>
        <time>2019-09-15T07:21:48Z</time>
      </trkpt>
      <trkpt lat="43.19154" lon="6.04575">
        <ele>76</ele>
        <time>2019-09-15T07:21:49Z</time>
      </trkpt>
      <trkpt lat="43.19152" lon="6.04571">
        <ele>76</ele>
        <time>2019-09-15T07:21:50Z</time>
      </trkpt>
      <trkpt lat="43.19149" lon="6.04569">
        <ele>76</ele>
        <time>2019-09-15T07:21:51Z</time>
      </trkpt>
      <trkpt lat="43.19147" lon="6.04566">
        <ele>76</ele>
        <time>2019-09-15T07:21:52Z</time>
      </trkpt>
      <trkpt lat="43.19145" lon="6.04563">
        <ele>76</ele>
        <time>2019-09-15T07:21:53Z</time>
      </trkpt>
      <trkpt lat="43.19143" lon="6.04561">
        <ele>76</ele>
        <time>2019-09-15T07:21:54Z</time>
      </trkpt>
      <trkpt lat="43.1914" lon="6.04558">
        <ele>76</ele>
        <time>2019-09-15T07:21:55Z</time>
      </trkpt>
      <trkpt lat="43.19113" lon="6.04524">
        <ele>76</ele>
        <time>2019-09-15T07:22:07Z</time>
      </trkpt>
      <trkpt lat="43.19113" lon="6.04502">
        <ele>76.53515625</ele>
        <time>2019-09-15T07:22:15Z</time>
      </trkpt>
      <trkpt lat="43.19114" lon="6.045">
        <ele>76.6171875</ele>
        <time>2019-09-15T07:22:16Z</time>
      </trkpt>
      <trkpt lat="43.19133" lon="6.04481">
        <ele>77</ele>
        <time>2019-09-15T07:22:27Z</time>
      </trkpt>
      <trkpt lat="43.19134" lon="6.04481">
        <ele>77</ele>
        <time>2019-09-15T07:22:28Z</time>
      </trkpt>
      <trkpt lat="43.19136" lon="6.04482">
        <ele>77</ele>
        <time>2019-09-15T07:22:29Z</time>
      </trkpt>
      <trkpt lat="43.19139" lon="6.04481">
        <ele>77</ele>
        <time>2019-09-15T07:22:30Z</time>
      </trkpt>
      <trkpt lat="43.1914" lon="6.04479">
        <ele>77</ele>
        <time>2019-09-15T07:22:31Z</time>
      </trkpt>
      <trkpt lat="43.19139" lon="6.04476">
        <ele>77</ele>
        <time>2019-09-15T07:22:32Z</time>
      </trkpt>
      <trkpt lat="43.19137" lon="6.04476">
        <ele>77</ele>
        <time>2019-09-15T07:22:33Z</time>
      </trkpt>
      <trkpt lat="43.19134" lon="6.04476">
        <ele>77</ele>
        <time>2019-09-15T07:22:34Z</time>
      </trkpt>
      <trkpt lat="43.19116" lon="6.04474">
        <ele>76.96875</ele>
        <time>2019-09-15T07:22:39Z</time>
      </trkpt>
      <trkpt lat="43.19111" lon="6.04474">
        <ele>76.91015625</ele>
        <time>2019-09-15T07:22:40Z</time>
      </trkpt>
      <trkpt lat="43.19106" lon="6.04475">
        <ele>76.83203125</ele>
        <time>2019-09-15T07:22:41Z</time>
      </trkpt>
      <trkpt lat="43.19101" lon="6.04478">
        <ele>76.71484375</ele>
        <time>2019-09-15T07:22:42Z</time>
      </trkpt>
      <trkpt lat="43.19096" lon="6.0448">
        <ele>76.57421875</ele>
        <time>2019-09-15T07:22:43Z</time>
      </trkpt>
      <trkpt lat="43.19091" lon="6.0448">
        <ele>76.46484375</ele>
        <time>2019-09-15T07:22:44Z</time>
      </trkpt>
      <trkpt lat="43.19063" lon="6.04474">
        <ele>76.0078125</ele>
        <time>2019-09-15T07:22:52Z</time>
      </trkpt>
      <trkpt lat="43.19059" lon="6.04474">
        <ele>76</ele>
        <time>2019-09-15T07:22:53Z</time>
      </trkpt>
      <trkpt lat="43.1904" lon="6.0448">
        <ele>76</ele>
        <time>2019-09-15T07:22:57Z</time>
      </trkpt>
      <trkpt lat="43.19035" lon="6.04481">
        <ele>76</ele>
        <time>2019-09-15T07:22:58Z</time>
      </trkpt>
      <trkpt lat="43.1903" lon="6.04481">
        <ele>76</ele>
        <time>2019-09-15T07:22:59Z</time>
      </trkpt>
      <trkpt lat="43.19018" lon="6.0448">
        <ele>76</ele>
        <time>2019-09-15T07:23:01Z</time>
      </trkpt>
      <trkpt lat="43.19012" lon="6.04477">
        <ele>76</ele>
        <time>2019-09-15T07:23:02Z</time>
      </trkpt>
      <trkpt lat="43.19007" lon="6.04474">
        <ele>76</ele>
        <time>2019-09-15T07:23:03Z</time>
      </trkpt>
      <trkpt lat="43.19001" lon="6.04468">
        <ele>76</ele>
        <time>2019-09-15T07:23:04Z</time>
      </trkpt>
      <trkpt lat="43.18997" lon="6.04462">
        <ele>76</ele>
        <time>2019-09-15T07:23:05Z</time>
      </trkpt>
      <trkpt lat="43.18992" lon="6.04456">
        <ele>76</ele>
        <time>2019-09-15T07:23:06Z</time>
      </trkpt>
      <trkpt lat="43.18943" lon="6.04386">
        <ele>76.30078125</ele>
        <time>2019-09-15T07:23:20Z</time>
      </trkpt>
      <trkpt lat="43.18933" lon="6.04379">
        <ele>76.6015625</ele>
        <time>2019-09-15T07:23:23Z</time>
      </trkpt>
      <trkpt lat="43.18929" lon="6.04379">
        <ele>76.73828125</ele>
        <time>2019-09-15T07:23:24Z</time>
      </trkpt>
      <trkpt lat="43.18924" lon="6.0438">
        <ele>76.92578125</ele>
        <time>2019-09-15T07:23:25Z</time>
      </trkpt>
      <trkpt lat="43.18897" lon="6.04387">
        <ele>77</ele>
        <time>2019-09-15T07:23:30Z</time>
      </trkpt>
      <trkpt lat="43.18892" lon="6.04385">
        <ele>76.83984375</ele>
        <time>2019-09-15T07:23:31Z</time>
      </trkpt>
      <trkpt lat="43.18887" lon="6.04382">
        <ele>76.65234375</ele>
        <time>2019-09-15T07:23:32Z</time>
      </trkpt>
      <trkpt lat="43.18882" lon="6.04377">
        <ele>76.48828125</ele>
        <time>2019-09-15T07:23:33Z</time>
      </trkpt>
      <trkpt lat="43.18879" lon="6.04373">
        <ele>76.38671875</ele>
        <time>2019-09-15T07:23:34Z</time>
      </trkpt>
      <trkpt lat="43.18861" lon="6.04337">
        <ele>75.28125</ele>
        <time>2019-09-15T07:23:39Z</time>
      </trkpt>
      <trkpt lat="43.18857" lon="6.04331">
        <ele>75.09765625</ele>
        <time>2019-09-15T07:23:40Z</time>
      </trkpt>
      <trkpt lat="43.18853" lon="6.04325">
        <ele>74.98046875</ele>
        <time>2019-09-15T07:23:41Z</time>
      </trkpt>
      <trkpt lat="43.18849" lon="6.0432">
        <ele>74.828125</ele>
        <time>2019-09-15T07:23:42Z</time>
      </trkpt>
      <trkpt lat="43.18845" lon="6.04313">
        <ele>74.58984375</ele>
        <time>2019-09-15T07:23:43Z</time>
      </trkpt>
      <trkpt lat="43.18843" lon="6.04305">
        <ele>74.27734375</ele>
        <time>2019-09-15T07:23:44Z</time>
      </trkpt>
      <trkpt lat="43.18842" lon="6.04295">
        <ele>74.05078125</ele>
        <time>2019-09-15T07:23:45Z</time>
      </trkpt>
      <trkpt lat="43.18844" lon="6.04286">
        <ele>74.10546875</ele>
        <time>2019-09-15T07:23:46Z</time>
      </trkpt>
      <trkpt lat="43.18848" lon="6.04279">
        <ele>74.25</ele>
        <time>2019-09-15T07:23:47Z</time>
      </trkpt>
      <trkpt lat="43.18853" lon="6.04274">
        <ele>74.4296875</ele>
        <time>2019-09-15T07:23:48Z</time>
      </trkpt>
      <trkpt lat="43.18858" lon="6.0427">
        <ele>74.59765625</ele>
        <time>2019-09-15T07:23:49Z</time>
      </trkpt>
      <trkpt lat="43.18863" lon="6.04267">
        <ele>74.703125</ele>
        <time>2019-09-15T07:23:50Z</time>
      </trkpt>
      <trkpt lat="43.18869" lon="6.04265">
        <ele>74.79296875</ele>
        <time>2019-09-15T07:23:51Z</time>
      </trkpt>
      <trkpt lat="43.18874" lon="6.04263">
        <ele>74.89453125</ele>
        <time>2019-09-15T07:23:52Z</time>
      </trkpt>
      <trkpt lat="43.18878" lon="6.0426">
        <ele>74.98046875</ele>
        <time>2019-09-15T07:23:53Z</time>
      </trkpt>
      <trkpt lat="43.18901" lon="6.04247">
        <ele>75.3046875</ele>
        <time>2019-09-15T07:23:58Z</time>
      </trkpt>
      <trkpt lat="43.18933" lon="6.04224">
        <ele>75.5390625</ele>
        <time>2019-09-15T07:24:05Z</time>
      </trkpt>
      <trkpt lat="43.18936" lon="6.04218">
        <ele>75.48046875</ele>
        <time>2019-09-15T07:24:06Z</time>
      </trkpt>
      <trkpt lat="43.18937" lon="6.04211">
        <ele>75.48046875</ele>
        <time>2019-09-15T07:24:07Z</time>
      </trkpt>
      <trkpt lat="43.18938" lon="6.04204">
        <ele>75.4921875</ele>
        <time>2019-09-15T07:24:08Z</time>
      </trkpt>
      <trkpt lat="43.18937" lon="6.04197">
        <ele>75.453125</ele>
        <time>2019-09-15T07:24:09Z</time>
      </trkpt>
      <trkpt lat="43.18935" lon="6.0419">
        <ele>75.375</ele>
        <time>2019-09-15T07:24:10Z</time>
      </trkpt>
      <trkpt lat="43.18932" lon="6.04182">
        <ele>75.30078125</ele>
        <time>2019-09-15T07:24:11Z</time>
      </trkpt>
      <trkpt lat="43.18917" lon="6.04126">
        <ele>75.21484375</ele>
        <time>2019-09-15T07:24:22Z</time>
      </trkpt>
      <trkpt lat="43.18915" lon="6.04083">
        <ele>76</ele>
        <time>2019-09-15T07:24:31Z</time>
      </trkpt>
      <trkpt lat="43.18913" lon="6.04065">
        <ele>76.40625</ele>
        <time>2019-09-15T07:24:34Z</time>
      </trkpt>
      <trkpt lat="43.18912" lon="6.04059">
        <ele>76.63671875</ele>
        <time>2019-09-15T07:24:35Z</time>
      </trkpt>
      <trkpt lat="43.18907" lon="6.04003">
        <ele>78.40234375</ele>
        <time>2019-09-15T07:24:44Z</time>
      </trkpt>
      <trkpt lat="43.18905" lon="6.03998">
        <ele>78.5625</ele>
        <time>2019-09-15T07:24:45Z</time>
      </trkpt>
      <trkpt lat="43.18904" lon="6.03993">
        <ele>78.7421875</ele>
        <time>2019-09-15T07:24:46Z</time>
      </trkpt>
      <trkpt lat="43.18874" lon="6.03964">
        <ele>80.02734375</ele>
        <time>2019-09-15T07:24:56Z</time>
      </trkpt>
      <trkpt lat="43.18871" lon="6.03961">
        <ele>80.12890625</ele>
        <time>2019-09-15T07:24:57Z</time>
      </trkpt>
      <trkpt lat="43.18845" lon="6.03931">
        <ele>82.08984375</ele>
        <time>2019-09-15T07:25:07Z</time>
      </trkpt>
      <trkpt lat="43.18834" lon="6.03922">
        <ele>82.78125</ele>
        <time>2019-09-15T07:25:12Z</time>
      </trkpt>
      <trkpt lat="43.18833" lon="6.03923">
        <ele>82.80859375</ele>
        <time>2019-09-15T07:25:13Z</time>
      </trkpt>
      <trkpt lat="43.18797" lon="6.03948">
        <ele>82.44921875</ele>
        <time>2019-09-15T07:25:24Z</time>
      </trkpt>
      <trkpt lat="43.18731" lon="6.03989">
        <ele>81.12890625</ele>
        <time>2019-09-15T07:25:40Z</time>
      </trkpt>
      <trkpt lat="43.18722" lon="6.03994">
        <ele>80.953125</ele>
        <time>2019-09-15T07:25:42Z</time>
      </trkpt>
      <trkpt lat="43.18717" lon="6.03996">
        <ele>80.90234375</ele>
        <time>2019-09-15T07:25:43Z</time>
      </trkpt>
      <trkpt lat="43.18712" lon="6.03997">
        <ele>80.859375</ele>
        <time>2019-09-15T07:25:44Z</time>
      </trkpt>
      <trkpt lat="43.18707" lon="6.03999">
        <ele>80.7890625</ele>
        <time>2019-09-15T07:25:45Z</time>
      </trkpt>
      <trkpt lat="43.18701" lon="6.04002">
        <ele>80.71875</ele>
        <time>2019-09-15T07:25:46Z</time>
      </trkpt>
      <trkpt lat="43.18641" lon="6.0404">
        <ele>80.375</ele>
        <time>2019-09-15T07:25:58Z</time>
      </trkpt>
      <trkpt lat="43.18637" lon="6.04046">
        <ele>80.109375</ele>
        <time>2019-09-15T07:26:00Z</time>
      </trkpt>
      <trkpt lat="43.18634" lon="6.04049">
        <ele>79.97265625</ele>
        <time>2019-09-15T07:26:01Z</time>
      </trkpt>
      <trkpt lat="43.18617" lon="6.04065">
        <ele>78.87109375</ele>
        <time>2019-09-15T07:26:05Z</time>
      </trkpt>
      <trkpt lat="43.18613" lon="6.0407">
        <ele>78.62109375</ele>
        <time>2019-09-15T07:26:06Z</time>
      </trkpt>
      <trkpt lat="43.18559" lon="6.04145">
        <ele>76.8359375</ele>
        <time>2019-09-15T07:26:16Z</time>
      </trkpt>
      <trkpt lat="43.1854" lon="6.04175">
        <ele>77.1328125</ele>
        <time>2019-09-15T07:26:19Z</time>
      </trkpt>
      <trkpt lat="43.18501" lon="6.04264">
        <ele>74.71875</ele>
        <time>2019-09-15T07:26:28Z</time>
      </trkpt>
      <trkpt lat="43.1845" lon="6.04313">
        <ele>73.9921875</ele>
        <time>2019-09-15T07:26:36Z</time>
      </trkpt>
      <trkpt lat="43.18435" lon="6.04319">
        <ele>74</ele>
        <time>2019-09-15T07:26:38Z</time>
      </trkpt>
      <trkpt lat="43.1832" lon="6.04333">
        <ele>76.33984375</ele>
        <time>2019-09-15T07:26:53Z</time>
      </trkpt>
      <trkpt lat="43.18309" lon="6.04338">
        <ele>76.83203125</ele>
        <time>2019-09-15T07:26:55Z</time>
      </trkpt>
      <trkpt lat="43.18279" lon="6.04363">
        <ele>77.15234375</ele>
        <time>2019-09-15T07:27:01Z</time>
      </trkpt>
      <trkpt lat="43.18254" lon="6.04403">
        <ele>77.2890625</ele>
        <time>2019-09-15T07:27:11Z</time>
      </trkpt>
      <trkpt lat="43.18251" lon="6.04409">
        <ele>77.0390625</ele>
        <time>2019-09-15T07:27:14Z</time>
      </trkpt>
      <trkpt lat="43.18255" lon="6.04413">
        <ele>76.86328125</ele>
        <time>2019-09-15T07:27:16Z</time>
      </trkpt>
      <trkpt lat="43.18259" lon="6.04412">
        <ele>76.88671875</ele>
        <time>2019-09-15T07:27:17Z</time>
      </trkpt>
      <trkpt lat="43.18262" lon="6.04409">
        <ele>76.84765625</ele>
        <time>2019-09-15T07:27:18Z</time>
      </trkpt>
      <trkpt lat="43.18266" lon="6.04406">
        <ele>76.796875</ele>
        <time>2019-09-15T07:27:19Z</time>
      </trkpt>
      <trkpt lat="43.1827" lon="6.04402">
        <ele>76.70703125</ele>
        <time>2019-09-15T07:27:20Z</time>
      </trkpt>
      <trkpt lat="43.18346" lon="6.04338">
        <ele>74.921875</ele>
        <time>2019-09-15T07:27:38Z</time>
      </trkpt>
      <trkpt lat="43.18408" lon="6.04273">
        <ele>77.41015625</ele>
        <time>2019-09-15T07:27:53Z</time>
      </trkpt>
      <trkpt lat="43.18503" lon="6.04158">
        <ele>80.62109375</ele>
        <time>2019-09-15T07:28:15Z</time>
      </trkpt>
      <trkpt lat="43.18595" lon="6.04042">
        <ele>81.3515625</ele>
        <time>2019-09-15T07:28:38Z</time>
      </trkpt>
      <trkpt lat="43.18658" lon="6.03963">
        <ele>83.7578125</ele>
        <time>2019-09-15T07:28:58Z</time>
      </trkpt>
      <trkpt lat="43.18661" lon="6.03959">
        <ele>83.94140625</ele>
        <time>2019-09-15T07:28:59Z</time>
      </trkpt>
      <trkpt lat="43.18727" lon="6.03877">
        <ele>87.1875</ele>
        <time>2019-09-15T07:29:19Z</time>
      </trkpt>
      <trkpt lat="43.18754" lon="6.03831">
        <ele>88.0859375</ele>
        <time>2019-09-15T07:29:30Z</time>
      </trkpt>
      <trkpt lat="43.18757" lon="6.03817">
        <ele>88.3984375</ele>
        <time>2019-09-15T07:29:33Z</time>
      </trkpt>
      <trkpt lat="43.18755" lon="6.03814">
        <ele>88.66015625</ele>
        <time>2019-09-15T07:29:34Z</time>
      </trkpt>
      <trkpt lat="43.18753" lon="6.03811">
        <ele>89</ele>
        <time>2019-09-15T07:29:35Z</time>
      </trkpt>
      <trkpt lat="43.1875" lon="6.0381">
        <ele>89.34375</ele>
        <time>2019-09-15T07:29:36Z</time>
      </trkpt>
      <trkpt lat="43.18747" lon="6.03809">
        <ele>89.6484375</ele>
        <time>2019-09-15T07:29:37Z</time>
      </trkpt>
      <trkpt lat="43.18731" lon="6.03795">
        <ele>91.97265625</ele>
        <time>2019-09-15T07:29:48Z</time>
      </trkpt>
      <trkpt lat="43.18729" lon="6.03793">
        <ele>92.26171875</ele>
        <time>2019-09-15T07:29:50Z</time>
      </trkpt>
      <trkpt lat="43.18728" lon="6.03791">
        <ele>92.41015625</ele>
        <time>2019-09-15T07:29:51Z</time>
      </trkpt>
      <trkpt lat="43.18726" lon="6.0379">
        <ele>92.56640625</ele>
        <time>2019-09-15T07:29:52Z</time>
      </trkpt>
      <trkpt lat="43.18704" lon="6.03768">
        <ele>95.078125</ele>
        <time>2019-09-15T07:30:06Z</time>
      </trkpt>
      <trkpt lat="43.18693" lon="6.03756">
        <ele>97.05078125</ele>
        <time>2019-09-15T07:30:21Z</time>
      </trkpt>
      <trkpt lat="43.1869" lon="6.03755">
        <ele>97.44140625</ele>
        <time>2019-09-15T07:30:45Z</time>
      </trkpt>
      <trkpt lat="43.1869" lon="6.03749">
        <ele>97.9375</ele>
        <time>2019-09-15T07:31:00Z</time>
      </trkpt>
      <trkpt lat="43.18692" lon="6.0375">
        <ele>97.6171875</ele>
        <time>2019-09-15T07:31:26Z</time>
      </trkpt>
      <trkpt lat="43.18689" lon="6.0375">
        <ele>97.93359375</ele>
        <time>2019-09-15T07:31:53Z</time>
      </trkpt>
      <trkpt lat="43.18689" lon="6.03747">
        <ele>98.16796875</ele>
        <time>2019-09-15T07:32:17Z</time>
      </trkpt>
      <trkpt lat="43.1869" lon="6.03745">
        <ele>98.234375</ele>
        <time>2019-09-15T07:32:36Z</time>
      </trkpt>
      <trkpt lat="43.18704" lon="6.03721">
        <ele>97.6640625</ele>
        <time>2019-09-15T07:32:49Z</time>
      </trkpt>
      <trkpt lat="43.18715" lon="6.03687">
        <ele>98.15625</ele>
        <time>2019-09-15T07:33:01Z</time>
      </trkpt>
      <trkpt lat="43.18733" lon="6.03671">
        <ele>97.94140625</ele>
        <time>2019-09-15T07:33:08Z</time>
      </trkpt>
      <trkpt lat="43.18738" lon="6.0367">
        <ele>97.734375</ele>
        <time>2019-09-15T07:33:09Z</time>
      </trkpt>
      <trkpt lat="43.18742" lon="6.03669">
        <ele>97.4609375</ele>
        <time>2019-09-15T07:33:10Z</time>
      </trkpt>
      <trkpt lat="43.18747" lon="6.03668">
        <ele>97.2265625</ele>
        <time>2019-09-15T07:33:11Z</time>
      </trkpt>
      <trkpt lat="43.18751" lon="6.03665">
        <ele>97.08984375</ele>
        <time>2019-09-15T07:33:12Z</time>
      </trkpt>
      <trkpt lat="43.18755" lon="6.03663">
        <ele>96.9921875</ele>
        <time>2019-09-15T07:33:13Z</time>
      </trkpt>
      <trkpt lat="43.18759" lon="6.0366">
        <ele>96.8828125</ele>
        <time>2019-09-15T07:33:14Z</time>
      </trkpt>
      <trkpt lat="43.18763" lon="6.03657">
        <ele>96.890625</ele>
        <time>2019-09-15T07:33:15Z</time>
      </trkpt>
      <trkpt lat="43.18767" lon="6.03655">
        <ele>96.82421875</ele>
        <time>2019-09-15T07:33:16Z</time>
      </trkpt>
      <trkpt lat="43.18812" lon="6.0363">
        <ele>95.234375</ele>
        <time>2019-09-15T07:33:28Z</time>
      </trkpt>
      <trkpt lat="43.18835" lon="6.03615">
        <ele>93.37109375</ele>
        <time>2019-09-15T07:33:35Z</time>
      </trkpt>
      <trkpt lat="43.18856" lon="6.036">
        <ele>91.6484375</ele>
        <time>2019-09-15T07:33:39Z</time>
      </trkpt>
      <trkpt lat="43.18862" lon="6.03594">
        <ele>91.4765625</ele>
        <time>2019-09-15T07:33:40Z</time>
      </trkpt>
      <trkpt lat="43.18867" lon="6.03588">
        <ele>91.3828125</ele>
        <time>2019-09-15T07:33:41Z</time>
      </trkpt>
      <trkpt lat="43.18883" lon="6.03567">
        <ele>90.71484375</ele>
        <time>2019-09-15T07:33:44Z</time>
      </trkpt>
      <trkpt lat="43.18887" lon="6.03559">
        <ele>90.6484375</ele>
        <time>2019-09-15T07:33:45Z</time>
      </trkpt>
      <trkpt lat="43.1889" lon="6.03551">
        <ele>90.71875</ele>
        <time>2019-09-15T07:33:46Z</time>
      </trkpt>
      <trkpt lat="43.18898" lon="6.03527">
        <ele>91.3671875</ele>
        <time>2019-09-15T07:33:49Z</time>
      </trkpt>
      <trkpt lat="43.18901" lon="6.0352">
        <ele>91.43359375</ele>
        <time>2019-09-15T07:33:50Z</time>
      </trkpt>
      <trkpt lat="43.18904" lon="6.03514">
        <ele>91.44921875</ele>
        <time>2019-09-15T07:33:51Z</time>
      </trkpt>
      <trkpt lat="43.18907" lon="6.03508">
        <ele>91.40625</ele>
        <time>2019-09-15T07:33:52Z</time>
      </trkpt>
      <trkpt lat="43.18911" lon="6.03502">
        <ele>91.27734375</ele>
        <time>2019-09-15T07:33:53Z</time>
      </trkpt>
      <trkpt lat="43.18915" lon="6.03497">
        <ele>91.046875</ele>
        <time>2019-09-15T07:33:54Z</time>
      </trkpt>
      <trkpt lat="43.1892" lon="6.03492">
        <ele>90.8125</ele>
        <time>2019-09-15T07:33:55Z</time>
      </trkpt>
      <trkpt lat="43.18929" lon="6.03483">
        <ele>90.54296875</ele>
        <time>2019-09-15T07:33:57Z</time>
      </trkpt>
      <trkpt lat="43.18934" lon="6.03478">
        <ele>90.28515625</ele>
        <time>2019-09-15T07:33:58Z</time>
      </trkpt>
      <trkpt lat="43.18946" lon="6.03471">
        <ele>89.3984375</ele>
        <time>2019-09-15T07:34:00Z</time>
      </trkpt>
      <trkpt lat="43.18958" lon="6.03462">
        <ele>89.05078125</ele>
        <time>2019-09-15T07:34:02Z</time>
      </trkpt>
      <trkpt lat="43.18963" lon="6.03457">
        <ele>89.125</ele>
        <time>2019-09-15T07:34:03Z</time>
      </trkpt>
      <trkpt lat="43.18975" lon="6.03448">
        <ele>88.92578125</ele>
        <time>2019-09-15T07:34:05Z</time>
      </trkpt>
      <trkpt lat="43.18981" lon="6.03445">
        <ele>88.6796875</ele>
        <time>2019-09-15T07:34:06Z</time>
      </trkpt>
      <trkpt lat="43.19008" lon="6.03434">
        <ele>88.1171875</ele>
        <time>2019-09-15T07:34:10Z</time>
      </trkpt>
      <trkpt lat="43.19021" lon="6.03425">
        <ele>87.96875</ele>
        <time>2019-09-15T07:34:12Z</time>
      </trkpt>
      <trkpt lat="43.19027" lon="6.03418">
        <ele>87.9765625</ele>
        <time>2019-09-15T07:34:13Z</time>
      </trkpt>
      <trkpt lat="43.19033" lon="6.03411">
        <ele>88.03515625</ele>
        <time>2019-09-15T07:34:14Z</time>
      </trkpt>
      <trkpt lat="43.19038" lon="6.03405">
        <ele>88.0703125</ele>
        <time>2019-09-15T07:34:15Z</time>
      </trkpt>
      <trkpt lat="43.19044" lon="6.03399">
        <ele>88.0546875</ele>
        <time>2019-09-15T07:34:16Z</time>
      </trkpt>
      <trkpt lat="43.1905" lon="6.03395">
        <ele>87.99609375</ele>
        <time>2019-09-15T07:34:17Z</time>
      </trkpt>
      <trkpt lat="43.19057" lon="6.03391">
        <ele>87.90234375</ele>
        <time>2019-09-15T07:34:18Z</time>
      </trkpt>
      <trkpt lat="43.19063" lon="6.03388">
        <ele>87.796875</ele>
        <time>2019-09-15T07:34:19Z</time>
      </trkpt>
      <trkpt lat="43.19097" lon="6.0336">
        <ele>86.95703125</ele>
        <time>2019-09-15T07:34:25Z</time>
      </trkpt>
      <trkpt lat="43.19166" lon="6.03292">
        <ele>88.49609375</ele>
        <time>2019-09-15T07:34:39Z</time>
      </trkpt>
      <trkpt lat="43.19171" lon="6.03289">
        <ele>88.71484375</ele>
        <time>2019-09-15T07:34:40Z</time>
      </trkpt>
      <trkpt lat="43.19176" lon="6.03287">
        <ele>88.875</ele>
        <time>2019-09-15T07:34:41Z</time>
      </trkpt>
      <trkpt lat="43.19182" lon="6.03285">
        <ele>89.00390625</ele>
        <time>2019-09-15T07:34:42Z</time>
      </trkpt>
      <trkpt lat="43.19187" lon="6.03284">
        <ele>89.08984375</ele>
        <time>2019-09-15T07:34:43Z</time>
      </trkpt>
      <trkpt lat="43.19192" lon="6.03284">
        <ele>89.11328125</ele>
        <time>2019-09-15T07:34:44Z</time>
      </trkpt>
      <trkpt lat="43.19203" lon="6.03283">
        <ele>89.16796875</ele>
        <time>2019-09-15T07:34:46Z</time>
      </trkpt>
      <trkpt lat="43.19218" lon="6.0328">
        <ele>89.3515625</ele>
        <time>2019-09-15T07:34:49Z</time>
      </trkpt>
      <trkpt lat="43.19222" lon="6.03282">
        <ele>89.21875</ele>
        <time>2019-09-15T07:34:50Z</time>
      </trkpt>
      <trkpt lat="43.19233" lon="6.03287">
        <ele>88.78515625</ele>
        <time>2019-09-15T07:34:52Z</time>
      </trkpt>
      <trkpt lat="43.19239" lon="6.03288">
        <ele>88.5703125</ele>
        <time>2019-09-15T07:34:53Z</time>
      </trkpt>
      <trkpt lat="43.19245" lon="6.03288">
        <ele>88.44140625</ele>
        <time>2019-09-15T07:34:54Z</time>
      </trkpt>
      <trkpt lat="43.19289" lon="6.0329">
        <ele>87.67578125</ele>
        <time>2019-09-15T07:35:05Z</time>
      </trkpt>
      <trkpt lat="43.19308" lon="6.03287">
        <ele>87.84765625</ele>
        <time>2019-09-15T07:35:09Z</time>
      </trkpt>
      <trkpt lat="43.19313" lon="6.03288">
        <ele>87.83203125</ele>
        <time>2019-09-15T07:35:10Z</time>
      </trkpt>
      <trkpt lat="43.19319" lon="6.03287">
        <ele>87.8828125</ele>
        <time>2019-09-15T07:35:11Z</time>
      </trkpt>
      <trkpt lat="43.19324" lon="6.03285">
        <ele>87.98828125</ele>
        <time>2019-09-15T07:35:12Z</time>
      </trkpt>
      <trkpt lat="43.19329" lon="6.03284">
        <ele>88.078125</ele>
        <time>2019-09-15T07:35:13Z</time>
      </trkpt>
      <trkpt lat="43.19334" lon="6.03283">
        <ele>88.12109375</ele>
        <time>2019-09-15T07:35:14Z</time>
      </trkpt>
      <trkpt lat="43.19339" lon="6.03283">
        <ele>88.171875</ele>
        <time>2019-09-15T07:35:15Z</time>
      </trkpt>
      <trkpt lat="43.19343" lon="6.03282">
        <ele>88.20703125</ele>
        <time>2019-09-15T07:35:16Z</time>
      </trkpt>
      <trkpt lat="43.19348" lon="6.03282">
        <ele>88.203125</ele>
        <time>2019-09-15T07:35:17Z</time>
      </trkpt>
      <trkpt lat="43.19372" lon="6.03282">
        <ele>88.0703125</ele>
        <time>2019-09-15T07:35:23Z</time>
      </trkpt>
      <trkpt lat="43.19377" lon="6.03283">
        <ele>87.8515625</ele>
        <time>2019-09-15T07:35:24Z</time>
      </trkpt>
      <trkpt lat="43.19387" lon="6.03284">
        <ele>87.39453125</ele>
        <time>2019-09-15T07:35:26Z</time>
      </trkpt>
      <trkpt lat="43.19392" lon="6.03283">
        <ele>87.26171875</ele>
        <time>2019-09-15T07:35:27Z</time>
      </trkpt>
      <trkpt lat="43.19397" lon="6.03281">
        <ele>87.265625</ele>
        <time>2019-09-15T07:35:28Z</time>
      </trkpt>
      <trkpt lat="43.19401" lon="6.03278">
        <ele>87.34765625</ele>
        <time>2019-09-15T07:35:29Z</time>
      </trkpt>
      <trkpt lat="43.19405" lon="6.03276">
        <ele>87.3984375</ele>
        <time>2019-09-15T07:35:30Z</time>
      </trkpt>
      <trkpt lat="43.19419" lon="6.03266">
        <ele>87.37109375</ele>
        <time>2019-09-15T07:35:34Z</time>
      </trkpt>
      <trkpt lat="43.19422" lon="6.03262">
        <ele>87.41796875</ele>
        <time>2019-09-15T07:35:35Z</time>
      </trkpt>
      <trkpt lat="43.19435" lon="6.03231">
        <ele>88.0703125</ele>
        <time>2019-09-15T07:35:45Z</time>
      </trkpt>
      <trkpt lat="43.19434" lon="6.03226">
        <ele>88.25390625</ele>
        <time>2019-09-15T07:35:46Z</time>
      </trkpt>
      <trkpt lat="43.19433" lon="6.03222">
        <ele>88.43359375</ele>
        <time>2019-09-15T07:35:47Z</time>
      </trkpt>
      <trkpt lat="43.19433" lon="6.03218">
        <ele>88.59765625</ele>
        <time>2019-09-15T07:35:48Z</time>
      </trkpt>
      <trkpt lat="43.19433" lon="6.03214">
        <ele>88.75</ele>
        <time>2019-09-15T07:35:49Z</time>
      </trkpt>
      <trkpt lat="43.19434" lon="6.03209">
        <ele>88.875</ele>
        <time>2019-09-15T07:35:50Z</time>
      </trkpt>
      <trkpt lat="43.19435" lon="6.03205">
        <ele>88.953125</ele>
        <time>2019-09-15T07:35:51Z</time>
      </trkpt>
      <trkpt lat="43.19438" lon="6.03202">
        <ele>88.99609375</ele>
        <time>2019-09-15T07:35:52Z</time>
      </trkpt>
      <trkpt lat="43.1944" lon="6.03199">
        <ele>89.03515625</ele>
        <time>2019-09-15T07:35:53Z</time>
      </trkpt>
      <trkpt lat="43.19442" lon="6.03195">
        <ele>89.1015625</ele>
        <time>2019-09-15T07:35:54Z</time>
      </trkpt>
      <trkpt lat="43.19443" lon="6.03191">
        <ele>89.17578125</ele>
        <time>2019-09-15T07:35:55Z</time>
      </trkpt>
      <trkpt lat="43.19479" lon="6.03138">
        <ele>89.828125</ele>
        <time>2019-09-15T07:36:08Z</time>
      </trkpt>
      <trkpt lat="43.19509" lon="6.03094">
        <ele>90.28515625</ele>
        <time>2019-09-15T07:36:20Z</time>
      </trkpt>
      <trkpt lat="43.19538" lon="6.03069">
        <ele>90.08203125</ele>
        <time>2019-09-15T07:36:30Z</time>
      </trkpt>
      <trkpt lat="43.19571" lon="6.03037">
        <ele>89.4453125</ele>
        <time>2019-09-15T07:36:41Z</time>
      </trkpt>
      <trkpt lat="43.19574" lon="6.03032">
        <ele>89.546875</ele>
        <time>2019-09-15T07:36:42Z</time>
      </trkpt>
      <trkpt lat="43.19577" lon="6.03028">
        <ele>89.62890625</ele>
        <time>2019-09-15T07:36:43Z</time>
      </trkpt>
      <trkpt lat="43.1958" lon="6.03023">
        <ele>89.6640625</ele>
        <time>2019-09-15T07:36:44Z</time>
      </trkpt>
      <trkpt lat="43.19583" lon="6.03018">
        <ele>89.8046875</ele>
        <time>2019-09-15T07:36:45Z</time>
      </trkpt>
      <trkpt lat="43.19586" lon="6.03013">
        <ele>89.9140625</ele>
        <time>2019-09-15T07:36:46Z</time>
      </trkpt>
      <trkpt lat="43.1959" lon="6.0301">
        <ele>89.8984375</ele>
        <time>2019-09-15T07:36:47Z</time>
      </trkpt>
      <trkpt lat="43.19634" lon="6.02989">
        <ele>89.19921875</ele>
        <time>2019-09-15T07:36:58Z</time>
      </trkpt>
      <trkpt lat="43.19698" lon="6.02973">
        <ele>89.98046875</ele>
        <time>2019-09-15T07:37:11Z</time>
      </trkpt>
      <trkpt lat="43.19718" lon="6.02972">
        <ele>89.6171875</ele>
        <time>2019-09-15T07:37:14Z</time>
      </trkpt>
      <trkpt lat="43.19725" lon="6.02971">
        <ele>89.6015625</ele>
        <time>2019-09-15T07:37:15Z</time>
      </trkpt>
      <trkpt lat="43.19745" lon="6.02966">
        <ele>88.8671875</ele>
        <time>2019-09-15T07:37:18Z</time>
      </trkpt>
      <trkpt lat="43.19757" lon="6.02965">
        <ele>88.1640625</ele>
        <time>2019-09-15T07:37:20Z</time>
      </trkpt>
      <trkpt lat="43.19763" lon="6.02964">
        <ele>88.2578125</ele>
        <time>2019-09-15T07:37:21Z</time>
      </trkpt>
      <trkpt lat="43.19767" lon="6.02961">
        <ele>88.51171875</ele>
        <time>2019-09-15T07:37:22Z</time>
      </trkpt>
      <trkpt lat="43.19777" lon="6.02951">
        <ele>88.95703125</ele>
        <time>2019-09-15T07:37:24Z</time>
      </trkpt>
      <trkpt lat="43.19781" lon="6.02946">
        <ele>89.015625</ele>
        <time>2019-09-15T07:37:25Z</time>
      </trkpt>
      <trkpt lat="43.19835" lon="6.02868">
        <ele>90.96484375</ele>
        <time>2019-09-15T07:37:42Z</time>
      </trkpt>
      <trkpt lat="43.19865" lon="6.02833">
        <ele>91.02734375</ele>
        <time>2019-09-15T07:37:53Z</time>
      </trkpt>
      <trkpt lat="43.1989" lon="6.02803">
        <ele>91.453125</ele>
        <time>2019-09-15T07:38:01Z</time>
      </trkpt>
      <trkpt lat="43.19895" lon="6.028">
        <ele>91.05859375</ele>
        <time>2019-09-15T07:38:02Z</time>
      </trkpt>
      <trkpt lat="43.19901" lon="6.02797">
        <ele>90.90625</ele>
        <time>2019-09-15T07:38:03Z</time>
      </trkpt>
      <trkpt lat="43.1997" lon="6.02764">
        <ele>90.34765625</ele>
        <time>2019-09-15T07:38:16Z</time>
      </trkpt>
      <trkpt lat="43.19984" lon="6.02758">
        <ele>90.5078125</ele>
        <time>2019-09-15T07:38:19Z</time>
      </trkpt>
      <trkpt lat="43.19988" lon="6.02755">
        <ele>90.5859375</ele>
        <time>2019-09-15T07:38:20Z</time>
      </trkpt>
      <trkpt lat="43.19992" lon="6.02753">
        <ele>90.68359375</ele>
        <time>2019-09-15T07:38:21Z</time>
      </trkpt>
      <trkpt lat="43.19996" lon="6.0275">
        <ele>90.796875</ele>
        <time>2019-09-15T07:38:22Z</time>
      </trkpt>
      <trkpt lat="43.19999" lon="6.02746">
        <ele>90.921875</ele>
        <time>2019-09-15T07:38:23Z</time>
      </trkpt>
      <trkpt lat="43.20002" lon="6.02743">
        <ele>91.015625</ele>
        <time>2019-09-15T07:38:24Z</time>
      </trkpt>
      <trkpt lat="43.20055" lon="6.02694">
        <ele>91.984375</ele>
        <time>2019-09-15T07:38:39Z</time>
      </trkpt>
      <trkpt lat="43.20084" lon="6.02672">
        <ele>93.34375</ele>
        <time>2019-09-15T07:38:46Z</time>
      </trkpt>
      <trkpt lat="43.20115" lon="6.02662">
        <ele>93.04296875</ele>
        <time>2019-09-15T07:38:52Z</time>
      </trkpt>
      <trkpt lat="43.20147" lon="6.02632">
        <ele>95.05859375</ele>
        <time>2019-09-15T07:39:02Z</time>
      </trkpt>
      <trkpt lat="43.20178" lon="6.02606">
        <ele>95.80859375</ele>
        <time>2019-09-15T07:39:13Z</time>
      </trkpt>
      <trkpt lat="43.202" lon="6.0258">
        <ele>96.86328125</ele>
        <time>2019-09-15T07:39:20Z</time>
      </trkpt>
      <trkpt lat="43.20215" lon="6.02555">
        <ele>97.71875</ele>
        <time>2019-09-15T07:39:25Z</time>
      </trkpt>
      <trkpt lat="43.20242" lon="6.02491">
        <ele>98.14453125</ele>
        <time>2019-09-15T07:39:38Z</time>
      </trkpt>
      <trkpt lat="43.20249" lon="6.02477">
        <ele>98.12890625</ele>
        <time>2019-09-15T07:39:41Z</time>
      </trkpt>
      <trkpt lat="43.20252" lon="6.02473">
        <ele>98.0625</ele>
        <time>2019-09-15T07:39:42Z</time>
      </trkpt>
      <trkpt lat="43.20259" lon="6.02466">
        <ele>97.82421875</ele>
        <time>2019-09-15T07:39:44Z</time>
      </trkpt>
      <trkpt lat="43.20263" lon="6.02465">
        <ele>97.53515625</ele>
        <time>2019-09-15T07:39:45Z</time>
      </trkpt>
      <trkpt lat="43.20267" lon="6.02466">
        <ele>97.24609375</ele>
        <time>2019-09-15T07:39:46Z</time>
      </trkpt>
      <trkpt lat="43.2027" lon="6.02469">
        <ele>96.98046875</ele>
        <time>2019-09-15T07:39:47Z</time>
      </trkpt>
      <trkpt lat="43.20272" lon="6.02473">
        <ele>96.765625</ele>
        <time>2019-09-15T07:39:48Z</time>
      </trkpt>
      <trkpt lat="43.20274" lon="6.02478">
        <ele>96.60546875</ele>
        <time>2019-09-15T07:39:49Z</time>
      </trkpt>
      <trkpt lat="43.203" lon="6.02531">
        <ele>95.2890625</ele>
        <time>2019-09-15T07:40:00Z</time>
      </trkpt>
      <trkpt lat="43.20313" lon="6.02557">
        <ele>94.7109375</ele>
        <time>2019-09-15T07:40:05Z</time>
      </trkpt>
      <trkpt lat="43.20317" lon="6.02561">
        <ele>94.484375</ele>
        <time>2019-09-15T07:40:06Z</time>
      </trkpt>
      <trkpt lat="43.20321" lon="6.02564">
        <ele>94.328125</ele>
        <time>2019-09-15T07:40:07Z</time>
      </trkpt>
      <trkpt lat="43.20326" lon="6.02565">
        <ele>94.21875</ele>
        <time>2019-09-15T07:40:08Z</time>
      </trkpt>
      <trkpt lat="43.20331" lon="6.02566">
        <ele>94.1328125</ele>
        <time>2019-09-15T07:40:09Z</time>
      </trkpt>
      <trkpt lat="43.20336" lon="6.02567">
        <ele>94.05859375</ele>
        <time>2019-09-15T07:40:10Z</time>
      </trkpt>
      <trkpt lat="43.20341" lon="6.02567">
        <ele>94</ele>
        <time>2019-09-15T07:40:11Z</time>
      </trkpt>
      <trkpt lat="43.20411" lon="6.02582">
        <ele>94.3671875</ele>
        <time>2019-09-15T07:40:26Z</time>
      </trkpt>
      <trkpt lat="43.20419" lon="6.02584">
        <ele>94.59765625</ele>
        <time>2019-09-15T07:40:28Z</time>
      </trkpt>
      <trkpt lat="43.20423" lon="6.02583">
        <ele>94.76953125</ele>
        <time>2019-09-15T07:40:29Z</time>
      </trkpt>
      <trkpt lat="43.20427" lon="6.02582">
        <ele>94.8359375</ele>
        <time>2019-09-15T07:40:30Z</time>
      </trkpt>
      <trkpt lat="43.2043" lon="6.02579">
        <ele>94.93359375</ele>
        <time>2019-09-15T07:40:31Z</time>
      </trkpt>
      <trkpt lat="43.20433" lon="6.02576">
        <ele>95.046875</ele>
        <time>2019-09-15T07:40:32Z</time>
      </trkpt>
      <trkpt lat="43.20436" lon="6.02573">
        <ele>95.1484375</ele>
        <time>2019-09-15T07:40:33Z</time>
      </trkpt>
      <trkpt lat="43.20439" lon="6.02571">
        <ele>95.23046875</ele>
        <time>2019-09-15T07:40:34Z</time>
      </trkpt>
      <trkpt lat="43.20484" lon="6.02532">
        <ele>96.82421875</ele>
        <time>2019-09-15T07:40:49Z</time>
      </trkpt>
      <trkpt lat="43.20519" lon="6.02494">
        <ele>99.484375</ele>
        <time>2019-09-15T07:41:03Z</time>
      </trkpt>
      <trkpt lat="43.20546" lon="6.02471">
        <ele>101.15625</ele>
        <time>2019-09-15T07:41:14Z</time>
      </trkpt>
      <trkpt lat="43.20549" lon="6.02472">
        <ele>101.20703125</ele>
        <time>2019-09-15T07:41:15Z</time>
      </trkpt>
      <trkpt lat="43.20552" lon="6.02474">
        <ele>101.1796875</ele>
        <time>2019-09-15T07:41:16Z</time>
      </trkpt>
      <trkpt lat="43.20556" lon="6.02477">
        <ele>101.0859375</ele>
        <time>2019-09-15T07:41:17Z</time>
      </trkpt>
      <trkpt lat="43.2056" lon="6.0248">
        <ele>100.97265625</ele>
        <time>2019-09-15T07:41:18Z</time>
      </trkpt>
      <trkpt lat="43.20564" lon="6.02482">
        <ele>100.88671875</ele>
        <time>2019-09-15T07:41:19Z</time>
      </trkpt>
      <trkpt lat="43.20615" lon="6.02512">
        <ele>99.66796875</ele>
        <time>2019-09-15T07:41:31Z</time>
      </trkpt>
      <trkpt lat="43.20634" lon="6.02513">
        <ele>100.17578125</ele>
        <time>2019-09-15T07:41:38Z</time>
      </trkpt>
      <trkpt lat="43.20636" lon="6.02512">
        <ele>100.40625</ele>
        <time>2019-09-15T07:41:40Z</time>
      </trkpt>
      <trkpt lat="43.20641" lon="6.02478">
        <ele>103.44921875</ele>
        <time>2019-09-15T07:41:50Z</time>
      </trkpt>
      <trkpt lat="43.20642" lon="6.02477">
        <ele>103.6171875</ele>
        <time>2019-09-15T07:41:51Z</time>
      </trkpt>
      <trkpt lat="43.20644" lon="6.02476">
        <ele>103.87890625</ele>
        <time>2019-09-15T07:41:52Z</time>
      </trkpt>
      <trkpt lat="43.20646" lon="6.02474">
        <ele>104.23046875</ele>
        <time>2019-09-15T07:41:53Z</time>
      </trkpt>
      <trkpt lat="43.20646" lon="6.02472">
        <ele>104.46484375</ele>
        <time>2019-09-15T07:41:54Z</time>
      </trkpt>
      <trkpt lat="43.20648" lon="6.02469">
        <ele>104.79296875</ele>
        <time>2019-09-15T07:41:56Z</time>
      </trkpt>
      <trkpt lat="43.2065" lon="6.02469">
        <ele>104.921875</ele>
        <time>2019-09-15T07:41:57Z</time>
      </trkpt>
      <trkpt lat="43.20652" lon="6.02469">
        <ele>104.98046875</ele>
        <time>2019-09-15T07:41:58Z</time>
      </trkpt>
      <trkpt lat="43.20655" lon="6.0247">
        <ele>105.00390625</ele>
        <time>2019-09-15T07:41:59Z</time>
      </trkpt>
      <trkpt lat="43.20657" lon="6.02471">
        <ele>105.0078125</ele>
        <time>2019-09-15T07:42:00Z</time>
      </trkpt>
      <trkpt lat="43.2066" lon="6.02473">
        <ele>104.953125</ele>
        <time>2019-09-15T07:42:01Z</time>
      </trkpt>
      <trkpt lat="43.20663" lon="6.02475">
        <ele>104.88671875</ele>
        <time>2019-09-15T07:42:02Z</time>
      </trkpt>
      <trkpt lat="43.20665" lon="6.02477">
        <ele>104.8203125</ele>
        <time>2019-09-15T07:42:03Z</time>
      </trkpt>
      <trkpt lat="43.20667" lon="6.02479">
        <ele>104.71875</ele>
        <time>2019-09-15T07:42:04Z</time>
      </trkpt>
      <trkpt lat="43.20668" lon="6.02482">
        <ele>104.5546875</ele>
        <time>2019-09-15T07:42:05Z</time>
      </trkpt>
      <trkpt lat="43.20671" lon="6.02488">
        <ele>104.26171875</ele>
        <time>2019-09-15T07:42:08Z</time>
      </trkpt>
      <trkpt lat="43.20673" lon="6.02489">
        <ele>104.38671875</ele>
        <time>2019-09-15T07:42:09Z</time>
      </trkpt>
      <trkpt lat="43.20676" lon="6.02488">
        <ele>104.58203125</ele>
        <time>2019-09-15T07:42:10Z</time>
      </trkpt>
      <trkpt lat="43.20683" lon="6.02465">
        <ele>106.91796875</ele>
        <time>2019-09-15T07:42:19Z</time>
      </trkpt>
      <trkpt lat="43.20684" lon="6.02458">
        <ele>107.73828125</ele>
        <time>2019-09-15T07:42:21Z</time>
      </trkpt>
      <trkpt lat="43.20684" lon="6.02456">
        <ele>108.109375</ele>
        <time>2019-09-15T07:42:23Z</time>
      </trkpt>
      <trkpt lat="43.20686" lon="6.02456">
        <ele>108.18359375</ele>
        <time>2019-09-15T07:42:24Z</time>
      </trkpt>
      <trkpt lat="43.20688" lon="6.02457">
        <ele>108.234375</ele>
        <time>2019-09-15T07:42:25Z</time>
      </trkpt>
      <trkpt lat="43.2069" lon="6.02458">
        <ele>108.28515625</ele>
        <time>2019-09-15T07:42:26Z</time>
      </trkpt>
      <trkpt lat="43.20692" lon="6.02459">
        <ele>108.3125</ele>
        <time>2019-09-15T07:42:27Z</time>
      </trkpt>
      <trkpt lat="43.20726" lon="6.02468">
        <ele>110.51171875</ele>
        <time>2019-09-15T07:42:39Z</time>
      </trkpt>
      <trkpt lat="43.20742" lon="6.02471">
        <ele>111.2578125</ele>
        <time>2019-09-15T07:42:51Z</time>
      </trkpt>
      <trkpt lat="43.20753" lon="6.02485">
        <ele>110.04296875</ele>
        <time>2019-09-15T07:43:06Z</time>
      </trkpt>
      <trkpt lat="43.20758" lon="6.02489">
        <ele>109.83203125</ele>
        <time>2019-09-15T07:43:07Z</time>
      </trkpt>
      <trkpt lat="43.20762" lon="6.02492">
        <ele>109.796875</ele>
        <time>2019-09-15T07:43:08Z</time>
      </trkpt>
      <trkpt lat="43.20767" lon="6.02493">
        <ele>109.87890625</ele>
        <time>2019-09-15T07:43:09Z</time>
      </trkpt>
      <trkpt lat="43.20771" lon="6.02494">
        <ele>110.05078125</ele>
        <time>2019-09-15T07:43:10Z</time>
      </trkpt>
      <trkpt lat="43.20775" lon="6.02494">
        <ele>110.26953125</ele>
        <time>2019-09-15T07:43:11Z</time>
      </trkpt>
      <trkpt lat="43.20818" lon="6.0251">
        <ele>110.61328125</ele>
        <time>2019-09-15T07:43:25Z</time>
      </trkpt>
      <trkpt lat="43.20835" lon="6.02516">
        <ele>110.734375</ele>
        <time>2019-09-15T07:43:37Z</time>
      </trkpt>
      <trkpt lat="43.20854" lon="6.02533">
        <ele>109.84765625</ele>
        <time>2019-09-15T07:43:47Z</time>
      </trkpt>
      <trkpt lat="43.20862" lon="6.02541">
        <ele>109.53125</ele>
        <time>2019-09-15T07:43:49Z</time>
      </trkpt>
      <trkpt lat="43.20895" lon="6.02574">
        <ele>106.46875</ele>
        <time>2019-09-15T07:43:56Z</time>
      </trkpt>
      <trkpt lat="43.20907" lon="6.02582">
        <ele>105.625</ele>
        <time>2019-09-15T07:43:59Z</time>
      </trkpt>
      <trkpt lat="43.20914" lon="6.02585">
        <ele>105.234375</ele>
        <time>2019-09-15T07:44:01Z</time>
      </trkpt>
      <trkpt lat="43.20941" lon="6.02591">
        <ele>104.15234375</ele>
        <time>2019-09-15T07:44:07Z</time>
      </trkpt>
      <trkpt lat="43.20974" lon="6.02587">
        <ele>103.45703125</ele>
        <time>2019-09-15T07:44:15Z</time>
      </trkpt>
      <trkpt lat="43.20981" lon="6.02582">
        <ele>103.55859375</ele>
        <time>2019-09-15T07:44:17Z</time>
      </trkpt>
      <trkpt lat="43.21" lon="6.02564">
        <ele>105.58203125</ele>
        <time>2019-09-15T07:44:23Z</time>
      </trkpt>
      <trkpt lat="43.21004" lon="6.02561">
        <ele>105.91796875</ele>
        <time>2019-09-15T07:44:24Z</time>
      </trkpt>
      <trkpt lat="43.21043" lon="6.02548">
        <ele>108.3125</ele>
        <time>2019-09-15T07:44:34Z</time>
      </trkpt>
      <trkpt lat="43.21047" lon="6.02547">
        <ele>108.375</ele>
        <time>2019-09-15T07:44:35Z</time>
      </trkpt>
      <trkpt lat="43.21052" lon="6.02548">
        <ele>108.33984375</ele>
        <time>2019-09-15T07:44:36Z</time>
      </trkpt>
      <trkpt lat="43.21056" lon="6.02549">
        <ele>108.12109375</ele>
        <time>2019-09-15T07:44:37Z</time>
      </trkpt>
      <trkpt lat="43.2106" lon="6.02551">
        <ele>107.76953125</ele>
        <time>2019-09-15T07:44:38Z</time>
      </trkpt>
      <trkpt lat="43.21065" lon="6.02553">
        <ele>107.28515625</ele>
        <time>2019-09-15T07:44:39Z</time>
      </trkpt>
      <trkpt lat="43.21069" lon="6.02556">
        <ele>106.703125</ele>
        <time>2019-09-15T07:44:40Z</time>
      </trkpt>
      <trkpt lat="43.21073" lon="6.02559">
        <ele>106.0390625</ele>
        <time>2019-09-15T07:44:41Z</time>
      </trkpt>
      <trkpt lat="43.21078" lon="6.02562">
        <ele>105.42578125</ele>
        <time>2019-09-15T07:44:42Z</time>
      </trkpt>
      <trkpt lat="43.21083" lon="6.02565">
        <ele>104.87109375</ele>
        <time>2019-09-15T07:44:43Z</time>
      </trkpt>
      <trkpt lat="43.21088" lon="6.02567">
        <ele>104.46484375</ele>
        <time>2019-09-15T07:44:44Z</time>
      </trkpt>
      <trkpt lat="43.21093" lon="6.02568">
        <ele>104.30078125</ele>
        <time>2019-09-15T07:44:45Z</time>
      </trkpt>
      <trkpt lat="43.21098" lon="6.02568">
        <ele>104.26171875</ele>
        <time>2019-09-15T07:44:46Z</time>
      </trkpt>
      <trkpt lat="43.21103" lon="6.02567">
        <ele>104.29296875</ele>
        <time>2019-09-15T07:44:47Z</time>
      </trkpt>
      <trkpt lat="43.21146" lon="6.02543">
        <ele>105.40234375</ele>
        <time>2019-09-15T07:45:00Z</time>
      </trkpt>
      <trkpt lat="43.21184" lon="6.02514">
        <ele>106.19140625</ele>
        <time>2019-09-15T07:45:14Z</time>
      </trkpt>
      <trkpt lat="43.21188" lon="6.02508">
        <ele>106.96875</ele>
        <time>2019-09-15T07:45:17Z</time>
      </trkpt>
      <trkpt lat="43.21191" lon="6.02507">
        <ele>107.0078125</ele>
        <time>2019-09-15T07:45:18Z</time>
      </trkpt>
      <trkpt lat="43.21194" lon="6.02506">
        <ele>107</ele>
        <time>2019-09-15T07:45:19Z</time>
      </trkpt>
      <trkpt lat="43.21197" lon="6.02505">
        <ele>107.0078125</ele>
        <time>2019-09-15T07:45:20Z</time>
      </trkpt>
      <trkpt lat="43.212" lon="6.02503">
        <ele>107.0703125</ele>
        <time>2019-09-15T07:45:21Z</time>
      </trkpt>
      <trkpt lat="43.21202" lon="6.02501">
        <ele>107.10546875</ele>
        <time>2019-09-15T07:45:22Z</time>
      </trkpt>
      <trkpt lat="43.21205" lon="6.025">
        <ele>107.09765625</ele>
        <time>2019-09-15T07:45:23Z</time>
      </trkpt>
      <trkpt lat="43.21232" lon="6.02489">
        <ele>106.5625</ele>
        <time>2019-09-15T07:45:31Z</time>
      </trkpt>
      <trkpt lat="43.21236" lon="6.02488">
        <ele>106.5703125</ele>
        <time>2019-09-15T07:45:32Z</time>
      </trkpt>
      <trkpt lat="43.21302" lon="6.02471">
        <ele>108.61328125</ele>
        <time>2019-09-15T07:45:45Z</time>
      </trkpt>
      <trkpt lat="43.21367" lon="6.02469">
        <ele>109.828125</ele>
        <time>2019-09-15T07:46:00Z</time>
      </trkpt>
      <trkpt lat="43.21432" lon="6.02461">
        <ele>108.90234375</ele>
        <time>2019-09-15T07:46:18Z</time>
      </trkpt>
      <trkpt lat="43.21486" lon="6.02444">
        <ele>107.48828125</ele>
        <time>2019-09-15T07:46:34Z</time>
      </trkpt>
      <trkpt lat="43.21518" lon="6.02413">
        <ele>108.76171875</ele>
        <time>2019-09-15T07:46:46Z</time>
      </trkpt>
      <trkpt lat="43.2156" lon="6.02402">
        <ele>110.27734375</ele>
        <time>2019-09-15T07:46:59Z</time>
      </trkpt>
      <trkpt lat="43.216" lon="6.02404">
        <ele>110.96484375</ele>
        <time>2019-09-15T07:47:11Z</time>
      </trkpt>
      <trkpt lat="43.21643" lon="6.02391">
        <ele>112.8671875</ele>
        <time>2019-09-15T07:47:23Z</time>
      </trkpt>
      <trkpt lat="43.21678" lon="6.02378">
        <ele>114.98046875</ele>
        <time>2019-09-15T07:47:38Z</time>
      </trkpt>
      <trkpt lat="43.21715" lon="6.02372">
        <ele>116.09375</ele>
        <time>2019-09-15T07:47:51Z</time>
      </trkpt>
      <trkpt lat="43.21742" lon="6.02359">
        <ele>116.97265625</ele>
        <time>2019-09-15T07:48:03Z</time>
      </trkpt>
      <trkpt lat="43.2177" lon="6.02366">
        <ele>116.37109375</ele>
        <time>2019-09-15T07:48:12Z</time>
      </trkpt>
      <trkpt lat="43.21781" lon="6.02365">
        <ele>116.81640625</ele>
        <time>2019-09-15T07:48:14Z</time>
      </trkpt>
      <trkpt lat="43.21802" lon="6.02362">
        <ele>116.62890625</ele>
        <time>2019-09-15T07:48:17Z</time>
      </trkpt>
      <trkpt lat="43.21816" lon="6.02358">
        <ele>116.59765625</ele>
        <time>2019-09-15T07:48:19Z</time>
      </trkpt>
      <trkpt lat="43.21829" lon="6.02356">
        <ele>116.25</ele>
        <time>2019-09-15T07:48:21Z</time>
      </trkpt>
      <trkpt lat="43.21856" lon="6.02357">
        <ele>114.65625</ele>
        <time>2019-09-15T07:48:25Z</time>
      </trkpt>
      <trkpt lat="43.21875" lon="6.02354">
        <ele>113.4765625</ele>
        <time>2019-09-15T07:48:28Z</time>
      </trkpt>
      <trkpt lat="43.21881" lon="6.02352">
        <ele>113.15625</ele>
        <time>2019-09-15T07:48:29Z</time>
      </trkpt>
      <trkpt lat="43.21887" lon="6.02347">
        <ele>112.9140625</ele>
        <time>2019-09-15T07:48:30Z</time>
      </trkpt>
      <trkpt lat="43.21892" lon="6.02343">
        <ele>112.640625</ele>
        <time>2019-09-15T07:48:31Z</time>
      </trkpt>
      <trkpt lat="43.21898" lon="6.02337">
        <ele>112.5546875</ele>
        <time>2019-09-15T07:48:32Z</time>
      </trkpt>
      <trkpt lat="43.21903" lon="6.02331">
        <ele>112.5703125</ele>
        <time>2019-09-15T07:48:33Z</time>
      </trkpt>
      <trkpt lat="43.2191" lon="6.02325">
        <ele>112.5703125</ele>
        <time>2019-09-15T07:48:34Z</time>
      </trkpt>
      <trkpt lat="43.21917" lon="6.02321">
        <ele>112.484375</ele>
        <time>2019-09-15T07:48:35Z</time>
      </trkpt>
      <trkpt lat="43.21947" lon="6.02305">
        <ele>112.09765625</ele>
        <time>2019-09-15T07:48:39Z</time>
      </trkpt>
      <trkpt lat="43.21953" lon="6.02299">
        <ele>111.99609375</ele>
        <time>2019-09-15T07:48:40Z</time>
      </trkpt>
      <trkpt lat="43.21959" lon="6.02292">
        <ele>111.91015625</ele>
        <time>2019-09-15T07:48:41Z</time>
      </trkpt>
      <trkpt lat="43.21969" lon="6.02278">
        <ele>111.47265625</ele>
        <time>2019-09-15T07:48:43Z</time>
      </trkpt>
      <trkpt lat="43.21979" lon="6.02267">
        <ele>111.265625</ele>
        <time>2019-09-15T07:48:45Z</time>
      </trkpt>
      <trkpt lat="43.21985" lon="6.02263">
        <ele>111.65234375</ele>
        <time>2019-09-15T07:48:46Z</time>
      </trkpt>
      <trkpt lat="43.2199" lon="6.0226">
        <ele>111.92578125</ele>
        <time>2019-09-15T07:48:47Z</time>
      </trkpt>
      <trkpt lat="43.21995" lon="6.02259">
        <ele>112.12890625</ele>
        <time>2019-09-15T07:48:48Z</time>
      </trkpt>
      <trkpt lat="43.22" lon="6.02258">
        <ele>112.2890625</ele>
        <time>2019-09-15T07:48:49Z</time>
      </trkpt>
      <trkpt lat="43.22005" lon="6.02257">
        <ele>112.4375</ele>
        <time>2019-09-15T07:48:50Z</time>
      </trkpt>
      <trkpt lat="43.22024" lon="6.02256">
        <ele>113.09765625</ele>
        <time>2019-09-15T07:48:54Z</time>
      </trkpt>
      <trkpt lat="43.22069" lon="6.02262">
        <ele>116.3671875</ele>
        <time>2019-09-15T07:49:06Z</time>
      </trkpt>
      <trkpt lat="43.22099" lon="6.02258">
        <ele>118.4921875</ele>
        <time>2019-09-15T07:49:13Z</time>
      </trkpt>
      <trkpt lat="43.22108" lon="6.02256">
        <ele>118.84765625</ele>
        <time>2019-09-15T07:49:15Z</time>
      </trkpt>
      <trkpt lat="43.22153" lon="6.0225">
        <ele>118.1875</ele>
        <time>2019-09-15T07:49:27Z</time>
      </trkpt>
      <trkpt lat="43.22157" lon="6.02253">
        <ele>118.70703125</ele>
        <time>2019-09-15T07:49:28Z</time>
      </trkpt>
      <trkpt lat="43.2216" lon="6.02257">
        <ele>119.47265625</ele>
        <time>2019-09-15T07:49:29Z</time>
      </trkpt>
      <trkpt lat="43.22162" lon="6.02261">
        <ele>120.29296875</ele>
        <time>2019-09-15T07:49:30Z</time>
      </trkpt>
      <trkpt lat="43.22163" lon="6.02266">
        <ele>121.17578125</ele>
        <time>2019-09-15T07:49:31Z</time>
      </trkpt>
      <trkpt lat="43.22165" lon="6.02271">
        <ele>122.05859375</ele>
        <time>2019-09-15T07:49:32Z</time>
      </trkpt>
      <trkpt lat="43.22166" lon="6.02275">
        <ele>123.02734375</ele>
        <time>2019-09-15T07:49:33Z</time>
      </trkpt>
      <trkpt lat="43.22168" lon="6.02279">
        <ele>123.86328125</ele>
        <time>2019-09-15T07:49:34Z</time>
      </trkpt>
      <trkpt lat="43.22171" lon="6.02282">
        <ele>124.51953125</ele>
        <time>2019-09-15T07:49:35Z</time>
      </trkpt>
      <trkpt lat="43.22174" lon="6.02284">
        <ele>124.8828125</ele>
        <time>2019-09-15T07:49:36Z</time>
      </trkpt>
      <trkpt lat="43.22202" lon="6.02298">
        <ele>124.41015625</ele>
        <time>2019-09-15T07:49:46Z</time>
      </trkpt>
      <trkpt lat="43.22213" lon="6.02318">
        <ele>128.76953125</ele>
        <time>2019-09-15T07:49:54Z</time>
      </trkpt>
      <trkpt lat="43.22215" lon="6.0232">
        <ele>129.12109375</ele>
        <time>2019-09-15T07:49:55Z</time>
      </trkpt>
      <trkpt lat="43.22271" lon="6.02343">
        <ele>129.203125</ele>
        <time>2019-09-15T07:50:09Z</time>
      </trkpt>
      <trkpt lat="43.22276" lon="6.02344">
        <ele>128.70703125</ele>
        <time>2019-09-15T07:50:10Z</time>
      </trkpt>
      <trkpt lat="43.22282" lon="6.02345">
        <ele>127.8984375</ele>
        <time>2019-09-15T07:50:11Z</time>
      </trkpt>
      <trkpt lat="43.22287" lon="6.02344">
        <ele>127.28125</ele>
        <time>2019-09-15T07:50:12Z</time>
      </trkpt>
      <trkpt lat="43.22293" lon="6.02345">
        <ele>126.87890625</ele>
        <time>2019-09-15T07:50:13Z</time>
      </trkpt>
      <trkpt lat="43.22298" lon="6.02346">
        <ele>126.5703125</ele>
        <time>2019-09-15T07:50:14Z</time>
      </trkpt>
      <trkpt lat="43.22301" lon="6.02347">
        <ele>126.44921875</ele>
        <time>2019-09-15T07:50:15Z</time>
      </trkpt>
      <trkpt lat="43.22303" lon="6.02349">
        <ele>126.453125</ele>
        <time>2019-09-15T07:50:16Z</time>
      </trkpt>
      <trkpt lat="43.22304" lon="6.02351">
        <ele>126.48046875</ele>
        <time>2019-09-15T07:50:17Z</time>
      </trkpt>
      <trkpt lat="43.22305" lon="6.02352">
        <ele>126.5</ele>
        <time>2019-09-15T07:50:18Z</time>
      </trkpt>
      <trkpt lat="43.22307" lon="6.02353">
        <ele>126.4296875</ele>
        <time>2019-09-15T07:50:19Z</time>
      </trkpt>
      <trkpt lat="43.22308" lon="6.02354">
        <ele>126.30078125</ele>
        <time>2019-09-15T07:50:20Z</time>
      </trkpt>
      <trkpt lat="43.22315" lon="6.0236">
        <ele>126.53125</ele>
        <time>2019-09-15T07:50:34Z</time>
      </trkpt>
      <trkpt lat="43.22318" lon="6.02365">
        <ele>126.85546875</ele>
        <time>2019-09-15T07:50:48Z</time>
      </trkpt>
      <trkpt lat="43.22319" lon="6.02366">
        <ele>126.9140625</ele>
        <time>2019-09-15T07:50:49Z</time>
      </trkpt>
      <trkpt lat="43.22319" lon="6.02368">
        <ele>126.96875</ele>
        <time>2019-09-15T07:50:50Z</time>
      </trkpt>
      <trkpt lat="43.2232" lon="6.0237">
        <ele>127.01953125</ele>
        <time>2019-09-15T07:50:51Z</time>
      </trkpt>
      <trkpt lat="43.22321" lon="6.02371">
        <ele>127.05078125</ele>
        <time>2019-09-15T07:50:52Z</time>
      </trkpt>
      <trkpt lat="43.22321" lon="6.02373">
        <ele>127.0703125</ele>
        <time>2019-09-15T07:50:53Z</time>
      </trkpt>
      <trkpt lat="43.22322" lon="6.02375">
        <ele>127.0703125</ele>
        <time>2019-09-15T07:50:54Z</time>
      </trkpt>
      <trkpt lat="43.22323" lon="6.02376">
        <ele>127.0546875</ele>
        <time>2019-09-15T07:50:55Z</time>
      </trkpt>
      <trkpt lat="43.22325" lon="6.02378">
        <ele>127.0078125</ele>
        <time>2019-09-15T07:50:56Z</time>
      </trkpt>
      <trkpt lat="43.22326" lon="6.02381">
        <ele>126.9453125</ele>
        <time>2019-09-15T07:50:57Z</time>
      </trkpt>
      <trkpt lat="43.22327" lon="6.02383">
        <ele>126.86328125</ele>
        <time>2019-09-15T07:50:58Z</time>
      </trkpt>
      <trkpt lat="43.22328" lon="6.02385">
        <ele>127</ele>
        <time>2019-09-15T07:50:59Z</time>
      </trkpt>
      <trkpt lat="43.22329" lon="6.02388">
        <ele>127.125</ele>
        <time>2019-09-15T07:51:00Z</time>
      </trkpt>
      <trkpt lat="43.22349" lon="6.02423">
        <ele>127.7109375</ele>
        <time>2019-09-15T07:51:15Z</time>
      </trkpt>
      <trkpt lat="43.22359" lon="6.02453">
        <ele>129.23046875</ele>
        <time>2019-09-15T07:51:28Z</time>
      </trkpt>
      <trkpt lat="43.2237" lon="6.02483">
        <ele>131.51953125</ele>
        <time>2019-09-15T07:51:40Z</time>
      </trkpt>
      <trkpt lat="43.22386" lon="6.02518">
        <ele>132.921875</ele>
        <time>2019-09-15T07:51:54Z</time>
      </trkpt>
      <trkpt lat="43.22413" lon="6.02554">
        <ele>136.453125</ele>
        <time>2019-09-15T07:52:11Z</time>
      </trkpt>
      <trkpt lat="43.2244" lon="6.02594">
        <ele>135.37890625</ele>
        <time>2019-09-15T07:52:28Z</time>
      </trkpt>
      <trkpt lat="43.22452" lon="6.02629">
        <ele>136.55859375</ele>
        <time>2019-09-15T07:52:40Z</time>
      </trkpt>
      <trkpt lat="43.2246" lon="6.02657">
        <ele>139.171875</ele>
        <time>2019-09-15T07:52:49Z</time>
      </trkpt>
      <trkpt lat="43.22476" lon="6.0271">
        <ele>140.953125</ele>
        <time>2019-09-15T07:53:06Z</time>
      </trkpt>
      <trkpt lat="43.22483" lon="6.02748">
        <ele>144.86328125</ele>
        <time>2019-09-15T07:53:20Z</time>
      </trkpt>
      <trkpt lat="43.22497" lon="6.02781">
        <ele>146.5</ele>
        <time>2019-09-15T07:53:35Z</time>
      </trkpt>
      <trkpt lat="43.22512" lon="6.02816">
        <ele>148.77734375</ele>
        <time>2019-09-15T07:53:50Z</time>
      </trkpt>
      <trkpt lat="43.22528" lon="6.02853">
        <ele>148.8203125</ele>
        <time>2019-09-15T07:54:06Z</time>
      </trkpt>
      <trkpt lat="43.22542" lon="6.02887">
        <ele>151.3515625</ele>
        <time>2019-09-15T07:54:20Z</time>
      </trkpt>
      <trkpt lat="43.22556" lon="6.02925">
        <ele>155.484375</ele>
        <time>2019-09-15T07:54:36Z</time>
      </trkpt>
      <trkpt lat="43.22573" lon="6.02957">
        <ele>158.61328125</ele>
        <time>2019-09-15T07:54:50Z</time>
      </trkpt>
      <trkpt lat="43.22594" lon="6.02983">
        <ele>160.55078125</ele>
        <time>2019-09-15T07:55:04Z</time>
      </trkpt>
      <trkpt lat="43.22609" lon="6.03005">
        <ele>161.82421875</ele>
        <time>2019-09-15T07:55:16Z</time>
      </trkpt>
      <trkpt lat="43.22623" lon="6.03034">
        <ele>162.2109375</ele>
        <time>2019-09-15T07:55:30Z</time>
      </trkpt>
      <trkpt lat="43.22629" lon="6.03043">
        <ele>161.94921875</ele>
        <time>2019-09-15T07:55:35Z</time>
      </trkpt>
      <trkpt lat="43.2263" lon="6.03046">
        <ele>161.9765625</ele>
        <time>2019-09-15T07:55:36Z</time>
      </trkpt>
      <trkpt lat="43.22634" lon="6.03073">
        <ele>164.48828125</ele>
        <time>2019-09-15T07:55:48Z</time>
      </trkpt>
      <trkpt lat="43.22635" lon="6.0308">
        <ele>165.5078125</ele>
        <time>2019-09-15T07:56:02Z</time>
      </trkpt>
      <trkpt lat="43.22634" lon="6.03077">
        <ele>165.23828125</ele>
        <time>2019-09-15T07:56:23Z</time>
      </trkpt>
      <trkpt lat="43.22634" lon="6.03083">
        <ele>166.1796875</ele>
        <time>2019-09-15T07:56:51Z</time>
      </trkpt>
      <trkpt lat="43.22628" lon="6.03106">
        <ele>171.12890625</ele>
        <time>2019-09-15T07:57:04Z</time>
      </trkpt>
      <trkpt lat="43.22625" lon="6.03118">
        <ele>173.68359375</ele>
        <time>2019-09-15T07:57:10Z</time>
      </trkpt>
      <trkpt lat="43.22625" lon="6.03119">
        <ele>174.078125</ele>
        <time>2019-09-15T07:57:11Z</time>
      </trkpt>
      <trkpt lat="43.22609" lon="6.03149">
        <ele>181.7265625</ele>
        <time>2019-09-15T07:57:28Z</time>
      </trkpt>
      <trkpt lat="43.22601" lon="6.03162">
        <ele>184.4140625</ele>
        <time>2019-09-15T07:57:35Z</time>
      </trkpt>
      <trkpt lat="43.226" lon="6.03164">
        <ele>184.921875</ele>
        <time>2019-09-15T07:57:36Z</time>
      </trkpt>
      <trkpt lat="43.22599" lon="6.03166">
        <ele>185.375</ele>
        <time>2019-09-15T07:57:37Z</time>
      </trkpt>
      <trkpt lat="43.22598" lon="6.03168">
        <ele>185.71484375</ele>
        <time>2019-09-15T07:57:38Z</time>
      </trkpt>
      <trkpt lat="43.22597" lon="6.03169">
        <ele>186.03125</ele>
        <time>2019-09-15T07:57:39Z</time>
      </trkpt>
      <trkpt lat="43.22596" lon="6.03171">
        <ele>186.35546875</ele>
        <time>2019-09-15T07:57:40Z</time>
      </trkpt>
      <trkpt lat="43.22588" lon="6.03202">
        <ele>194.86328125</ele>
        <time>2019-09-15T07:57:56Z</time>
      </trkpt>
      <trkpt lat="43.2259" lon="6.03212">
        <ele>199.50390625</ele>
        <time>2019-09-15T07:58:01Z</time>
      </trkpt>
      <trkpt lat="43.22608" lon="6.03206">
        <ele>200.4140625</ele>
        <time>2019-09-15T07:58:14Z</time>
      </trkpt>
      <trkpt lat="43.22624" lon="6.03202">
        <ele>201.24609375</ele>
        <time>2019-09-15T07:58:24Z</time>
      </trkpt>
      <trkpt lat="43.22625" lon="6.03202">
        <ele>201.05078125</ele>
        <time>2019-09-15T07:58:25Z</time>
      </trkpt>
      <trkpt lat="43.22627" lon="6.03201">
        <ele>200.8828125</ele>
        <time>2019-09-15T07:58:26Z</time>
      </trkpt>
      <trkpt lat="43.22628" lon="6.032">
        <ele>200.75390625</ele>
        <time>2019-09-15T07:58:27Z</time>
      </trkpt>
      <trkpt lat="43.2263" lon="6.032">
        <ele>200.6796875</ele>
        <time>2019-09-15T07:58:28Z</time>
      </trkpt>
      <trkpt lat="43.22632" lon="6.032">
        <ele>200.68359375</ele>
        <time>2019-09-15T07:58:29Z</time>
      </trkpt>
      <trkpt lat="43.22661" lon="6.03193">
        <ele>196.46875</ele>
        <time>2019-09-15T07:58:45Z</time>
      </trkpt>
      <trkpt lat="43.22686" lon="6.03194">
        <ele>192.13671875</ele>
        <time>2019-09-15T07:58:59Z</time>
      </trkpt>
      <trkpt lat="43.22708" lon="6.03213">
        <ele>194.1171875</ele>
        <time>2019-09-15T07:59:15Z</time>
      </trkpt>
      <trkpt lat="43.22728" lon="6.03241">
        <ele>199.07421875</ele>
        <time>2019-09-15T07:59:33Z</time>
      </trkpt>
      <trkpt lat="43.22745" lon="6.03257">
        <ele>203.46875</ele>
        <time>2019-09-15T07:59:47Z</time>
      </trkpt>
      <trkpt lat="43.22746" lon="6.03258">
        <ele>203.75390625</ele>
        <time>2019-09-15T07:59:48Z</time>
      </trkpt>
      <trkpt lat="43.22764" lon="6.03276">
        <ele>206.125</ele>
        <time>2019-09-15T08:00:03Z</time>
      </trkpt>
      <trkpt lat="43.22766" lon="6.03277">
        <ele>206.28515625</ele>
        <time>2019-09-15T08:00:04Z</time>
      </trkpt>
      <trkpt lat="43.22767" lon="6.03278">
        <ele>206.39453125</ele>
        <time>2019-09-15T08:00:05Z</time>
      </trkpt>
      <trkpt lat="43.22769" lon="6.03279">
        <ele>206.53515625</ele>
        <time>2019-09-15T08:00:06Z</time>
      </trkpt>
      <trkpt lat="43.2277" lon="6.03281">
        <ele>206.75390625</ele>
        <time>2019-09-15T08:00:07Z</time>
      </trkpt>
      <trkpt lat="43.22771" lon="6.03282">
        <ele>206.890625</ele>
        <time>2019-09-15T08:00:08Z</time>
      </trkpt>
      <trkpt lat="43.22772" lon="6.03283">
        <ele>207.01171875</ele>
        <time>2019-09-15T08:00:09Z</time>
      </trkpt>
      <trkpt lat="43.22773" lon="6.03285">
        <ele>207.29296875</ele>
        <time>2019-09-15T08:00:10Z</time>
      </trkpt>
      <trkpt lat="43.22774" lon="6.03286">
        <ele>207.48828125</ele>
        <time>2019-09-15T08:00:11Z</time>
      </trkpt>
      <trkpt lat="43.22776" lon="6.03287">
        <ele>207.55859375</ele>
        <time>2019-09-15T08:00:12Z</time>
      </trkpt>
      <trkpt lat="43.22777" lon="6.03288">
        <ele>207.625</ele>
        <time>2019-09-15T08:00:13Z</time>
      </trkpt>
      <trkpt lat="43.22789" lon="6.03296">
        <ele>209.078125</ele>
        <time>2019-09-15T08:00:22Z</time>
      </trkpt>
      <trkpt lat="43.22791" lon="6.03297">
        <ele>209.4140625</ele>
        <time>2019-09-15T08:00:23Z</time>
      </trkpt>
      <trkpt lat="43.22792" lon="6.03298">
        <ele>209.7109375</ele>
        <time>2019-09-15T08:00:24Z</time>
      </trkpt>
      <trkpt lat="43.22793" lon="6.03299">
        <ele>210.0703125</ele>
        <time>2019-09-15T08:00:25Z</time>
      </trkpt>
      <trkpt lat="43.22795" lon="6.033">
        <ele>210.5234375</ele>
        <time>2019-09-15T08:00:26Z</time>
      </trkpt>
      <trkpt lat="43.22796" lon="6.03301">
        <ele>210.87890625</ele>
        <time>2019-09-15T08:00:27Z</time>
      </trkpt>
      <trkpt lat="43.22797" lon="6.03302">
        <ele>211.21875</ele>
        <time>2019-09-15T08:00:28Z</time>
      </trkpt>
      <trkpt lat="43.22799" lon="6.03304">
        <ele>211.5546875</ele>
        <time>2019-09-15T08:00:29Z</time>
      </trkpt>
      <trkpt lat="43.22801" lon="6.03306">
        <ele>212.1796875</ele>
        <time>2019-09-15T08:00:31Z</time>
      </trkpt>
      <trkpt lat="43.22802" lon="6.03308">
        <ele>212.4765625</ele>
        <time>2019-09-15T08:00:32Z</time>
      </trkpt>
      <trkpt lat="43.22803" lon="6.03309">
        <ele>212.76171875</ele>
        <time>2019-09-15T08:00:33Z</time>
      </trkpt>
      <trkpt lat="43.22804" lon="6.03311">
        <ele>213.03125</ele>
        <time>2019-09-15T08:00:34Z</time>
      </trkpt>
      <trkpt lat="43.22806" lon="6.03312">
        <ele>213.3046875</ele>
        <time>2019-09-15T08:00:35Z</time>
      </trkpt>
      <trkpt lat="43.22807" lon="6.03314">
        <ele>213.5390625</ele>
        <time>2019-09-15T08:00:36Z</time>
      </trkpt>
      <trkpt lat="43.22808" lon="6.03315">
        <ele>213.70703125</ele>
        <time>2019-09-15T08:00:37Z</time>
      </trkpt>
      <trkpt lat="43.22809" lon="6.03316">
        <ele>213.86328125</ele>
        <time>2019-09-15T08:00:38Z</time>
      </trkpt>
      <trkpt lat="43.22811" lon="6.03318">
        <ele>214.03515625</ele>
        <time>2019-09-15T08:00:39Z</time>
      </trkpt>
      <trkpt lat="43.22812" lon="6.0332">
        <ele>214.41796875</ele>
        <time>2019-09-15T08:00:40Z</time>
      </trkpt>
      <trkpt lat="43.22813" lon="6.03321">
        <ele>214.78125</ele>
        <time>2019-09-15T08:00:41Z</time>
      </trkpt>
      <trkpt lat="43.22814" lon="6.03323">
        <ele>215.22265625</ele>
        <time>2019-09-15T08:00:42Z</time>
      </trkpt>
      <trkpt lat="43.22815" lon="6.03325">
        <ele>215.62890625</ele>
        <time>2019-09-15T08:00:43Z</time>
      </trkpt>
      <trkpt lat="43.22835" lon="6.03352">
        <ele>223.30078125</ele>
        <time>2019-09-15T08:01:00Z</time>
      </trkpt>
      <trkpt lat="43.22847" lon="6.03345">
        <ele>225.6953125</ele>
        <time>2019-09-15T08:01:12Z</time>
      </trkpt>
      <trkpt lat="43.22847" lon="6.03343">
        <ele>225.44140625</ele>
        <time>2019-09-15T08:01:13Z</time>
      </trkpt>
      <trkpt lat="43.22847" lon="6.03341">
        <ele>225.2265625</ele>
        <time>2019-09-15T08:01:14Z</time>
      </trkpt>
      <trkpt lat="43.22847" lon="6.0334">
        <ele>225.08984375</ele>
        <time>2019-09-15T08:01:15Z</time>
      </trkpt>
      <trkpt lat="43.22847" lon="6.03338">
        <ele>225.06640625</ele>
        <time>2019-09-15T08:01:16Z</time>
      </trkpt>
      <trkpt lat="43.22848" lon="6.03336">
        <ele>225.02734375</ele>
        <time>2019-09-15T08:01:17Z</time>
      </trkpt>
      <trkpt lat="43.22848" lon="6.03335">
        <ele>224.9921875</ele>
        <time>2019-09-15T08:01:18Z</time>
      </trkpt>
      <trkpt lat="43.22848" lon="6.0333">
        <ele>224.2890625</ele>
        <time>2019-09-15T08:01:22Z</time>
      </trkpt>
      <trkpt lat="43.22847" lon="6.03317">
        <ele>222.8359375</ele>
        <time>2019-09-15T08:01:35Z</time>
      </trkpt>
      <trkpt lat="43.22846" lon="6.03309">
        <ele>221.41796875</ele>
        <time>2019-09-15T08:01:58Z</time>
      </trkpt>
      <trkpt lat="43.22846" lon="6.03283">
        <ele>218.3046875</ele>
        <time>2019-09-15T08:02:12Z</time>
      </trkpt>
      <trkpt lat="43.22848" lon="6.03253">
        <ele>214.2890625</ele>
        <time>2019-09-15T08:02:25Z</time>
      </trkpt>
      <trkpt lat="43.22857" lon="6.03243">
        <ele>213.1171875</ele>
        <time>2019-09-15T08:02:33Z</time>
      </trkpt>
      <trkpt lat="43.22876" lon="6.03261">
        <ele>218.5</ele>
        <time>2019-09-15T08:02:47Z</time>
      </trkpt>
      <trkpt lat="43.22896" lon="6.0328">
        <ele>223.359375</ele>
        <time>2019-09-15T08:03:03Z</time>
      </trkpt>
      <trkpt lat="43.22917" lon="6.03289">
        <ele>224.37109375</ele>
        <time>2019-09-15T08:03:19Z</time>
      </trkpt>
      <trkpt lat="43.22928" lon="6.03295">
        <ele>224.3984375</ele>
        <time>2019-09-15T08:03:28Z</time>
      </trkpt>
      <trkpt lat="43.22929" lon="6.03296">
        <ele>224.421875</ele>
        <time>2019-09-15T08:03:29Z</time>
      </trkpt>
      <trkpt lat="43.2293" lon="6.03297">
        <ele>224.40234375</ele>
        <time>2019-09-15T08:03:30Z</time>
      </trkpt>
      <trkpt lat="43.22932" lon="6.03298">
        <ele>224.39453125</ele>
        <time>2019-09-15T08:03:31Z</time>
      </trkpt>
      <trkpt lat="43.22933" lon="6.03298">
        <ele>224.25</ele>
        <time>2019-09-15T08:03:32Z</time>
      </trkpt>
      <trkpt lat="43.22951" lon="6.03312">
        <ele>223.93359375</ele>
        <time>2019-09-15T08:03:47Z</time>
      </trkpt>
      <trkpt lat="43.22967" lon="6.0333">
        <ele>223.2578125</ele>
        <time>2019-09-15T08:04:01Z</time>
      </trkpt>
      <trkpt lat="43.2298" lon="6.03351">
        <ele>222.48828125</ele>
        <time>2019-09-15T08:04:17Z</time>
      </trkpt>
      <trkpt lat="43.22986" lon="6.03381">
        <ele>224.4296875</ele>
        <time>2019-09-15T08:04:35Z</time>
      </trkpt>
      <trkpt lat="43.22987" lon="6.03393">
        <ele>225.3984375</ele>
        <time>2019-09-15T08:04:42Z</time>
      </trkpt>
      <trkpt lat="43.22987" lon="6.034">
        <ele>226.13671875</ele>
        <time>2019-09-15T08:04:46Z</time>
      </trkpt>
      <trkpt lat="43.22987" lon="6.03402">
        <ele>226.23046875</ele>
        <time>2019-09-15T08:04:47Z</time>
      </trkpt>
      <trkpt lat="43.22988" lon="6.03404">
        <ele>226.3359375</ele>
        <time>2019-09-15T08:04:48Z</time>
      </trkpt>
      <trkpt lat="43.22988" lon="6.03406">
        <ele>226.51953125</ele>
        <time>2019-09-15T08:04:49Z</time>
      </trkpt>
      <trkpt lat="43.22988" lon="6.03408">
        <ele>226.71484375</ele>
        <time>2019-09-15T08:04:50Z</time>
      </trkpt>
      <trkpt lat="43.22988" lon="6.0341">
        <ele>226.91796875</ele>
        <time>2019-09-15T08:04:51Z</time>
      </trkpt>
      <trkpt lat="43.22989" lon="6.03429">
        <ele>228.72265625</ele>
        <time>2019-09-15T08:05:01Z</time>
      </trkpt>
      <trkpt lat="43.22988" lon="6.03431">
        <ele>228.98046875</ele>
        <time>2019-09-15T08:05:02Z</time>
      </trkpt>
      <trkpt lat="43.22988" lon="6.03433">
        <ele>229.2265625</ele>
        <time>2019-09-15T08:05:03Z</time>
      </trkpt>
      <trkpt lat="43.22988" lon="6.03435">
        <ele>229.44140625</ele>
        <time>2019-09-15T08:05:04Z</time>
      </trkpt>
      <trkpt lat="43.22988" lon="6.03437">
        <ele>229.6875</ele>
        <time>2019-09-15T08:05:05Z</time>
      </trkpt>
      <trkpt lat="43.22988" lon="6.03439">
        <ele>230.078125</ele>
        <time>2019-09-15T08:05:06Z</time>
      </trkpt>
      <trkpt lat="43.22987" lon="6.03442">
        <ele>230.59765625</ele>
        <time>2019-09-15T08:05:07Z</time>
      </trkpt>
      <trkpt lat="43.22987" lon="6.03444">
        <ele>231.01171875</ele>
        <time>2019-09-15T08:05:08Z</time>
      </trkpt>
      <trkpt lat="43.22986" lon="6.03447">
        <ele>231.3515625</ele>
        <time>2019-09-15T08:05:09Z</time>
      </trkpt>
      <trkpt lat="43.22986" lon="6.03449">
        <ele>231.65234375</ele>
        <time>2019-09-15T08:05:10Z</time>
      </trkpt>
      <trkpt lat="43.22987" lon="6.03451">
        <ele>231.83984375</ele>
        <time>2019-09-15T08:05:11Z</time>
      </trkpt>
      <trkpt lat="43.22987" lon="6.03458">
        <ele>232.515625</ele>
        <time>2019-09-15T08:05:15Z</time>
      </trkpt>
      <trkpt lat="43.22988" lon="6.03459">
        <ele>232.5</ele>
        <time>2019-09-15T08:05:16Z</time>
      </trkpt>
      <trkpt lat="43.22989" lon="6.03461">
        <ele>232.49609375</ele>
        <time>2019-09-15T08:05:17Z</time>
      </trkpt>
      <trkpt lat="43.22993" lon="6.03492">
        <ele>234.37890625</ele>
        <time>2019-09-15T08:05:33Z</time>
      </trkpt>
      <trkpt lat="43.22995" lon="6.03509">
        <ele>235.23828125</ele>
        <time>2019-09-15T08:05:42Z</time>
      </trkpt>
      <trkpt lat="43.22995" lon="6.03511">
        <ele>235.390625</ele>
        <time>2019-09-15T08:05:43Z</time>
      </trkpt>
      <trkpt lat="43.22995" lon="6.03513">
        <ele>235.484375</ele>
        <time>2019-09-15T08:05:44Z</time>
      </trkpt>
      <trkpt lat="43.22997" lon="6.03541">
        <ele>237.99609375</ele>
        <time>2019-09-15T08:05:58Z</time>
      </trkpt>
      <trkpt lat="43.22997" lon="6.03567">
        <ele>240.73046875</ele>
        <time>2019-09-15T08:06:10Z</time>
      </trkpt>
      <trkpt lat="43.22997" lon="6.03569">
        <ele>240.8203125</ele>
        <time>2019-09-15T08:06:11Z</time>
      </trkpt>
      <trkpt lat="43.22998" lon="6.0357">
        <ele>240.91015625</ele>
        <time>2019-09-15T08:06:12Z</time>
      </trkpt>
      <trkpt lat="43.22998" lon="6.03572">
        <ele>241.0390625</ele>
        <time>2019-09-15T08:06:13Z</time>
      </trkpt>
      <trkpt lat="43.22999" lon="6.03574">
        <ele>241.07421875</ele>
        <time>2019-09-15T08:06:14Z</time>
      </trkpt>
      <trkpt lat="43.23001" lon="6.03578">
        <ele>241</ele>
        <time>2019-09-15T08:06:29Z</time>
      </trkpt>
      <trkpt lat="43.23" lon="6.03581">
        <ele>241.54296875</ele>
        <time>2019-09-15T08:06:51Z</time>
      </trkpt>
      <trkpt lat="43.23002" lon="6.03581">
        <ele>241.21484375</ele>
        <time>2019-09-15T08:07:05Z</time>
      </trkpt>
      <trkpt lat="43.23004" lon="6.03581">
        <ele>240.58203125</ele>
        <time>2019-09-15T08:07:28Z</time>
      </trkpt>
      <trkpt lat="43.23001" lon="6.03584">
        <ele>241.546875</ele>
        <time>2019-09-15T08:07:54Z</time>
      </trkpt>
      <trkpt lat="43.23001" lon="6.03584">
        <ele>241.58203125</ele>
        <time>2019-09-15T08:08:23Z</time>
      </trkpt>
      <trkpt lat="43.23002" lon="6.03582">
        <ele>241.140625</ele>
        <time>2019-09-15T08:08:55Z</time>
      </trkpt>
      <trkpt lat="43.23004" lon="6.03582">
        <ele>240.765625</ele>
        <time>2019-09-15T08:09:22Z</time>
      </trkpt>
      <trkpt lat="43.23005" lon="6.0358">
        <ele>240.4140625</ele>
        <time>2019-09-15T08:09:47Z</time>
      </trkpt>
      <trkpt lat="43.23004" lon="6.03581">
        <ele>240.68359375</ele>
        <time>2019-09-15T08:10:19Z</time>
      </trkpt>
      <trkpt lat="43.23005" lon="6.03581">
        <ele>240.46875</ele>
        <time>2019-09-15T08:10:28Z</time>
      </trkpt>
      <trkpt lat="43.23006" lon="6.03583">
        <ele>240.34765625</ele>
        <time>2019-09-15T08:10:29Z</time>
      </trkpt>
      <trkpt lat="43.23007" lon="6.03584">
        <ele>240.30078125</ele>
        <time>2019-09-15T08:10:30Z</time>
      </trkpt>
      <trkpt lat="43.23008" lon="6.03586">
        <ele>240.421875</ele>
        <time>2019-09-15T08:10:31Z</time>
      </trkpt>
      <trkpt lat="43.23008" lon="6.03588">
        <ele>240.62890625</ele>
        <time>2019-09-15T08:10:32Z</time>
      </trkpt>
      <trkpt lat="43.23008" lon="6.03591">
        <ele>240.76171875</ele>
        <time>2019-09-15T08:10:33Z</time>
      </trkpt>
      <trkpt lat="43.23009" lon="6.03593">
        <ele>240.78515625</ele>
        <time>2019-09-15T08:10:34Z</time>
      </trkpt>
      <trkpt lat="43.23031" lon="6.03636">
        <ele>240.77734375</ele>
        <time>2019-09-15T08:10:50Z</time>
      </trkpt>
      <trkpt lat="43.23055" lon="6.03682">
        <ele>241.96484375</ele>
        <time>2019-09-15T08:11:03Z</time>
      </trkpt>
      <trkpt lat="43.23082" lon="6.0372">
        <ele>241.37109375</ele>
        <time>2019-09-15T08:11:14Z</time>
      </trkpt>
      <trkpt lat="43.23104" lon="6.03757">
        <ele>243.03515625</ele>
        <time>2019-09-15T08:11:28Z</time>
      </trkpt>
      <trkpt lat="43.23114" lon="6.03791">
        <ele>246.3125</ele>
        <time>2019-09-15T08:11:42Z</time>
      </trkpt>
      <trkpt lat="43.23119" lon="6.03822">
        <ele>249.8203125</ele>
        <time>2019-09-15T08:11:56Z</time>
      </trkpt>
      <trkpt lat="43.23123" lon="6.0384">
        <ele>252.28515625</ele>
        <time>2019-09-15T08:12:05Z</time>
      </trkpt>
      <trkpt lat="43.23124" lon="6.03842">
        <ele>252.51953125</ele>
        <time>2019-09-15T08:12:06Z</time>
      </trkpt>
      <trkpt lat="43.23124" lon="6.03844">
        <ele>252.7578125</ele>
        <time>2019-09-15T08:12:07Z</time>
      </trkpt>
      <trkpt lat="43.23125" lon="6.03846">
        <ele>253.0078125</ele>
        <time>2019-09-15T08:12:08Z</time>
      </trkpt>
      <trkpt lat="43.23125" lon="6.03849">
        <ele>253.34765625</ele>
        <time>2019-09-15T08:12:09Z</time>
      </trkpt>
      <trkpt lat="43.23125" lon="6.03851">
        <ele>253.6953125</ele>
        <time>2019-09-15T08:12:10Z</time>
      </trkpt>
      <trkpt lat="43.23125" lon="6.03853">
        <ele>254.078125</ele>
        <time>2019-09-15T08:12:11Z</time>
      </trkpt>
      <trkpt lat="43.23126" lon="6.03855">
        <ele>254.41796875</ele>
        <time>2019-09-15T08:12:12Z</time>
      </trkpt>
      <trkpt lat="43.23141" lon="6.03882">
        <ele>256.484375</ele>
        <time>2019-09-15T08:12:24Z</time>
      </trkpt>
      <trkpt lat="43.23156" lon="6.03908">
        <ele>257.4296875</ele>
        <time>2019-09-15T08:12:39Z</time>
      </trkpt>
      <trkpt lat="43.23176" lon="6.03933">
        <ele>257.54296875</ele>
        <time>2019-09-15T08:12:54Z</time>
      </trkpt>
      <trkpt lat="43.23199" lon="6.03957">
        <ele>257.55078125</ele>
        <time>2019-09-15T08:13:09Z</time>
      </trkpt>
      <trkpt lat="43.23224" lon="6.03986">
        <ele>259.87890625</ele>
        <time>2019-09-15T08:13:21Z</time>
      </trkpt>
      <trkpt lat="43.23257" lon="6.04011">
        <ele>260.98046875</ele>
        <time>2019-09-15T08:13:33Z</time>
      </trkpt>
      <trkpt lat="43.23301" lon="6.04043">
        <ele>268.51953125</ele>
        <time>2019-09-15T08:13:48Z</time>
      </trkpt>
      <trkpt lat="43.23323" lon="6.04019">
        <ele>268.61328125</ele>
        <time>2019-09-15T08:13:59Z</time>
      </trkpt>
      <trkpt lat="43.23352" lon="6.0399">
        <ele>267.95703125</ele>
        <time>2019-09-15T08:14:13Z</time>
      </trkpt>
      <trkpt lat="43.23386" lon="6.03981">
        <ele>266.7421875</ele>
        <time>2019-09-15T08:14:27Z</time>
      </trkpt>
      <trkpt lat="43.2341" lon="6.03992">
        <ele>269.44921875</ele>
        <time>2019-09-15T08:14:39Z</time>
      </trkpt>
      <trkpt lat="43.23438" lon="6.04005">
        <ele>271.1015625</ele>
        <time>2019-09-15T08:14:54Z</time>
      </trkpt>
      <trkpt lat="43.23461" lon="6.04025">
        <ele>271.27734375</ele>
        <time>2019-09-15T08:15:09Z</time>
      </trkpt>
      <trkpt lat="43.23466" lon="6.04031">
        <ele>270.8515625</ele>
        <time>2019-09-15T08:15:18Z</time>
      </trkpt>
      <trkpt lat="43.23465" lon="6.0403">
        <ele>270.94921875</ele>
        <time>2019-09-15T08:15:19Z</time>
      </trkpt>
      <trkpt lat="43.2346" lon="6.04024">
        <ele>271.3671875</ele>
        <time>2019-09-15T08:15:26Z</time>
      </trkpt>
      <trkpt lat="43.23459" lon="6.04025">
        <ele>271.171875</ele>
        <time>2019-09-15T08:15:27Z</time>
      </trkpt>
      <trkpt lat="43.23458" lon="6.04027">
        <ele>270.89453125</ele>
        <time>2019-09-15T08:15:28Z</time>
      </trkpt>
      <trkpt lat="43.23458" lon="6.04029">
        <ele>270.68359375</ele>
        <time>2019-09-15T08:15:29Z</time>
      </trkpt>
      <trkpt lat="43.23459" lon="6.0403">
        <ele>270.55078125</ele>
        <time>2019-09-15T08:15:30Z</time>
      </trkpt>
      <trkpt lat="43.23462" lon="6.04031">
        <ele>270.625</ele>
        <time>2019-09-15T08:15:43Z</time>
      </trkpt>
      <trkpt lat="43.23464" lon="6.04032">
        <ele>270.68359375</ele>
        <time>2019-09-15T08:16:11Z</time>
      </trkpt>
      <trkpt lat="43.23464" lon="6.04033">
        <ele>270.53515625</ele>
        <time>2019-09-15T08:16:40Z</time>
      </trkpt>
      <trkpt lat="43.23465" lon="6.04028">
        <ele>271.28515625</ele>
        <time>2019-09-15T08:17:10Z</time>
      </trkpt>
      <trkpt lat="43.23463" lon="6.04027">
        <ele>271.1875</ele>
        <time>2019-09-15T08:17:42Z</time>
      </trkpt>
      <trkpt lat="43.23463" lon="6.04027">
        <ele>271.13671875</ele>
        <time>2019-09-15T08:18:14Z</time>
      </trkpt>
      <trkpt lat="43.23465" lon="6.04027">
        <ele>271.40625</ele>
        <time>2019-09-15T08:18:41Z</time>
      </trkpt>
      <trkpt lat="43.23464" lon="6.04022">
        <ele>271.98046875</ele>
        <time>2019-09-15T08:18:44Z</time>
      </trkpt>
      <trkpt lat="43.23466" lon="6.04014">
        <ele>272.921875</ele>
        <time>2019-09-15T08:18:46Z</time>
      </trkpt>
      <trkpt lat="43.23469" lon="6.04">
        <ele>274.80859375</ele>
        <time>2019-09-15T08:18:48Z</time>
      </trkpt>
      <trkpt lat="43.23473" lon="6.03986">
        <ele>275.8828125</ele>
        <time>2019-09-15T08:18:50Z</time>
      </trkpt>
      <trkpt lat="43.23475" lon="6.03968">
        <ele>275.59375</ele>
        <time>2019-09-15T08:18:53Z</time>
      </trkpt>
      <trkpt lat="43.23477" lon="6.03953">
        <ele>275.5390625</ele>
        <time>2019-09-15T08:18:56Z</time>
      </trkpt>
      <trkpt lat="43.23479" lon="6.03937">
        <ele>275.64453125</ele>
        <time>2019-09-15T08:18:59Z</time>
      </trkpt>
      <trkpt lat="43.23481" lon="6.03933">
        <ele>275.3203125</ele>
        <time>2019-09-15T08:19:00Z</time>
      </trkpt>
      <trkpt lat="43.23482" lon="6.03928">
        <ele>274.82421875</ele>
        <time>2019-09-15T08:19:01Z</time>
      </trkpt>
      <trkpt lat="43.23483" lon="6.03923">
        <ele>274.23046875</ele>
        <time>2019-09-15T08:19:02Z</time>
      </trkpt>
      <trkpt lat="43.23484" lon="6.03917">
        <ele>273.609375</ele>
        <time>2019-09-15T08:19:03Z</time>
      </trkpt>
      <trkpt lat="43.23486" lon="6.03912">
        <ele>273.14453125</ele>
        <time>2019-09-15T08:19:04Z</time>
      </trkpt>
      <trkpt lat="43.2349" lon="6.03887">
        <ele>269.70703125</ele>
        <time>2019-09-15T08:19:09Z</time>
      </trkpt>
      <trkpt lat="43.23493" lon="6.03882">
        <ele>269.90625</ele>
        <time>2019-09-15T08:19:11Z</time>
      </trkpt>
      <trkpt lat="43.23506" lon="6.03862">
        <ele>268.51171875</ele>
        <time>2019-09-15T08:19:16Z</time>
      </trkpt>
      <trkpt lat="43.23515" lon="6.03849">
        <ele>267.48046875</ele>
        <time>2019-09-15T08:19:18Z</time>
      </trkpt>
      <trkpt lat="43.23519" lon="6.03843">
        <ele>266.20703125</ele>
        <time>2019-09-15T08:19:19Z</time>
      </trkpt>
      <trkpt lat="43.23527" lon="6.03832">
        <ele>264.0234375</ele>
        <time>2019-09-15T08:19:21Z</time>
      </trkpt>
      <trkpt lat="43.23539" lon="6.03822">
        <ele>262.50390625</ele>
        <time>2019-09-15T08:19:24Z</time>
      </trkpt>
      <trkpt lat="43.23543" lon="6.03819">
        <ele>262.359375</ele>
        <time>2019-09-15T08:19:25Z</time>
      </trkpt>
      <trkpt lat="43.23558" lon="6.03817">
        <ele>264.87890625</ele>
        <time>2019-09-15T08:19:28Z</time>
      </trkpt>
      <trkpt lat="43.23562" lon="6.03816">
        <ele>265.6796875</ele>
        <time>2019-09-15T08:19:29Z</time>
      </trkpt>
      <trkpt lat="43.23566" lon="6.03814">
        <ele>265.83203125</ele>
        <time>2019-09-15T08:19:30Z</time>
      </trkpt>
      <trkpt lat="43.23569" lon="6.03812">
        <ele>265.70703125</ele>
        <time>2019-09-15T08:19:31Z</time>
      </trkpt>
      <trkpt lat="43.23572" lon="6.0381">
        <ele>265.875</ele>
        <time>2019-09-15T08:19:32Z</time>
      </trkpt>
      <trkpt lat="43.23576" lon="6.03809">
        <ele>266.49609375</ele>
        <time>2019-09-15T08:19:33Z</time>
      </trkpt>
      <trkpt lat="43.2358" lon="6.03808">
        <ele>267.39453125</ele>
        <time>2019-09-15T08:19:34Z</time>
      </trkpt>
      <trkpt lat="43.23587" lon="6.03805">
        <ele>268.34765625</ele>
        <time>2019-09-15T08:19:36Z</time>
      </trkpt>
      <trkpt lat="43.236" lon="6.03794">
        <ele>269.60546875</ele>
        <time>2019-09-15T08:19:39Z</time>
      </trkpt>
      <trkpt lat="43.23604" lon="6.0379">
        <ele>269.56640625</ele>
        <time>2019-09-15T08:19:40Z</time>
      </trkpt>
      <trkpt lat="43.23608" lon="6.03786">
        <ele>269.3203125</ele>
        <time>2019-09-15T08:19:41Z</time>
      </trkpt>
      <trkpt lat="43.23611" lon="6.03781">
        <ele>268.88671875</ele>
        <time>2019-09-15T08:19:42Z</time>
      </trkpt>
      <trkpt lat="43.23613" lon="6.03777">
        <ele>268.20703125</ele>
        <time>2019-09-15T08:19:43Z</time>
      </trkpt>
      <trkpt lat="43.23616" lon="6.03771">
        <ele>267.24609375</ele>
        <time>2019-09-15T08:19:44Z</time>
      </trkpt>
      <trkpt lat="43.23618" lon="6.03765">
        <ele>266.1953125</ele>
        <time>2019-09-15T08:19:45Z</time>
      </trkpt>
      <trkpt lat="43.2362" lon="6.0376">
        <ele>264.88671875</ele>
        <time>2019-09-15T08:19:46Z</time>
      </trkpt>
      <trkpt lat="43.2362" lon="6.03755">
        <ele>263.28515625</ele>
        <time>2019-09-15T08:19:47Z</time>
      </trkpt>
      <trkpt lat="43.23619" lon="6.03749">
        <ele>261.34765625</ele>
        <time>2019-09-15T08:19:48Z</time>
      </trkpt>
      <trkpt lat="43.23618" lon="6.03745">
        <ele>259.42578125</ele>
        <time>2019-09-15T08:19:49Z</time>
      </trkpt>
      <trkpt lat="43.23617" lon="6.0374">
        <ele>257.8046875</ele>
        <time>2019-09-15T08:19:50Z</time>
      </trkpt>
      <trkpt lat="43.23616" lon="6.03736">
        <ele>256.21875</ele>
        <time>2019-09-15T08:19:51Z</time>
      </trkpt>
      <trkpt lat="43.23614" lon="6.03732">
        <ele>254.3359375</ele>
        <time>2019-09-15T08:19:52Z</time>
      </trkpt>
      <trkpt lat="43.23613" lon="6.0373">
        <ele>252.765625</ele>
        <time>2019-09-15T08:19:53Z</time>
      </trkpt>
      <trkpt lat="43.23611" lon="6.03727">
        <ele>251.19140625</ele>
        <time>2019-09-15T08:19:54Z</time>
      </trkpt>
      <trkpt lat="43.23609" lon="6.03724">
        <ele>249.484375</ele>
        <time>2019-09-15T08:19:55Z</time>
      </trkpt>
      <trkpt lat="43.23607" lon="6.0372">
        <ele>247.98828125</ele>
        <time>2019-09-15T08:19:56Z</time>
      </trkpt>
      <trkpt lat="43.23605" lon="6.03717">
        <ele>246.3515625</ele>
        <time>2019-09-15T08:19:57Z</time>
      </trkpt>
      <trkpt lat="43.23603" lon="6.03714">
        <ele>244.79296875</ele>
        <time>2019-09-15T08:19:58Z</time>
      </trkpt>
      <trkpt lat="43.23601" lon="6.03712">
        <ele>243.58984375</ele>
        <time>2019-09-15T08:19:59Z</time>
      </trkpt>
      <trkpt lat="43.236" lon="6.0371">
        <ele>242.6171875</ele>
        <time>2019-09-15T08:20:00Z</time>
      </trkpt>
      <trkpt lat="43.23599" lon="6.03708">
        <ele>241.76171875</ele>
        <time>2019-09-15T08:20:01Z</time>
      </trkpt>
      <trkpt lat="43.23598" lon="6.03705">
        <ele>240.72265625</ele>
        <time>2019-09-15T08:20:02Z</time>
      </trkpt>
      <trkpt lat="43.23595" lon="6.03702">
        <ele>239.28125</ele>
        <time>2019-09-15T08:20:03Z</time>
      </trkpt>
      <trkpt lat="43.23593" lon="6.03699">
        <ele>237.72265625</ele>
        <time>2019-09-15T08:20:04Z</time>
      </trkpt>
      <trkpt lat="43.23591" lon="6.03696">
        <ele>236.49609375</ele>
        <time>2019-09-15T08:20:05Z</time>
      </trkpt>
      <trkpt lat="43.23589" lon="6.03692">
        <ele>235.1796875</ele>
        <time>2019-09-15T08:20:16Z</time>
      </trkpt>
      <trkpt lat="43.23589" lon="6.03693">
        <ele>235.18359375</ele>
        <time>2019-09-15T08:20:39Z</time>
      </trkpt>
      <trkpt lat="43.23589" lon="6.03692">
        <ele>235.2109375</ele>
        <time>2019-09-15T08:21:03Z</time>
      </trkpt>
      <trkpt lat="43.2359" lon="6.03691">
        <ele>235.31640625</ele>
        <time>2019-09-15T08:21:30Z</time>
      </trkpt>
      <trkpt lat="43.2359" lon="6.03689">
        <ele>234.79296875</ele>
        <time>2019-09-15T08:21:50Z</time>
      </trkpt>
      <trkpt lat="43.23588" lon="6.03689">
        <ele>234.34375</ele>
        <time>2019-09-15T08:22:16Z</time>
      </trkpt>
      <trkpt lat="43.23588" lon="6.03689">
        <ele>234.37109375</ele>
        <time>2019-09-15T08:22:42Z</time>
      </trkpt>
      <trkpt lat="43.23589" lon="6.03689">
        <ele>234.56640625</ele>
        <time>2019-09-15T08:23:09Z</time>
      </trkpt>
      <trkpt lat="43.23589" lon="6.03689">
        <ele>234.5078125</ele>
        <time>2019-09-15T08:23:34Z</time>
      </trkpt>
      <trkpt lat="43.23589" lon="6.03689">
        <ele>234.61328125</ele>
        <time>2019-09-15T08:23:57Z</time>
      </trkpt>
      <trkpt lat="43.23587" lon="6.03686">
        <ele>233.53125</ele>
        <time>2019-09-15T08:24:12Z</time>
      </trkpt>
      <trkpt lat="43.23587" lon="6.03683">
        <ele>232.98828125</ele>
        <time>2019-09-15T08:24:13Z</time>
      </trkpt>
      <trkpt lat="43.23601" lon="6.03664">
        <ele>232.79296875</ele>
        <time>2019-09-15T08:24:23Z</time>
      </trkpt>
      <trkpt lat="43.23609" lon="6.03655">
        <ele>232.57421875</ele>
        <time>2019-09-15T08:24:28Z</time>
      </trkpt>
      <trkpt lat="43.23608" lon="6.03652">
        <ele>231.63671875</ele>
        <time>2019-09-15T08:24:29Z</time>
      </trkpt>
      <trkpt lat="43.23605" lon="6.03649">
        <ele>230.5390625</ele>
        <time>2019-09-15T08:24:30Z</time>
      </trkpt>
      <trkpt lat="43.23601" lon="6.03647">
        <ele>229.515625</ele>
        <time>2019-09-15T08:24:31Z</time>
      </trkpt>
      <trkpt lat="43.23597" lon="6.03646">
        <ele>228.57421875</ele>
        <time>2019-09-15T08:24:32Z</time>
      </trkpt>
      <trkpt lat="43.23593" lon="6.03645">
        <ele>227.81640625</ele>
        <time>2019-09-15T08:24:33Z</time>
      </trkpt>
      <trkpt lat="43.23573" lon="6.0364">
        <ele>223.8359375</ele>
        <time>2019-09-15T08:24:40Z</time>
      </trkpt>
      <trkpt lat="43.23571" lon="6.03638">
        <ele>223.2734375</ele>
        <time>2019-09-15T08:24:41Z</time>
      </trkpt>
      <trkpt lat="43.2357" lon="6.03635">
        <ele>222.75</ele>
        <time>2019-09-15T08:24:42Z</time>
      </trkpt>
      <trkpt lat="43.23568" lon="6.03629">
        <ele>221.95703125</ele>
        <time>2019-09-15T08:24:44Z</time>
      </trkpt>
      <trkpt lat="43.23565" lon="6.03626">
        <ele>221.2109375</ele>
        <time>2019-09-15T08:24:46Z</time>
      </trkpt>
      <trkpt lat="43.23564" lon="6.03624">
        <ele>220.88671875</ele>
        <time>2019-09-15T08:24:47Z</time>
      </trkpt>
      <trkpt lat="43.23562" lon="6.03622">
        <ele>220.59765625</ele>
        <time>2019-09-15T08:24:48Z</time>
      </trkpt>
      <trkpt lat="43.23561" lon="6.03621">
        <ele>220.3203125</ele>
        <time>2019-09-15T08:24:49Z</time>
      </trkpt>
      <trkpt lat="43.2356" lon="6.03619">
        <ele>220.03125</ele>
        <time>2019-09-15T08:24:50Z</time>
      </trkpt>
      <trkpt lat="43.23558" lon="6.03618">
        <ele>219.6171875</ele>
        <time>2019-09-15T08:24:51Z</time>
      </trkpt>
      <trkpt lat="43.23555" lon="6.03615">
        <ele>219.171875</ele>
        <time>2019-09-15T08:24:52Z</time>
      </trkpt>
      <trkpt lat="43.23553" lon="6.03613">
        <ele>218.75</ele>
        <time>2019-09-15T08:24:53Z</time>
      </trkpt>
      <trkpt lat="43.23541" lon="6.03594">
        <ele>217.34765625</ele>
        <time>2019-09-15T08:24:58Z</time>
      </trkpt>
      <trkpt lat="43.23524" lon="6.03568">
        <ele>216.79296875</ele>
        <time>2019-09-15T08:25:03Z</time>
      </trkpt>
      <trkpt lat="43.2352" lon="6.03564">
        <ele>216.78125</ele>
        <time>2019-09-15T08:25:04Z</time>
      </trkpt>
      <trkpt lat="43.23486" lon="6.0354">
        <ele>216.84375</ele>
        <time>2019-09-15T08:25:15Z</time>
      </trkpt>
      <trkpt lat="43.23458" lon="6.03522">
        <ele>217.58984375</ele>
        <time>2019-09-15T08:25:28Z</time>
      </trkpt>
      <trkpt lat="43.23432" lon="6.03493">
        <ele>219.66796875</ele>
        <time>2019-09-15T08:25:43Z</time>
      </trkpt>
      <trkpt lat="43.23429" lon="6.03486">
        <ele>220.1796875</ele>
        <time>2019-09-15T08:25:51Z</time>
      </trkpt>
      <trkpt lat="43.23427" lon="6.03485">
        <ele>220.11328125</ele>
        <time>2019-09-15T08:26:06Z</time>
      </trkpt>
      <trkpt lat="43.23429" lon="6.03483">
        <ele>220.5859375</ele>
        <time>2019-09-15T08:26:51Z</time>
      </trkpt>
      <trkpt lat="43.2343" lon="6.03483">
        <ele>220.72265625</ele>
        <time>2019-09-15T08:26:52Z</time>
      </trkpt>
      <trkpt lat="43.23428" lon="6.0348">
        <ele>220.984375</ele>
        <time>2019-09-15T08:27:02Z</time>
      </trkpt>
      <trkpt lat="43.23419" lon="6.03446">
        <ele>223.703125</ele>
        <time>2019-09-15T08:27:12Z</time>
      </trkpt>
      <trkpt lat="43.23418" lon="6.03442">
        <ele>223.80078125</ele>
        <time>2019-09-15T08:27:13Z</time>
      </trkpt>
      <trkpt lat="43.23406" lon="6.03417">
        <ele>222.33984375</ele>
        <time>2019-09-15T08:27:17Z</time>
      </trkpt>
      <trkpt lat="43.23382" lon="6.03375">
        <ele>219.67578125</ele>
        <time>2019-09-15T08:27:23Z</time>
      </trkpt>
      <trkpt lat="43.2338" lon="6.03367">
        <ele>219.8125</ele>
        <time>2019-09-15T08:27:24Z</time>
      </trkpt>
      <trkpt lat="43.23374" lon="6.03345">
        <ele>220.2421875</ele>
        <time>2019-09-15T08:27:27Z</time>
      </trkpt>
      <trkpt lat="43.23372" lon="6.03339">
        <ele>220.2109375</ele>
        <time>2019-09-15T08:27:28Z</time>
      </trkpt>
      <trkpt lat="43.23369" lon="6.03334">
        <ele>220.109375</ele>
        <time>2019-09-15T08:27:29Z</time>
      </trkpt>
      <trkpt lat="43.23366" lon="6.0333">
        <ele>219.8984375</ele>
        <time>2019-09-15T08:27:30Z</time>
      </trkpt>
      <trkpt lat="43.23362" lon="6.03327">
        <ele>219.7109375</ele>
        <time>2019-09-15T08:27:31Z</time>
      </trkpt>
      <trkpt lat="43.23358" lon="6.03325">
        <ele>219.6015625</ele>
        <time>2019-09-15T08:27:32Z</time>
      </trkpt>
      <trkpt lat="43.23355" lon="6.03324">
        <ele>219.48046875</ele>
        <time>2019-09-15T08:27:33Z</time>
      </trkpt>
      <trkpt lat="43.23351" lon="6.03324">
        <ele>219.296875</ele>
        <time>2019-09-15T08:27:34Z</time>
      </trkpt>
      <trkpt lat="43.23349" lon="6.03324">
        <ele>219.0625</ele>
        <time>2019-09-15T08:27:35Z</time>
      </trkpt>
      <trkpt lat="43.23346" lon="6.03325">
        <ele>218.8046875</ele>
        <time>2019-09-15T08:27:36Z</time>
      </trkpt>
      <trkpt lat="43.23313" lon="6.03318">
        <ele>218.0703125</ele>
        <time>2019-09-15T08:27:45Z</time>
      </trkpt>
      <trkpt lat="43.23297" lon="6.03302">
        <ele>219.6328125</ele>
        <time>2019-09-15T08:27:55Z</time>
      </trkpt>
      <trkpt lat="43.23279" lon="6.03286">
        <ele>221.84375</ele>
        <time>2019-09-15T08:28:08Z</time>
      </trkpt>
      <trkpt lat="43.2327" lon="6.03268">
        <ele>224.58984375</ele>
        <time>2019-09-15T08:28:19Z</time>
      </trkpt>
      <trkpt lat="43.23263" lon="6.03247">
        <ele>228.609375</ele>
        <time>2019-09-15T08:28:31Z</time>
      </trkpt>
      <trkpt lat="43.2326" lon="6.03219">
        <ele>233.7734375</ele>
        <time>2019-09-15T08:28:45Z</time>
      </trkpt>
      <trkpt lat="43.23254" lon="6.03193">
        <ele>237.8828125</ele>
        <time>2019-09-15T08:28:59Z</time>
      </trkpt>
      <trkpt lat="43.23252" lon="6.03165">
        <ele>240.2265625</ele>
        <time>2019-09-15T08:29:13Z</time>
      </trkpt>
      <trkpt lat="43.23256" lon="6.03137">
        <ele>242.89453125</ele>
        <time>2019-09-15T08:29:28Z</time>
      </trkpt>
      <trkpt lat="43.23258" lon="6.03131">
        <ele>243.55859375</ele>
        <time>2019-09-15T08:29:43Z</time>
      </trkpt>
      <trkpt lat="43.2326" lon="6.03121">
        <ele>243.62890625</ele>
        <time>2019-09-15T08:29:50Z</time>
      </trkpt>
      <trkpt lat="43.23261" lon="6.0312">
        <ele>243.7109375</ele>
        <time>2019-09-15T08:29:51Z</time>
      </trkpt>
      <trkpt lat="43.23262" lon="6.03118">
        <ele>243.765625</ele>
        <time>2019-09-15T08:29:52Z</time>
      </trkpt>
      <trkpt lat="43.23263" lon="6.03115">
        <ele>243.82421875</ele>
        <time>2019-09-15T08:29:53Z</time>
      </trkpt>
      <trkpt lat="43.23264" lon="6.03113">
        <ele>243.91015625</ele>
        <time>2019-09-15T08:29:54Z</time>
      </trkpt>
      <trkpt lat="43.23265" lon="6.03111">
        <ele>244.0078125</ele>
        <time>2019-09-15T08:29:55Z</time>
      </trkpt>
      <trkpt lat="43.23266" lon="6.03109">
        <ele>244.14453125</ele>
        <time>2019-09-15T08:29:56Z</time>
      </trkpt>
      <trkpt lat="43.23267" lon="6.03107">
        <ele>244.2578125</ele>
        <time>2019-09-15T08:29:57Z</time>
      </trkpt>
      <trkpt lat="43.23277" lon="6.03088">
        <ele>244.28515625</ele>
        <time>2019-09-15T08:30:03Z</time>
      </trkpt>
      <trkpt lat="43.23283" lon="6.0307">
        <ele>243.03515625</ele>
        <time>2019-09-15T08:30:06Z</time>
      </trkpt>
      <trkpt lat="43.23286" lon="6.03063">
        <ele>242.4375</ele>
        <time>2019-09-15T08:30:07Z</time>
      </trkpt>
      <trkpt lat="43.23289" lon="6.03056">
        <ele>242.109375</ele>
        <time>2019-09-15T08:30:08Z</time>
      </trkpt>
      <trkpt lat="43.23295" lon="6.03052">
        <ele>242.15234375</ele>
        <time>2019-09-15T08:30:09Z</time>
      </trkpt>
      <trkpt lat="43.23301" lon="6.03047">
        <ele>242.1875</ele>
        <time>2019-09-15T08:30:10Z</time>
      </trkpt>
      <trkpt lat="43.23307" lon="6.03043">
        <ele>241.88671875</ele>
        <time>2019-09-15T08:30:11Z</time>
      </trkpt>
      <trkpt lat="43.23325" lon="6.03027">
        <ele>240.4765625</ele>
        <time>2019-09-15T08:30:14Z</time>
      </trkpt>
      <trkpt lat="43.23351" lon="6.03009">
        <ele>239.23828125</ele>
        <time>2019-09-15T08:30:18Z</time>
      </trkpt>
      <trkpt lat="43.23373" lon="6.02993">
        <ele>238.375</ele>
        <time>2019-09-15T08:30:23Z</time>
      </trkpt>
      <trkpt lat="43.23375" lon="6.02988">
        <ele>238.328125</ele>
        <time>2019-09-15T08:30:24Z</time>
      </trkpt>
      <trkpt lat="43.23377" lon="6.02982">
        <ele>238.09375</ele>
        <time>2019-09-15T08:30:25Z</time>
      </trkpt>
      <trkpt lat="43.23379" lon="6.02976">
        <ele>237.6015625</ele>
        <time>2019-09-15T08:30:26Z</time>
      </trkpt>
      <trkpt lat="43.2338" lon="6.0297">
        <ele>237.0390625</ele>
        <time>2019-09-15T08:30:27Z</time>
      </trkpt>
      <trkpt lat="43.2338" lon="6.02965">
        <ele>236.60546875</ele>
        <time>2019-09-15T08:30:28Z</time>
      </trkpt>
      <trkpt lat="43.23381" lon="6.02961">
        <ele>236.44140625</ele>
        <time>2019-09-15T08:30:29Z</time>
      </trkpt>
      <trkpt lat="43.23381" lon="6.02958">
        <ele>236.28515625</ele>
        <time>2019-09-15T08:30:30Z</time>
      </trkpt>
      <trkpt lat="43.23379" lon="6.0295">
        <ele>235.609375</ele>
        <time>2019-09-15T08:30:34Z</time>
      </trkpt>
      <trkpt lat="43.23379" lon="6.02949">
        <ele>235.42578125</ele>
        <time>2019-09-15T08:30:35Z</time>
      </trkpt>
      <trkpt lat="43.23378" lon="6.02947">
        <ele>235.18359375</ele>
        <time>2019-09-15T08:30:36Z</time>
      </trkpt>
      <trkpt lat="43.23376" lon="6.02946">
        <ele>234.92578125</ele>
        <time>2019-09-15T08:30:37Z</time>
      </trkpt>
      <trkpt lat="43.23375" lon="6.02946">
        <ele>234.6484375</ele>
        <time>2019-09-15T08:30:38Z</time>
      </trkpt>
      <trkpt lat="43.23358" lon="6.02931">
        <ele>232.72265625</ele>
        <time>2019-09-15T08:30:51Z</time>
      </trkpt>
      <trkpt lat="43.23347" lon="6.02915">
        <ele>233.2734375</ele>
        <time>2019-09-15T08:31:04Z</time>
      </trkpt>
      <trkpt lat="43.2334" lon="6.02905">
        <ele>233.55078125</ele>
        <time>2019-09-15T08:31:13Z</time>
      </trkpt>
      <trkpt lat="43.23338" lon="6.02903">
        <ele>233.5234375</ele>
        <time>2019-09-15T08:31:15Z</time>
      </trkpt>
      <trkpt lat="43.23331" lon="6.02885">
        <ele>234.5234375</ele>
        <time>2019-09-15T08:31:28Z</time>
      </trkpt>
      <trkpt lat="43.23331" lon="6.02883">
        <ele>234.73046875</ele>
        <time>2019-09-15T08:31:29Z</time>
      </trkpt>
      <trkpt lat="43.23332" lon="6.02879">
        <ele>235.15625</ele>
        <time>2019-09-15T08:31:31Z</time>
      </trkpt>
      <trkpt lat="43.23331" lon="6.02876">
        <ele>235.375</ele>
        <time>2019-09-15T08:31:46Z</time>
      </trkpt>
      <trkpt lat="43.23334" lon="6.02871">
        <ele>236.03515625</ele>
        <time>2019-09-15T08:32:08Z</time>
      </trkpt>
      <trkpt lat="43.23337" lon="6.02868">
        <ele>236.48828125</ele>
        <time>2019-09-15T08:32:36Z</time>
      </trkpt>
      <trkpt lat="43.23334" lon="6.02871">
        <ele>236.0390625</ele>
        <time>2019-09-15T08:33:20Z</time>
      </trkpt>
      <trkpt lat="43.23334" lon="6.02866">
        <ele>236.54296875</ele>
        <time>2019-09-15T08:33:55Z</time>
      </trkpt>
      <trkpt lat="43.23332" lon="6.0286">
        <ele>237.06640625</ele>
        <time>2019-09-15T08:34:32Z</time>
      </trkpt>
      <trkpt lat="43.23331" lon="6.02864">
        <ele>236.53515625</ele>
        <time>2019-09-15T08:35:02Z</time>
      </trkpt>
      <trkpt lat="43.23331" lon="6.0287">
        <ele>236.02734375</ele>
        <time>2019-09-15T08:35:47Z</time>
      </trkpt>
      <trkpt lat="43.23332" lon="6.0286">
        <ele>237.10546875</ele>
        <time>2019-09-15T08:36:29Z</time>
      </trkpt>
      <trkpt lat="43.23332" lon="6.02865">
        <ele>236.57421875</ele>
        <time>2019-09-15T08:37:14Z</time>
      </trkpt>
      <trkpt lat="43.23336" lon="6.02863">
        <ele>236.96484375</ele>
        <time>2019-09-15T08:37:58Z</time>
      </trkpt>
      <trkpt lat="43.2333" lon="6.02863">
        <ele>236.61328125</ele>
        <time>2019-09-15T08:38:45Z</time>
      </trkpt>
      <trkpt lat="43.23332" lon="6.02866">
        <ele>236.453125</ele>
        <time>2019-09-15T08:39:35Z</time>
      </trkpt>
      <trkpt lat="43.23332" lon="6.02866">
        <ele>236.4296875</ele>
        <time>2019-09-15T08:40:10Z</time>
      </trkpt>
      <trkpt lat="43.23331" lon="6.02868">
        <ele>236.20703125</ele>
        <time>2019-09-15T08:40:49Z</time>
      </trkpt>
      <trkpt lat="43.2333" lon="6.02861">
        <ele>236.89453125</ele>
        <time>2019-09-15T08:41:33Z</time>
      </trkpt>
      <trkpt lat="43.23329" lon="6.02854">
        <ele>237.21875</ele>
        <time>2019-09-15T08:42:06Z</time>
      </trkpt>
      <trkpt lat="43.23326" lon="6.02854">
        <ele>236.96484375</ele>
        <time>2019-09-15T08:42:39Z</time>
      </trkpt>
      <trkpt lat="43.23328" lon="6.02857">
        <ele>237.08203125</ele>
        <time>2019-09-15T08:43:15Z</time>
      </trkpt>
      <trkpt lat="43.23332" lon="6.02862">
        <ele>236.859375</ele>
        <time>2019-09-15T08:43:44Z</time>
      </trkpt>
      <trkpt lat="43.2333" lon="6.02863">
        <ele>236.62109375</ele>
        <time>2019-09-15T08:44:00Z</time>
      </trkpt>
      <trkpt lat="43.23329" lon="6.02863">
        <ele>236.62109375</ele>
        <time>2019-09-15T08:44:01Z</time>
      </trkpt>
      <trkpt lat="43.2333" lon="6.02862">
        <ele>236.74609375</ele>
        <time>2019-09-15T08:44:26Z</time>
      </trkpt>
      <trkpt lat="43.23328" lon="6.02864">
        <ele>236.390625</ele>
        <time>2019-09-15T08:45:02Z</time>
      </trkpt>
      <trkpt lat="43.2333" lon="6.02866">
        <ele>236.34375</ele>
        <time>2019-09-15T08:45:39Z</time>
      </trkpt>
      <trkpt lat="43.23334" lon="6.02862">
        <ele>236.98828125</ele>
        <time>2019-09-15T08:46:13Z</time>
      </trkpt>
      <trkpt lat="43.23331" lon="6.02861">
        <ele>236.9296875</ele>
        <time>2019-09-15T08:46:49Z</time>
      </trkpt>
      <trkpt lat="43.23329" lon="6.02863">
        <ele>236.62109375</ele>
        <time>2019-09-15T08:47:17Z</time>
      </trkpt>
      <trkpt lat="43.23332" lon="6.02861">
        <ele>236.94921875</ele>
        <time>2019-09-15T08:47:38Z</time>
      </trkpt>
      <trkpt lat="43.23333" lon="6.0286">
        <ele>237.15625</ele>
        <time>2019-09-15T08:47:39Z</time>
      </trkpt>
      <trkpt lat="43.23335" lon="6.02859">
        <ele>237.35546875</ele>
        <time>2019-09-15T08:47:40Z</time>
      </trkpt>
      <trkpt lat="43.23337" lon="6.02858">
        <ele>237.6640625</ele>
        <time>2019-09-15T08:47:41Z</time>
      </trkpt>
      <trkpt lat="43.23341" lon="6.02855">
        <ele>238.25</ele>
        <time>2019-09-15T08:47:42Z</time>
      </trkpt>
      <trkpt lat="43.23344" lon="6.02851">
        <ele>238.125</ele>
        <time>2019-09-15T08:47:43Z</time>
      </trkpt>
      <trkpt lat="43.23348" lon="6.02847">
        <ele>237.875</ele>
        <time>2019-09-15T08:47:44Z</time>
      </trkpt>
      <trkpt lat="43.23357" lon="6.02839">
        <ele>237.83203125</ele>
        <time>2019-09-15T08:47:46Z</time>
      </trkpt>
      <trkpt lat="43.23362" lon="6.02835">
        <ele>237.6953125</ele>
        <time>2019-09-15T08:47:47Z</time>
      </trkpt>
      <trkpt lat="43.23366" lon="6.0283">
        <ele>237.50390625</ele>
        <time>2019-09-15T08:47:48Z</time>
      </trkpt>
      <trkpt lat="43.23371" lon="6.02826">
        <ele>237.578125</ele>
        <time>2019-09-15T08:47:49Z</time>
      </trkpt>
      <trkpt lat="43.23376" lon="6.02821">
        <ele>237.7890625</ele>
        <time>2019-09-15T08:47:50Z</time>
      </trkpt>
      <trkpt lat="43.23381" lon="6.02816">
        <ele>237.7734375</ele>
        <time>2019-09-15T08:47:51Z</time>
      </trkpt>
      <trkpt lat="43.23386" lon="6.02811">
        <ele>237.69140625</ele>
        <time>2019-09-15T08:47:52Z</time>
      </trkpt>
      <trkpt lat="43.23402" lon="6.02793">
        <ele>237.93359375</ele>
        <time>2019-09-15T08:47:55Z</time>
      </trkpt>
      <trkpt lat="43.23429" lon="6.02763">
        <ele>237.5625</ele>
        <time>2019-09-15T08:48:00Z</time>
      </trkpt>
      <trkpt lat="43.23433" lon="6.02757">
        <ele>237.484375</ele>
        <time>2019-09-15T08:48:01Z</time>
      </trkpt>
      <trkpt lat="43.23435" lon="6.02751">
        <ele>237.03125</ele>
        <time>2019-09-15T08:48:02Z</time>
      </trkpt>
      <trkpt lat="43.23435" lon="6.02746">
        <ele>236.25390625</ele>
        <time>2019-09-15T08:48:03Z</time>
      </trkpt>
      <trkpt lat="43.23434" lon="6.02741">
        <ele>235.5625</ele>
        <time>2019-09-15T08:48:04Z</time>
      </trkpt>
      <trkpt lat="43.23432" lon="6.02736">
        <ele>235.01171875</ele>
        <time>2019-09-15T08:48:05Z</time>
      </trkpt>
      <trkpt lat="43.23403" lon="6.02729">
        <ele>232.51953125</ele>
        <time>2019-09-15T08:48:14Z</time>
      </trkpt>
      <trkpt lat="43.23378" lon="6.02733">
        <ele>231.3984375</ele>
        <time>2019-09-15T08:48:23Z</time>
      </trkpt>
      <trkpt lat="43.23373" lon="6.02732">
        <ele>231.40234375</ele>
        <time>2019-09-15T08:48:25Z</time>
      </trkpt>
      <trkpt lat="43.23355" lon="6.02725">
        <ele>232.046875</ele>
        <time>2019-09-15T08:48:33Z</time>
      </trkpt>
      <trkpt lat="43.23332" lon="6.02711">
        <ele>234.49609375</ele>
        <time>2019-09-15T08:48:46Z</time>
      </trkpt>
      <trkpt lat="43.23314" lon="6.027">
        <ele>237.88671875</ele>
        <time>2019-09-15T08:48:58Z</time>
      </trkpt>
      <trkpt lat="43.23303" lon="6.02692">
        <ele>240.3515625</ele>
        <time>2019-09-15T08:49:10Z</time>
      </trkpt>
      <trkpt lat="43.23289" lon="6.02686">
        <ele>242.37890625</ele>
        <time>2019-09-15T08:49:23Z</time>
      </trkpt>
      <trkpt lat="43.23277" lon="6.02679">
        <ele>244.3984375</ele>
        <time>2019-09-15T08:49:32Z</time>
      </trkpt>
      <trkpt lat="43.23276" lon="6.02678">
        <ele>244.734375</ele>
        <time>2019-09-15T08:49:33Z</time>
      </trkpt>
      <trkpt lat="43.23274" lon="6.02676">
        <ele>245.046875</ele>
        <time>2019-09-15T08:49:34Z</time>
      </trkpt>
      <trkpt lat="43.23262" lon="6.02665">
        <ele>247.8515625</ele>
        <time>2019-09-15T08:49:47Z</time>
      </trkpt>
      <trkpt lat="43.23252" lon="6.0266">
        <ele>249.203125</ele>
        <time>2019-09-15T08:49:53Z</time>
      </trkpt>
      <trkpt lat="43.2325" lon="6.02659">
        <ele>249.41796875</ele>
        <time>2019-09-15T08:49:54Z</time>
      </trkpt>
      <trkpt lat="43.23248" lon="6.02657">
        <ele>249.66015625</ele>
        <time>2019-09-15T08:49:55Z</time>
      </trkpt>
      <trkpt lat="43.23234" lon="6.02641">
        <ele>252.64453125</ele>
        <time>2019-09-15T08:50:06Z</time>
      </trkpt>
      <trkpt lat="43.23229" lon="6.02629">
        <ele>254.84375</ele>
        <time>2019-09-15T08:50:13Z</time>
      </trkpt>
      <trkpt lat="43.23229" lon="6.02627">
        <ele>255.171875</ele>
        <time>2019-09-15T08:50:14Z</time>
      </trkpt>
      <trkpt lat="43.23224" lon="6.02611">
        <ele>257.80078125</ele>
        <time>2019-09-15T08:50:21Z</time>
      </trkpt>
      <trkpt lat="43.23222" lon="6.02609">
        <ele>257.92578125</ele>
        <time>2019-09-15T08:50:22Z</time>
      </trkpt>
      <trkpt lat="43.23221" lon="6.02608">
        <ele>258.09765625</ele>
        <time>2019-09-15T08:50:23Z</time>
      </trkpt>
      <trkpt lat="43.23215" lon="6.0258">
        <ele>262.16015625</ele>
        <time>2019-09-15T08:50:36Z</time>
      </trkpt>
      <trkpt lat="43.23211" lon="6.02562">
        <ele>264.14453125</ele>
        <time>2019-09-15T08:50:47Z</time>
      </trkpt>
      <trkpt lat="43.2321" lon="6.0256">
        <ele>264.34375</ele>
        <time>2019-09-15T08:50:48Z</time>
      </trkpt>
      <trkpt lat="43.23208" lon="6.02553">
        <ele>264.7890625</ele>
        <time>2019-09-15T08:51:04Z</time>
      </trkpt>
      <trkpt lat="43.23206" lon="6.02548">
        <ele>265.1484375</ele>
        <time>2019-09-15T08:51:38Z</time>
      </trkpt>
      <trkpt lat="43.23207" lon="6.0254">
        <ele>266.37890625</ele>
        <time>2019-09-15T08:52:11Z</time>
      </trkpt>
      <trkpt lat="43.2321" lon="6.02512">
        <ele>269.88671875</ele>
        <time>2019-09-15T08:52:24Z</time>
      </trkpt>
      <trkpt lat="43.23217" lon="6.02467">
        <ele>272.125</ele>
        <time>2019-09-15T08:52:42Z</time>
      </trkpt>
      <trkpt lat="43.23226" lon="6.02429">
        <ele>272.53515625</ele>
        <time>2019-09-15T08:52:53Z</time>
      </trkpt>
      <trkpt lat="43.23234" lon="6.02405">
        <ele>272.953125</ele>
        <time>2019-09-15T08:52:58Z</time>
      </trkpt>
      <trkpt lat="43.23244" lon="6.0238">
        <ele>273.140625</ele>
        <time>2019-09-15T08:53:02Z</time>
      </trkpt>
      <trkpt lat="43.23246" lon="6.02373">
        <ele>272.921875</ele>
        <time>2019-09-15T08:53:03Z</time>
      </trkpt>
      <trkpt lat="43.23256" lon="6.02349">
        <ele>272.54296875</ele>
        <time>2019-09-15T08:53:06Z</time>
      </trkpt>
      <trkpt lat="43.23272" lon="6.02317">
        <ele>272.1875</ele>
        <time>2019-09-15T08:53:10Z</time>
      </trkpt>
      <trkpt lat="43.23275" lon="6.02308">
        <ele>271.6953125</ele>
        <time>2019-09-15T08:53:11Z</time>
      </trkpt>
      <trkpt lat="43.23279" lon="6.023">
        <ele>271.19140625</ele>
        <time>2019-09-15T08:53:12Z</time>
      </trkpt>
      <trkpt lat="43.23282" lon="6.02292">
        <ele>270.61328125</ele>
        <time>2019-09-15T08:53:13Z</time>
      </trkpt>
      <trkpt lat="43.23286" lon="6.02285">
        <ele>270.203125</ele>
        <time>2019-09-15T08:53:14Z</time>
      </trkpt>
      <trkpt lat="43.2329" lon="6.02279">
        <ele>269.89453125</ele>
        <time>2019-09-15T08:53:15Z</time>
      </trkpt>
      <trkpt lat="43.23295" lon="6.02271">
        <ele>269.5078125</ele>
        <time>2019-09-15T08:53:16Z</time>
      </trkpt>
      <trkpt lat="43.23298" lon="6.02263">
        <ele>268.9453125</ele>
        <time>2019-09-15T08:53:17Z</time>
      </trkpt>
      <trkpt lat="43.23305" lon="6.02247">
        <ele>267.4453125</ele>
        <time>2019-09-15T08:53:19Z</time>
      </trkpt>
      <trkpt lat="43.23309" lon="6.0224">
        <ele>267.0234375</ele>
        <time>2019-09-15T08:53:20Z</time>
      </trkpt>
      <trkpt lat="43.23319" lon="6.02229">
        <ele>266.4375</ele>
        <time>2019-09-15T08:53:22Z</time>
      </trkpt>
      <trkpt lat="43.23328" lon="6.02216">
        <ele>265.19140625</ele>
        <time>2019-09-15T08:53:24Z</time>
      </trkpt>
      <trkpt lat="43.23333" lon="6.02211">
        <ele>265.078125</ele>
        <time>2019-09-15T08:53:25Z</time>
      </trkpt>
      <trkpt lat="43.23336" lon="6.02209">
        <ele>265.08984375</ele>
        <time>2019-09-15T08:53:26Z</time>
      </trkpt>
      <trkpt lat="43.23338" lon="6.02206">
        <ele>264.86328125</ele>
        <time>2019-09-15T08:53:35Z</time>
      </trkpt>
      <trkpt lat="43.23347" lon="6.02193">
        <ele>263.25</ele>
        <time>2019-09-15T08:53:53Z</time>
      </trkpt>
      <trkpt lat="43.23354" lon="6.02178">
        <ele>260.67578125</ele>
        <time>2019-09-15T08:53:56Z</time>
      </trkpt>
      <trkpt lat="43.23357" lon="6.02172">
        <ele>259.82421875</ele>
        <time>2019-09-15T08:53:57Z</time>
      </trkpt>
      <trkpt lat="43.23372" lon="6.0215">
        <ele>255.8828125</ele>
        <time>2019-09-15T08:54:03Z</time>
      </trkpt>
      <trkpt lat="43.23374" lon="6.02145">
        <ele>254.8984375</ele>
        <time>2019-09-15T08:54:04Z</time>
      </trkpt>
      <trkpt lat="43.23377" lon="6.0214">
        <ele>254.03515625</ele>
        <time>2019-09-15T08:54:05Z</time>
      </trkpt>
      <trkpt lat="43.23381" lon="6.02136">
        <ele>253.33984375</ele>
        <time>2019-09-15T08:54:06Z</time>
      </trkpt>
      <trkpt lat="43.23385" lon="6.02132">
        <ele>252.9140625</ele>
        <time>2019-09-15T08:54:07Z</time>
      </trkpt>
      <trkpt lat="43.23391" lon="6.02128">
        <ele>252.671875</ele>
        <time>2019-09-15T08:54:08Z</time>
      </trkpt>
      <trkpt lat="43.23408" lon="6.02115">
        <ele>251.8828125</ele>
        <time>2019-09-15T08:54:11Z</time>
      </trkpt>
      <trkpt lat="43.23419" lon="6.02104">
        <ele>250.4921875</ele>
        <time>2019-09-15T08:54:13Z</time>
      </trkpt>
      <trkpt lat="43.23431" lon="6.02093">
        <ele>250.19140625</ele>
        <time>2019-09-15T08:54:15Z</time>
      </trkpt>
      <trkpt lat="43.2345" lon="6.02073">
        <ele>249.375</ele>
        <time>2019-09-15T08:54:19Z</time>
      </trkpt>
      <trkpt lat="43.23453" lon="6.0207">
        <ele>249.41015625</ele>
        <time>2019-09-15T08:54:20Z</time>
      </trkpt>
      <trkpt lat="43.23455" lon="6.02067">
        <ele>249.28125</ele>
        <time>2019-09-15T08:54:21Z</time>
      </trkpt>
      <trkpt lat="43.23456" lon="6.02064">
        <ele>248.88671875</ele>
        <time>2019-09-15T08:54:22Z</time>
      </trkpt>
      <trkpt lat="43.23456" lon="6.02062">
        <ele>248.32421875</ele>
        <time>2019-09-15T08:54:23Z</time>
      </trkpt>
      <trkpt lat="43.23455" lon="6.0206">
        <ele>247.74609375</ele>
        <time>2019-09-15T08:54:24Z</time>
      </trkpt>
      <trkpt lat="43.23453" lon="6.02057">
        <ele>247.0546875</ele>
        <time>2019-09-15T08:54:25Z</time>
      </trkpt>
      <trkpt lat="43.23443" lon="6.02049">
        <ele>244.28125</ele>
        <time>2019-09-15T08:54:30Z</time>
      </trkpt>
      <trkpt lat="43.23441" lon="6.02048">
        <ele>244.0390625</ele>
        <time>2019-09-15T08:54:31Z</time>
      </trkpt>
      <trkpt lat="43.23439" lon="6.02046">
        <ele>243.76953125</ele>
        <time>2019-09-15T08:54:32Z</time>
      </trkpt>
      <trkpt lat="43.23436" lon="6.02044">
        <ele>243.5078125</ele>
        <time>2019-09-15T08:54:33Z</time>
      </trkpt>
      <trkpt lat="43.23434" lon="6.02042">
        <ele>243.24609375</ele>
        <time>2019-09-15T08:54:34Z</time>
      </trkpt>
      <trkpt lat="43.23432" lon="6.02041">
        <ele>243.01953125</ele>
        <time>2019-09-15T08:54:35Z</time>
      </trkpt>
      <trkpt lat="43.23406" lon="6.02029">
        <ele>241.72265625</ele>
        <time>2019-09-15T08:54:50Z</time>
      </trkpt>
      <trkpt lat="43.23388" lon="6.02021">
        <ele>242.15234375</ele>
        <time>2019-09-15T08:55:02Z</time>
      </trkpt>
      <trkpt lat="43.23366" lon="6.02011">
        <ele>243.625</ele>
        <time>2019-09-15T08:55:18Z</time>
      </trkpt>
      <trkpt lat="43.23357" lon="6.02003">
        <ele>244.49609375</ele>
        <time>2019-09-15T08:55:26Z</time>
      </trkpt>
      <trkpt lat="43.23344" lon="6.01979">
        <ele>248.9765625</ele>
        <time>2019-09-15T08:55:41Z</time>
      </trkpt>
      <trkpt lat="43.23338" lon="6.01966">
        <ele>252.14453125</ele>
        <time>2019-09-15T08:55:49Z</time>
      </trkpt>
      <trkpt lat="43.23337" lon="6.01964">
        <ele>252.34375</ele>
        <time>2019-09-15T08:55:50Z</time>
      </trkpt>
      <trkpt lat="43.23336" lon="6.01963">
        <ele>252.57421875</ele>
        <time>2019-09-15T08:55:51Z</time>
      </trkpt>
      <trkpt lat="43.23335" lon="6.01961">
        <ele>252.81640625</ele>
        <time>2019-09-15T08:55:52Z</time>
      </trkpt>
      <trkpt lat="43.23335" lon="6.0196">
        <ele>252.98828125</ele>
        <time>2019-09-15T08:55:53Z</time>
      </trkpt>
      <trkpt lat="43.23334" lon="6.01958">
        <ele>253.125</ele>
        <time>2019-09-15T08:55:54Z</time>
      </trkpt>
      <trkpt lat="43.23333" lon="6.01957">
        <ele>253.29296875</ele>
        <time>2019-09-15T08:55:55Z</time>
      </trkpt>
      <trkpt lat="43.23332" lon="6.01955">
        <ele>253.5390625</ele>
        <time>2019-09-15T08:55:56Z</time>
      </trkpt>
      <trkpt lat="43.23323" lon="6.01935">
        <ele>256.53125</ele>
        <time>2019-09-15T08:56:10Z</time>
      </trkpt>
      <trkpt lat="43.23312" lon="6.01913">
        <ele>259.87109375</ele>
        <time>2019-09-15T08:56:26Z</time>
      </trkpt>
      <trkpt lat="43.23308" lon="6.01907">
        <ele>260.06640625</ele>
        <time>2019-09-15T08:56:44Z</time>
      </trkpt>
      <trkpt lat="43.23306" lon="6.01907">
        <ele>259.71875</ele>
        <time>2019-09-15T08:57:20Z</time>
      </trkpt>
      <trkpt lat="43.23306" lon="6.01902">
        <ele>260.3125</ele>
        <time>2019-09-15T08:57:23Z</time>
      </trkpt>
      <trkpt lat="43.23306" lon="6.01901">
        <ele>260.6171875</ele>
        <time>2019-09-15T08:57:24Z</time>
      </trkpt>
      <trkpt lat="43.23306" lon="6.01882">
        <ele>263.40234375</ele>
        <time>2019-09-15T08:57:35Z</time>
      </trkpt>
      <trkpt lat="43.23306" lon="6.0188">
        <ele>263.62890625</ele>
        <time>2019-09-15T08:57:36Z</time>
      </trkpt>
      <trkpt lat="43.23305" lon="6.01873">
        <ele>264.58203125</ele>
        <time>2019-09-15T08:57:40Z</time>
      </trkpt>
      <trkpt lat="43.23305" lon="6.01871">
        <ele>264.86328125</ele>
        <time>2019-09-15T08:57:41Z</time>
      </trkpt>
      <trkpt lat="43.23305" lon="6.01869">
        <ele>265.13671875</ele>
        <time>2019-09-15T08:57:42Z</time>
      </trkpt>
      <trkpt lat="43.23305" lon="6.01867">
        <ele>265.38671875</ele>
        <time>2019-09-15T08:57:43Z</time>
      </trkpt>
      <trkpt lat="43.23305" lon="6.01865">
        <ele>265.66796875</ele>
        <time>2019-09-15T08:57:44Z</time>
      </trkpt>
      <trkpt lat="43.23305" lon="6.01863">
        <ele>265.91015625</ele>
        <time>2019-09-15T08:57:45Z</time>
      </trkpt>
      <trkpt lat="43.23305" lon="6.01862">
        <ele>266.12890625</ele>
        <time>2019-09-15T08:57:46Z</time>
      </trkpt>
      <trkpt lat="43.23304" lon="6.01838">
        <ele>268.421875</ele>
        <time>2019-09-15T08:58:01Z</time>
      </trkpt>
      <trkpt lat="43.23305" lon="6.01836">
        <ele>268.79296875</ele>
        <time>2019-09-15T08:58:17Z</time>
      </trkpt>
      <trkpt lat="43.23307" lon="6.01835">
        <ele>269.07421875</ele>
        <time>2019-09-15T08:58:33Z</time>
      </trkpt>
      <trkpt lat="43.23308" lon="6.01836">
        <ele>269.1640625</ele>
        <time>2019-09-15T08:58:34Z</time>
      </trkpt>
      <trkpt lat="43.23309" lon="6.01838">
        <ele>269.1328125</ele>
        <time>2019-09-15T08:58:35Z</time>
      </trkpt>
      <trkpt lat="43.2331" lon="6.0184">
        <ele>269.08203125</ele>
        <time>2019-09-15T08:58:36Z</time>
      </trkpt>
      <trkpt lat="43.23312" lon="6.01843">
        <ele>269.16796875</ele>
        <time>2019-09-15T08:58:37Z</time>
      </trkpt>
      <trkpt lat="43.23314" lon="6.01844">
        <ele>269.33984375</ele>
        <time>2019-09-15T08:58:38Z</time>
      </trkpt>
      <trkpt lat="43.23316" lon="6.01846">
        <ele>269.49609375</ele>
        <time>2019-09-15T08:58:39Z</time>
      </trkpt>
      <trkpt lat="43.23336" lon="6.0186">
        <ele>271.109375</ele>
        <time>2019-09-15T08:58:53Z</time>
      </trkpt>
      <trkpt lat="43.23338" lon="6.01861">
        <ele>271.18359375</ele>
        <time>2019-09-15T08:58:54Z</time>
      </trkpt>
      <trkpt lat="43.23356" lon="6.01873">
        <ele>270.8203125</ele>
        <time>2019-09-15T08:59:06Z</time>
      </trkpt>
      <trkpt lat="43.23371" lon="6.01882">
        <ele>270.32421875</ele>
        <time>2019-09-15T08:59:17Z</time>
      </trkpt>
      <trkpt lat="43.23388" lon="6.01889">
        <ele>269.54296875</ele>
        <time>2019-09-15T08:59:29Z</time>
      </trkpt>
      <trkpt lat="43.23406" lon="6.01898">
        <ele>266.8671875</ele>
        <time>2019-09-15T08:59:41Z</time>
      </trkpt>
      <trkpt lat="43.23407" lon="6.01898">
        <ele>266.76171875</ele>
        <time>2019-09-15T08:59:42Z</time>
      </trkpt>
      <trkpt lat="43.23409" lon="6.01898">
        <ele>266.640625</ele>
        <time>2019-09-15T08:59:43Z</time>
      </trkpt>
      <trkpt lat="43.23438" lon="6.01896">
        <ele>266.25390625</ele>
        <time>2019-09-15T08:59:55Z</time>
      </trkpt>
      <trkpt lat="43.23479" lon="6.0189">
        <ele>269.13671875</ele>
        <time>2019-09-15T09:00:08Z</time>
      </trkpt>
      <trkpt lat="43.23511" lon="6.01899">
        <ele>271.1015625</ele>
        <time>2019-09-15T09:00:18Z</time>
      </trkpt>
      <trkpt lat="43.23539" lon="6.01906">
        <ele>274.78125</ele>
        <time>2019-09-15T09:00:28Z</time>
      </trkpt>
      <trkpt lat="43.23572" lon="6.01902">
        <ele>279.375</ele>
        <time>2019-09-15T09:00:41Z</time>
      </trkpt>
      <trkpt lat="43.23592" lon="6.01905">
        <ele>282.8203125</ele>
        <time>2019-09-15T09:00:55Z</time>
      </trkpt>
      <trkpt lat="43.23596" lon="6.01905">
        <ele>283.68359375</ele>
        <time>2019-09-15T09:00:58Z</time>
      </trkpt>
      <trkpt lat="43.236" lon="6.01907">
        <ele>284.7421875</ele>
        <time>2019-09-15T09:01:02Z</time>
      </trkpt>
      <trkpt lat="43.23602" lon="6.01908">
        <ele>285.0625</ele>
        <time>2019-09-15T09:01:03Z</time>
      </trkpt>
      <trkpt lat="43.23622" lon="6.01921">
        <ele>289.14453125</ele>
        <time>2019-09-15T09:01:18Z</time>
      </trkpt>
      <trkpt lat="43.2363" lon="6.01925">
        <ele>290.578125</ele>
        <time>2019-09-15T09:01:25Z</time>
      </trkpt>
      <trkpt lat="43.23639" lon="6.01931">
        <ele>292.1953125</ele>
        <time>2019-09-15T09:01:32Z</time>
      </trkpt>
      <trkpt lat="43.2364" lon="6.01932">
        <ele>292.41015625</ele>
        <time>2019-09-15T09:01:33Z</time>
      </trkpt>
      <trkpt lat="43.23642" lon="6.01933">
        <ele>292.71875</ele>
        <time>2019-09-15T09:01:34Z</time>
      </trkpt>
      <trkpt lat="43.23643" lon="6.01934">
        <ele>292.99609375</ele>
        <time>2019-09-15T09:01:35Z</time>
      </trkpt>
      <trkpt lat="43.2366" lon="6.01948">
        <ele>295.7265625</ele>
        <time>2019-09-15T09:01:48Z</time>
      </trkpt>
      <trkpt lat="43.2368" lon="6.01959">
        <ele>298.75</ele>
        <time>2019-09-15T09:02:02Z</time>
      </trkpt>
      <trkpt lat="43.23697" lon="6.01967">
        <ele>301.53515625</ele>
        <time>2019-09-15T09:02:13Z</time>
      </trkpt>
      <trkpt lat="43.23701" lon="6.0197">
        <ele>302.12890625</ele>
        <time>2019-09-15T09:02:17Z</time>
      </trkpt>
      <trkpt lat="43.23713" lon="6.01974">
        <ele>304.23828125</ele>
        <time>2019-09-15T09:02:26Z</time>
      </trkpt>
      <trkpt lat="43.23714" lon="6.01975">
        <ele>304.51953125</ele>
        <time>2019-09-15T09:02:27Z</time>
      </trkpt>
      <trkpt lat="43.23725" lon="6.0198">
        <ele>306.60546875</ele>
        <time>2019-09-15T09:02:38Z</time>
      </trkpt>
      <trkpt lat="43.2373" lon="6.01984">
        <ele>307.46875</ele>
        <time>2019-09-15T09:02:51Z</time>
      </trkpt>
      <trkpt lat="43.2373" lon="6.01985">
        <ele>307.50390625</ele>
        <time>2019-09-15T09:03:06Z</time>
      </trkpt>
      <trkpt lat="43.23731" lon="6.01985">
        <ele>307.55078125</ele>
        <time>2019-09-15T09:03:26Z</time>
      </trkpt>
      <trkpt lat="43.23732" lon="6.01988">
        <ele>307.7890625</ele>
        <time>2019-09-15T09:03:40Z</time>
      </trkpt>
      <trkpt lat="43.23734" lon="6.01991">
        <ele>308.265625</ele>
        <time>2019-09-15T09:04:09Z</time>
      </trkpt>
      <trkpt lat="43.23733" lon="6.0199">
        <ele>307.9609375</ele>
        <time>2019-09-15T09:04:37Z</time>
      </trkpt>
      <trkpt lat="43.23734" lon="6.01988">
        <ele>308.09765625</ele>
        <time>2019-09-15T09:04:51Z</time>
      </trkpt>
      <trkpt lat="43.23735" lon="6.01985">
        <ele>308.1875</ele>
        <time>2019-09-15T09:05:16Z</time>
      </trkpt>
      <trkpt lat="43.23731" lon="6.01988">
        <ele>307.60546875</ele>
        <time>2019-09-15T09:05:55Z</time>
      </trkpt>
      <trkpt lat="43.23731" lon="6.01987">
        <ele>307.59375</ele>
        <time>2019-09-15T09:06:24Z</time>
      </trkpt>
      <trkpt lat="43.23739" lon="6.01977">
        <ele>308.390625</ele>
        <time>2019-09-15T09:06:38Z</time>
      </trkpt>
      <trkpt lat="43.2376" lon="6.01973">
        <ele>310.0078125</ele>
        <time>2019-09-15T09:06:52Z</time>
      </trkpt>
      <trkpt lat="43.23763" lon="6.01975">
        <ele>310.265625</ele>
        <time>2019-09-15T09:07:02Z</time>
      </trkpt>
      <trkpt lat="43.23769" lon="6.01981">
        <ele>311.3984375</ele>
        <time>2019-09-15T09:07:15Z</time>
      </trkpt>
      <trkpt lat="43.2377" lon="6.01982">
        <ele>311.5234375</ele>
        <time>2019-09-15T09:07:16Z</time>
      </trkpt>
      <trkpt lat="43.23771" lon="6.01982">
        <ele>311.61328125</ele>
        <time>2019-09-15T09:07:17Z</time>
      </trkpt>
      <trkpt lat="43.23773" lon="6.01982">
        <ele>311.67578125</ele>
        <time>2019-09-15T09:07:18Z</time>
      </trkpt>
      <trkpt lat="43.23775" lon="6.01982">
        <ele>311.77734375</ele>
        <time>2019-09-15T09:07:19Z</time>
      </trkpt>
      <trkpt lat="43.23776" lon="6.01983">
        <ele>311.95703125</ele>
        <time>2019-09-15T09:07:20Z</time>
      </trkpt>
      <trkpt lat="43.23782" lon="6.01988">
        <ele>313.13671875</ele>
        <time>2019-09-15T09:07:33Z</time>
      </trkpt>
      <trkpt lat="43.23783" lon="6.01989">
        <ele>313.26171875</ele>
        <time>2019-09-15T09:07:34Z</time>
      </trkpt>
      <trkpt lat="43.23785" lon="6.0199">
        <ele>313.51171875</ele>
        <time>2019-09-15T09:07:36Z</time>
      </trkpt>
      <trkpt lat="43.23786" lon="6.01991">
        <ele>313.6484375</ele>
        <time>2019-09-15T09:07:37Z</time>
      </trkpt>
      <trkpt lat="43.23799" lon="6.02004">
        <ele>316.2265625</ele>
        <time>2019-09-15T09:07:49Z</time>
      </trkpt>
      <trkpt lat="43.238" lon="6.02005">
        <ele>316.52734375</ele>
        <time>2019-09-15T09:07:50Z</time>
      </trkpt>
      <trkpt lat="43.23801" lon="6.02006">
        <ele>316.79296875</ele>
        <time>2019-09-15T09:07:51Z</time>
      </trkpt>
      <trkpt lat="43.23811" lon="6.02016">
        <ele>319.6875</ele>
        <time>2019-09-15T09:08:00Z</time>
      </trkpt>
      <trkpt lat="43.23813" lon="6.02017">
        <ele>320.00390625</ele>
        <time>2019-09-15T09:08:01Z</time>
      </trkpt>
      <trkpt lat="43.23814" lon="6.02018">
        <ele>320.34375</ele>
        <time>2019-09-15T09:08:02Z</time>
      </trkpt>
      <trkpt lat="43.23816" lon="6.0202">
        <ele>320.63671875</ele>
        <time>2019-09-15T09:08:03Z</time>
      </trkpt>
      <trkpt lat="43.23818" lon="6.0202">
        <ele>320.859375</ele>
        <time>2019-09-15T09:08:04Z</time>
      </trkpt>
      <trkpt lat="43.23835" lon="6.0203">
        <ele>323.96875</ele>
        <time>2019-09-15T09:08:17Z</time>
      </trkpt>
      <trkpt lat="43.23844" lon="6.02033">
        <ele>325.4375</ele>
        <time>2019-09-15T09:08:24Z</time>
      </trkpt>
      <trkpt lat="43.23845" lon="6.02033">
        <ele>325.51953125</ele>
        <time>2019-09-15T09:08:25Z</time>
      </trkpt>
      <trkpt lat="43.23847" lon="6.02034">
        <ele>325.765625</ele>
        <time>2019-09-15T09:08:26Z</time>
      </trkpt>
      <trkpt lat="43.23864" lon="6.02042">
        <ele>328.6875</ele>
        <time>2019-09-15T09:08:40Z</time>
      </trkpt>
      <trkpt lat="43.23875" lon="6.02049">
        <ele>329.25</ele>
        <time>2019-09-15T09:08:53Z</time>
      </trkpt>
      <trkpt lat="43.2388" lon="6.02052">
        <ele>329.2109375</ele>
        <time>2019-09-15T09:08:56Z</time>
      </trkpt>
      <trkpt lat="43.23882" lon="6.02052">
        <ele>329.15625</ele>
        <time>2019-09-15T09:08:57Z</time>
      </trkpt>
      <trkpt lat="43.23884" lon="6.02053">
        <ele>329.09765625</ele>
        <time>2019-09-15T09:08:58Z</time>
      </trkpt>
      <trkpt lat="43.23886" lon="6.02054">
        <ele>328.96875</ele>
        <time>2019-09-15T09:08:59Z</time>
      </trkpt>
      <trkpt lat="43.23887" lon="6.02054">
        <ele>328.8359375</ele>
        <time>2019-09-15T09:09:00Z</time>
      </trkpt>
      <trkpt lat="43.23906" lon="6.02064">
        <ele>327.375</ele>
        <time>2019-09-15T09:09:12Z</time>
      </trkpt>
      <trkpt lat="43.23929" lon="6.02084">
        <ele>326.97265625</ele>
        <time>2019-09-15T09:09:26Z</time>
      </trkpt>
      <trkpt lat="43.23952" lon="6.02116">
        <ele>324.08203125</ele>
        <time>2019-09-15T09:09:38Z</time>
      </trkpt>
      <trkpt lat="43.23957" lon="6.02123">
        <ele>323.30078125</ele>
        <time>2019-09-15T09:09:40Z</time>
      </trkpt>
      <trkpt lat="43.23962" lon="6.02129">
        <ele>322.6015625</ele>
        <time>2019-09-15T09:09:42Z</time>
      </trkpt>
      <trkpt lat="43.23977" lon="6.02164">
        <ele>318.3671875</ele>
        <time>2019-09-15T09:09:51Z</time>
      </trkpt>
      <trkpt lat="43.23983" lon="6.02167">
        <ele>317.7734375</ele>
        <time>2019-09-15T09:09:53Z</time>
      </trkpt>
      <trkpt lat="43.23986" lon="6.0217">
        <ele>317.39453125</ele>
        <time>2019-09-15T09:09:54Z</time>
      </trkpt>
      <trkpt lat="43.2399" lon="6.02173">
        <ele>317.03125</ele>
        <time>2019-09-15T09:09:55Z</time>
      </trkpt>
      <trkpt lat="43.23994" lon="6.02175">
        <ele>316.86328125</ele>
        <time>2019-09-15T09:09:56Z</time>
      </trkpt>
      <trkpt lat="43.23997" lon="6.02177">
        <ele>316.8515625</ele>
        <time>2019-09-15T09:09:57Z</time>
      </trkpt>
      <trkpt lat="43.24" lon="6.02177">
        <ele>316.9296875</ele>
        <time>2019-09-15T09:09:58Z</time>
      </trkpt>
      <trkpt lat="43.24005" lon="6.02175">
        <ele>317.5078125</ele>
        <time>2019-09-15T09:10:06Z</time>
      </trkpt>
      <trkpt lat="43.24008" lon="6.02178">
        <ele>317.6640625</ele>
        <time>2019-09-15T09:10:23Z</time>
      </trkpt>
      <trkpt lat="43.24009" lon="6.02177">
        <ele>317.87109375</ele>
        <time>2019-09-15T09:10:45Z</time>
      </trkpt>
      <trkpt lat="43.24009" lon="6.02175">
        <ele>318.1015625</ele>
        <time>2019-09-15T09:11:15Z</time>
      </trkpt>
      <trkpt lat="43.24015" lon="6.02174">
        <ele>318.91015625</ele>
        <time>2019-09-15T09:11:19Z</time>
      </trkpt>
      <trkpt lat="43.24017" lon="6.02174">
        <ele>319.08203125</ele>
        <time>2019-09-15T09:11:20Z</time>
      </trkpt>
      <trkpt lat="43.24018" lon="6.02175">
        <ele>319.26171875</ele>
        <time>2019-09-15T09:11:21Z</time>
      </trkpt>
      <trkpt lat="43.2402" lon="6.02175">
        <ele>319.5</ele>
        <time>2019-09-15T09:11:22Z</time>
      </trkpt>
      <trkpt lat="43.24023" lon="6.02175">
        <ele>319.82421875</ele>
        <time>2019-09-15T09:11:23Z</time>
      </trkpt>
      <trkpt lat="43.24025" lon="6.02175">
        <ele>320.1484375</ele>
        <time>2019-09-15T09:11:24Z</time>
      </trkpt>
      <trkpt lat="43.24028" lon="6.02176">
        <ele>320.42578125</ele>
        <time>2019-09-15T09:11:25Z</time>
      </trkpt>
      <trkpt lat="43.24049" lon="6.02186">
        <ele>323.27734375</ele>
        <time>2019-09-15T09:11:34Z</time>
      </trkpt>
      <trkpt lat="43.24051" lon="6.02192">
        <ele>323.4765625</ele>
        <time>2019-09-15T09:11:38Z</time>
      </trkpt>
      <trkpt lat="43.24053" lon="6.02194">
        <ele>323.54296875</ele>
        <time>2019-09-15T09:11:39Z</time>
      </trkpt>
      <trkpt lat="43.24056" lon="6.02197">
        <ele>323.6953125</ele>
        <time>2019-09-15T09:11:40Z</time>
      </trkpt>
      <trkpt lat="43.24058" lon="6.02198">
        <ele>323.94921875</ele>
        <time>2019-09-15T09:11:41Z</time>
      </trkpt>
      <trkpt lat="43.24061" lon="6.02199">
        <ele>324.40625</ele>
        <time>2019-09-15T09:11:42Z</time>
      </trkpt>
      <trkpt lat="43.24065" lon="6.02201">
        <ele>325.046875</ele>
        <time>2019-09-15T09:11:43Z</time>
      </trkpt>
      <trkpt lat="43.24068" lon="6.02202">
        <ele>325.62890625</ele>
        <time>2019-09-15T09:11:44Z</time>
      </trkpt>
      <trkpt lat="43.24071" lon="6.02204">
        <ele>326.24609375</ele>
        <time>2019-09-15T09:11:45Z</time>
      </trkpt>
      <trkpt lat="43.24074" lon="6.02206">
        <ele>326.81640625</ele>
        <time>2019-09-15T09:11:46Z</time>
      </trkpt>
      <trkpt lat="43.24078" lon="6.02208">
        <ele>327.4921875</ele>
        <time>2019-09-15T09:11:47Z</time>
      </trkpt>
      <trkpt lat="43.24081" lon="6.0221">
        <ele>328.2109375</ele>
        <time>2019-09-15T09:11:48Z</time>
      </trkpt>
      <trkpt lat="43.24084" lon="6.02211">
        <ele>328.9296875</ele>
        <time>2019-09-15T09:11:49Z</time>
      </trkpt>
      <trkpt lat="43.24086" lon="6.02212">
        <ele>329.484375</ele>
        <time>2019-09-15T09:11:50Z</time>
      </trkpt>
      <trkpt lat="43.24089" lon="6.02213">
        <ele>330.203125</ele>
        <time>2019-09-15T09:11:51Z</time>
      </trkpt>
      <trkpt lat="43.24105" lon="6.02215">
        <ele>334.9921875</ele>
        <time>2019-09-15T09:11:59Z</time>
      </trkpt>
      <trkpt lat="43.24107" lon="6.02215">
        <ele>335.52734375</ele>
        <time>2019-09-15T09:12:00Z</time>
      </trkpt>
      <trkpt lat="43.24109" lon="6.02216">
        <ele>336.09375</ele>
        <time>2019-09-15T09:12:01Z</time>
      </trkpt>
      <trkpt lat="43.2412" lon="6.02215">
        <ele>339.296875</ele>
        <time>2019-09-15T09:12:07Z</time>
      </trkpt>
      <trkpt lat="43.24122" lon="6.02215">
        <ele>339.9140625</ele>
        <time>2019-09-15T09:12:08Z</time>
      </trkpt>
      <trkpt lat="43.24124" lon="6.02215">
        <ele>340.546875</ele>
        <time>2019-09-15T09:12:09Z</time>
      </trkpt>
      <trkpt lat="43.24125" lon="6.02214">
        <ele>340.9296875</ele>
        <time>2019-09-15T09:12:10Z</time>
      </trkpt>
      <trkpt lat="43.24129" lon="6.02213">
        <ele>341.8203125</ele>
        <time>2019-09-15T09:12:12Z</time>
      </trkpt>
      <trkpt lat="43.2413" lon="6.02213">
        <ele>342.40625</ele>
        <time>2019-09-15T09:12:13Z</time>
      </trkpt>
      <trkpt lat="43.24132" lon="6.02214">
        <ele>343.0859375</ele>
        <time>2019-09-15T09:12:14Z</time>
      </trkpt>
      <trkpt lat="43.24133" lon="6.02216">
        <ele>343.73046875</ele>
        <time>2019-09-15T09:12:15Z</time>
      </trkpt>
      <trkpt lat="43.24135" lon="6.02217">
        <ele>344.36328125</ele>
        <time>2019-09-15T09:12:16Z</time>
      </trkpt>
      <trkpt lat="43.24136" lon="6.02219">
        <ele>344.96875</ele>
        <time>2019-09-15T09:12:17Z</time>
      </trkpt>
      <trkpt lat="43.24137" lon="6.0222">
        <ele>345.56640625</ele>
        <time>2019-09-15T09:12:18Z</time>
      </trkpt>
      <trkpt lat="43.24139" lon="6.02222">
        <ele>346.203125</ele>
        <time>2019-09-15T09:12:19Z</time>
      </trkpt>
      <trkpt lat="43.24139" lon="6.02223">
        <ele>346.69140625</ele>
        <time>2019-09-15T09:12:20Z</time>
      </trkpt>
      <trkpt lat="43.2414" lon="6.02225">
        <ele>347.171875</ele>
        <time>2019-09-15T09:12:21Z</time>
      </trkpt>
      <trkpt lat="43.24142" lon="6.02226">
        <ele>347.94921875</ele>
        <time>2019-09-15T09:12:22Z</time>
      </trkpt>
      <trkpt lat="43.24143" lon="6.02228">
        <ele>348.6484375</ele>
        <time>2019-09-15T09:12:23Z</time>
      </trkpt>
      <trkpt lat="43.24152" lon="6.02235">
        <ele>353.95703125</ele>
        <time>2019-09-15T09:12:36Z</time>
      </trkpt>
      <trkpt lat="43.24157" lon="6.02244">
        <ele>357.50390625</ele>
        <time>2019-09-15T09:12:53Z</time>
      </trkpt>
      <trkpt lat="43.2416" lon="6.02262">
        <ele>356.58984375</ele>
        <time>2019-09-15T09:13:03Z</time>
      </trkpt>
      <trkpt lat="43.24168" lon="6.02274">
        <ele>358.2421875</ele>
        <time>2019-09-15T09:13:14Z</time>
      </trkpt>
      <trkpt lat="43.24172" lon="6.02283">
        <ele>358.765625</ele>
        <time>2019-09-15T09:13:30Z</time>
      </trkpt>
      <trkpt lat="43.24178" lon="6.02286">
        <ele>361.03515625</ele>
        <time>2019-09-15T09:13:42Z</time>
      </trkpt>
      <trkpt lat="43.24184" lon="6.02292">
        <ele>362.3828125</ele>
        <time>2019-09-15T09:13:54Z</time>
      </trkpt>
      <trkpt lat="43.24186" lon="6.02295">
        <ele>362.55078125</ele>
        <time>2019-09-15T09:14:01Z</time>
      </trkpt>
      <trkpt lat="43.24192" lon="6.023">
        <ele>364.3515625</ele>
        <time>2019-09-15T09:14:07Z</time>
      </trkpt>
      <trkpt lat="43.24199" lon="6.02308">
        <ele>365.60546875</ele>
        <time>2019-09-15T09:14:13Z</time>
      </trkpt>
      <trkpt lat="43.242" lon="6.02309">
        <ele>365.84765625</ele>
        <time>2019-09-15T09:14:14Z</time>
      </trkpt>
      <trkpt lat="43.24205" lon="6.02309">
        <ele>368.1953125</ele>
        <time>2019-09-15T09:14:26Z</time>
      </trkpt>
      <trkpt lat="43.24208" lon="6.02308">
        <ele>369.66015625</ele>
        <time>2019-09-15T09:14:46Z</time>
      </trkpt>
      <trkpt lat="43.24204" lon="6.02307">
        <ele>367.89453125</ele>
        <time>2019-09-15T09:15:00Z</time>
      </trkpt>
      <trkpt lat="43.24204" lon="6.02309">
        <ele>367.75390625</ele>
        <time>2019-09-15T09:15:30Z</time>
      </trkpt>
      <trkpt lat="43.24209" lon="6.02308">
        <ele>370.046875</ele>
        <time>2019-09-15T09:15:53Z</time>
      </trkpt>
      <trkpt lat="43.24212" lon="6.02309">
        <ele>371.390625</ele>
        <time>2019-09-15T09:16:09Z</time>
      </trkpt>
      <trkpt lat="43.24213" lon="6.02307">
        <ele>372.0859375</ele>
        <time>2019-09-15T09:16:24Z</time>
      </trkpt>
      <trkpt lat="43.2422" lon="6.02311">
        <ele>374.515625</ele>
        <time>2019-09-15T09:16:43Z</time>
      </trkpt>
      <trkpt lat="43.24224" lon="6.02311">
        <ele>376.171875</ele>
        <time>2019-09-15T09:16:57Z</time>
      </trkpt>
      <trkpt lat="43.24222" lon="6.02312">
        <ele>375.04296875</ele>
        <time>2019-09-15T09:17:15Z</time>
      </trkpt>
      <trkpt lat="43.24219" lon="6.02315">
        <ele>373.53515625</ele>
        <time>2019-09-15T09:17:41Z</time>
      </trkpt>
      <trkpt lat="43.24219" lon="6.0232">
        <ele>372.58203125</ele>
        <time>2019-09-15T09:18:11Z</time>
      </trkpt>
      <trkpt lat="43.2422" lon="6.02319">
        <ele>373.1328125</ele>
        <time>2019-09-15T09:18:37Z</time>
      </trkpt>
      <trkpt lat="43.2422" lon="6.02313">
        <ele>373.984375</ele>
        <time>2019-09-15T09:19:23Z</time>
      </trkpt>
      <trkpt lat="43.24219" lon="6.02313">
        <ele>373.86328125</ele>
        <time>2019-09-15T09:20:07Z</time>
      </trkpt>
      <trkpt lat="43.24228" lon="6.02316">
        <ele>377.1328125</ele>
        <time>2019-09-15T09:20:26Z</time>
      </trkpt>
      <trkpt lat="43.24231" lon="6.02315">
        <ele>378.47265625</ele>
        <time>2019-09-15T09:20:37Z</time>
      </trkpt>
      <trkpt lat="43.2423" lon="6.02312">
        <ele>378.62890625</ele>
        <time>2019-09-15T09:20:56Z</time>
      </trkpt>
      <trkpt lat="43.24231" lon="6.0231">
        <ele>379.2109375</ele>
        <time>2019-09-15T09:21:11Z</time>
      </trkpt>
      <trkpt lat="43.24233" lon="6.02312">
        <ele>379.83984375</ele>
        <time>2019-09-15T09:21:32Z</time>
      </trkpt>
      <trkpt lat="43.2424" lon="6.02311">
        <ele>382.4921875</ele>
        <time>2019-09-15T09:21:51Z</time>
      </trkpt>
      <trkpt lat="43.24245" lon="6.02316">
        <ele>383.875</ele>
        <time>2019-09-15T09:22:04Z</time>
      </trkpt>
      <trkpt lat="43.24244" lon="6.02317">
        <ele>383.44140625</ele>
        <time>2019-09-15T09:22:23Z</time>
      </trkpt>
      <trkpt lat="43.24254" lon="6.02326">
        <ele>386.94140625</ele>
        <time>2019-09-15T09:22:39Z</time>
      </trkpt>
      <trkpt lat="43.24258" lon="6.0233">
        <ele>388.125</ele>
        <time>2019-09-15T09:22:55Z</time>
      </trkpt>
      <trkpt lat="43.24259" lon="6.02334">
        <ele>388.12109375</ele>
        <time>2019-09-15T09:23:15Z</time>
      </trkpt>
      <trkpt lat="43.24258" lon="6.02333">
        <ele>387.83984375</ele>
        <time>2019-09-15T09:23:40Z</time>
      </trkpt>
      <trkpt lat="43.24261" lon="6.02329">
        <ele>389.23046875</ele>
        <time>2019-09-15T09:24:03Z</time>
      </trkpt>
      <trkpt lat="43.24263" lon="6.02329">
        <ele>389.93359375</ele>
        <time>2019-09-15T09:24:23Z</time>
      </trkpt>
      <trkpt lat="43.24263" lon="6.02328">
        <ele>390.19921875</ele>
        <time>2019-09-15T09:24:43Z</time>
      </trkpt>
      <trkpt lat="43.24264" lon="6.02329">
        <ele>390.5859375</ele>
        <time>2019-09-15T09:25:13Z</time>
      </trkpt>
      <trkpt lat="43.24263" lon="6.02331">
        <ele>390.02734375</ele>
        <time>2019-09-15T09:25:38Z</time>
      </trkpt>
      <trkpt lat="43.24264" lon="6.02333">
        <ele>390.23828125</ele>
        <time>2019-09-15T09:25:51Z</time>
      </trkpt>
      <trkpt lat="43.24265" lon="6.02334">
        <ele>390.50390625</ele>
        <time>2019-09-15T09:25:52Z</time>
      </trkpt>
      <trkpt lat="43.24266" lon="6.02335">
        <ele>390.92578125</ele>
        <time>2019-09-15T09:25:53Z</time>
      </trkpt>
      <trkpt lat="43.24268" lon="6.02335">
        <ele>391.421875</ele>
        <time>2019-09-15T09:25:54Z</time>
      </trkpt>
      <trkpt lat="43.24271" lon="6.02338">
        <ele>392.4921875</ele>
        <time>2019-09-15T09:26:05Z</time>
      </trkpt>
      <trkpt lat="43.24274" lon="6.02343">
        <ele>393.6953125</ele>
        <time>2019-09-15T09:26:20Z</time>
      </trkpt>
      <trkpt lat="43.24276" lon="6.02344">
        <ele>394.5390625</ele>
        <time>2019-09-15T09:26:32Z</time>
      </trkpt>
      <trkpt lat="43.24278" lon="6.02348">
        <ele>395.2890625</ele>
        <time>2019-09-15T09:26:44Z</time>
      </trkpt>
      <trkpt lat="43.24279" lon="6.0235">
        <ele>395.80859375</ele>
        <time>2019-09-15T09:26:48Z</time>
      </trkpt>
      <trkpt lat="43.2428" lon="6.02352">
        <ele>396.0234375</ele>
        <time>2019-09-15T09:26:49Z</time>
      </trkpt>
      <trkpt lat="43.24281" lon="6.02354">
        <ele>396.3984375</ele>
        <time>2019-09-15T09:26:50Z</time>
      </trkpt>
      <trkpt lat="43.24281" lon="6.02355">
        <ele>396.78125</ele>
        <time>2019-09-15T09:26:51Z</time>
      </trkpt>
      <trkpt lat="43.24283" lon="6.02357">
        <ele>397.203125</ele>
        <time>2019-09-15T09:26:53Z</time>
      </trkpt>
      <trkpt lat="43.24285" lon="6.02358">
        <ele>397.5</ele>
        <time>2019-09-15T09:26:54Z</time>
      </trkpt>
      <trkpt lat="43.24288" lon="6.0236">
        <ele>398.109375</ele>
        <time>2019-09-15T09:27:06Z</time>
      </trkpt>
      <trkpt lat="43.24291" lon="6.0236">
        <ele>398.6015625</ele>
        <time>2019-09-15T09:27:22Z</time>
      </trkpt>
      <trkpt lat="43.24296" lon="6.02367">
        <ele>399.6640625</ele>
        <time>2019-09-15T09:27:36Z</time>
      </trkpt>
      <trkpt lat="43.24297" lon="6.02372">
        <ele>399.765625</ele>
        <time>2019-09-15T09:27:43Z</time>
      </trkpt>
      <trkpt lat="43.24298" lon="6.02373">
        <ele>399.96484375</ele>
        <time>2019-09-15T09:27:44Z</time>
      </trkpt>
      <trkpt lat="43.24306" lon="6.02398">
        <ele>401.73046875</ele>
        <time>2019-09-15T09:27:58Z</time>
      </trkpt>
      <trkpt lat="43.24313" lon="6.02409">
        <ele>403.7109375</ele>
        <time>2019-09-15T09:28:09Z</time>
      </trkpt>
      <trkpt lat="43.24319" lon="6.02422">
        <ele>405.28125</ele>
        <time>2019-09-15T09:28:20Z</time>
      </trkpt>
      <trkpt lat="43.2432" lon="6.02424">
        <ele>405.61328125</ele>
        <time>2019-09-15T09:28:21Z</time>
      </trkpt>
      <trkpt lat="43.24321" lon="6.02426">
        <ele>405.8515625</ele>
        <time>2019-09-15T09:28:22Z</time>
      </trkpt>
      <trkpt lat="43.24321" lon="6.02428">
        <ele>406.11328125</ele>
        <time>2019-09-15T09:28:23Z</time>
      </trkpt>
      <trkpt lat="43.24322" lon="6.0243">
        <ele>406.41796875</ele>
        <time>2019-09-15T09:28:24Z</time>
      </trkpt>
      <trkpt lat="43.24323" lon="6.02432">
        <ele>406.74609375</ele>
        <time>2019-09-15T09:28:25Z</time>
      </trkpt>
      <trkpt lat="43.24324" lon="6.02433">
        <ele>407.08203125</ele>
        <time>2019-09-15T09:28:26Z</time>
      </trkpt>
      <trkpt lat="43.24327" lon="6.02437">
        <ele>408.08984375</ele>
        <time>2019-09-15T09:28:29Z</time>
      </trkpt>
      <trkpt lat="43.24331" lon="6.02443">
        <ele>409.90625</ele>
        <time>2019-09-15T09:28:42Z</time>
      </trkpt>
      <trkpt lat="43.24337" lon="6.0245">
        <ele>412.125</ele>
        <time>2019-09-15T09:28:55Z</time>
      </trkpt>
      <trkpt lat="43.2434" lon="6.02452">
        <ele>412.4609375</ele>
        <time>2019-09-15T09:29:09Z</time>
      </trkpt>
      <trkpt lat="43.24344" lon="6.0245">
        <ele>412.33984375</ele>
        <time>2019-09-15T09:29:23Z</time>
      </trkpt>
      <trkpt lat="43.24347" lon="6.02451">
        <ele>412.37890625</ele>
        <time>2019-09-15T09:29:26Z</time>
      </trkpt>
      <trkpt lat="43.24349" lon="6.02452">
        <ele>412.45703125</ele>
        <time>2019-09-15T09:29:28Z</time>
      </trkpt>
      <trkpt lat="43.24357" lon="6.02453">
        <ele>412.6484375</ele>
        <time>2019-09-15T09:29:33Z</time>
      </trkpt>
      <trkpt lat="43.24358" lon="6.02455">
        <ele>412.890625</ele>
        <time>2019-09-15T09:29:34Z</time>
      </trkpt>
      <trkpt lat="43.24363" lon="6.02462">
        <ele>414.15234375</ele>
        <time>2019-09-15T09:29:38Z</time>
      </trkpt>
      <trkpt lat="43.24364" lon="6.02464">
        <ele>414.42578125</ele>
        <time>2019-09-15T09:29:39Z</time>
      </trkpt>
      <trkpt lat="43.24365" lon="6.02465">
        <ele>414.6953125</ele>
        <time>2019-09-15T09:29:40Z</time>
      </trkpt>
      <trkpt lat="43.24367" lon="6.02465">
        <ele>414.91796875</ele>
        <time>2019-09-15T09:29:41Z</time>
      </trkpt>
      <trkpt lat="43.24371" lon="6.02463">
        <ele>414.828125</ele>
        <time>2019-09-15T09:29:44Z</time>
      </trkpt>
      <trkpt lat="43.24375" lon="6.02465">
        <ele>415.34765625</ele>
        <time>2019-09-15T09:29:55Z</time>
      </trkpt>
      <trkpt lat="43.24376" lon="6.02464">
        <ele>415.3671875</ele>
        <time>2019-09-15T09:30:06Z</time>
      </trkpt>
      <trkpt lat="43.24375" lon="6.02465">
        <ele>415.3671875</ele>
        <time>2019-09-15T09:30:23Z</time>
      </trkpt>
      <trkpt lat="43.24374" lon="6.02468">
        <ele>416.01171875</ele>
        <time>2019-09-15T09:31:01Z</time>
      </trkpt>
      <trkpt lat="43.24375" lon="6.02465">
        <ele>415.44921875</ele>
        <time>2019-09-15T09:31:32Z</time>
      </trkpt>
      <trkpt lat="43.24374" lon="6.02463">
        <ele>414.91796875</ele>
        <time>2019-09-15T09:32:12Z</time>
      </trkpt>
      <trkpt lat="43.24375" lon="6.02463">
        <ele>415.0390625</ele>
        <time>2019-09-15T09:32:57Z</time>
      </trkpt>
      <trkpt lat="43.24369" lon="6.02461">
        <ele>414.34765625</ele>
        <time>2019-09-15T09:33:32Z</time>
      </trkpt>
      <trkpt lat="43.24373" lon="6.02458">
        <ele>413.91796875</ele>
        <time>2019-09-15T09:34:19Z</time>
      </trkpt>
      <trkpt lat="43.24372" lon="6.0246">
        <ele>414.26953125</ele>
        <time>2019-09-15T09:34:56Z</time>
      </trkpt>
      <trkpt lat="43.24375" lon="6.02461">
        <ele>414.65234375</ele>
        <time>2019-09-15T09:35:24Z</time>
      </trkpt>
      <trkpt lat="43.24373" lon="6.02462">
        <ele>414.7890625</ele>
        <time>2019-09-15T09:35:46Z</time>
      </trkpt>
      <trkpt lat="43.24376" lon="6.02462">
        <ele>414.91015625</ele>
        <time>2019-09-15T09:36:14Z</time>
      </trkpt>
      <trkpt lat="43.24379" lon="6.02462">
        <ele>414.984375</ele>
        <time>2019-09-15T09:36:55Z</time>
      </trkpt>
      <trkpt lat="43.24378" lon="6.02463">
        <ele>415.18359375</ele>
        <time>2019-09-15T09:37:20Z</time>
      </trkpt>
      <trkpt lat="43.24378" lon="6.02461">
        <ele>414.81640625</ele>
        <time>2019-09-15T09:37:46Z</time>
      </trkpt>
      <trkpt lat="43.24375" lon="6.02461">
        <ele>414.6015625</ele>
        <time>2019-09-15T09:38:19Z</time>
      </trkpt>
      <trkpt lat="43.24376" lon="6.02464">
        <ele>415.265625</ele>
        <time>2019-09-15T09:38:53Z</time>
      </trkpt>
      <trkpt lat="43.2438" lon="6.0246">
        <ele>414.80078125</ele>
        <time>2019-09-15T09:39:23Z</time>
      </trkpt>
      <trkpt lat="43.24375" lon="6.02463">
        <ele>414.953125</ele>
        <time>2019-09-15T09:39:49Z</time>
      </trkpt>
      <trkpt lat="43.24374" lon="6.02462">
        <ele>414.70703125</ele>
        <time>2019-09-15T09:40:17Z</time>
      </trkpt>
      <trkpt lat="43.24376" lon="6.02459">
        <ele>414.19921875</ele>
        <time>2019-09-15T09:40:50Z</time>
      </trkpt>
      <trkpt lat="43.2437" lon="6.02457">
        <ele>413.57421875</ele>
        <time>2019-09-15T09:41:19Z</time>
      </trkpt>
      <trkpt lat="43.24369" lon="6.02456">
        <ele>413.23046875</ele>
        <time>2019-09-15T09:41:36Z</time>
      </trkpt>
      <trkpt lat="43.2437" lon="6.02457">
        <ele>413.48828125</ele>
        <time>2019-09-15T09:42:06Z</time>
      </trkpt>
      <trkpt lat="43.24371" lon="6.02458">
        <ele>413.703125</ele>
        <time>2019-09-15T09:42:27Z</time>
      </trkpt>
      <trkpt lat="43.24372" lon="6.02456">
        <ele>413.3671875</ele>
        <time>2019-09-15T09:42:47Z</time>
      </trkpt>
      <trkpt lat="43.24371" lon="6.02457">
        <ele>413.57421875</ele>
        <time>2019-09-15T09:43:22Z</time>
      </trkpt>
      <trkpt lat="43.24369" lon="6.02457">
        <ele>413.546875</ele>
        <time>2019-09-15T09:43:33Z</time>
      </trkpt>
      <trkpt lat="43.24372" lon="6.02454">
        <ele>413.1796875</ele>
        <time>2019-09-15T09:43:57Z</time>
      </trkpt>
      <trkpt lat="43.24371" lon="6.02453">
        <ele>412.83203125</ele>
        <time>2019-09-15T09:44:19Z</time>
      </trkpt>
      <trkpt lat="43.24372" lon="6.02454">
        <ele>412.98828125</ele>
        <time>2019-09-15T09:44:47Z</time>
      </trkpt>
      <trkpt lat="43.24374" lon="6.02457">
        <ele>413.734375</ele>
        <time>2019-09-15T09:45:13Z</time>
      </trkpt>
      <trkpt lat="43.24375" lon="6.02457">
        <ele>413.84375</ele>
        <time>2019-09-15T09:45:28Z</time>
      </trkpt>
      <trkpt lat="43.2438" lon="6.02462">
        <ele>415.2421875</ele>
        <time>2019-09-15T09:45:55Z</time>
      </trkpt>
      <trkpt lat="43.24384" lon="6.02461">
        <ele>415.16015625</ele>
        <time>2019-09-15T09:46:10Z</time>
      </trkpt>
      <trkpt lat="43.24382" lon="6.02461">
        <ele>415.03515625</ele>
        <time>2019-09-15T09:46:31Z</time>
      </trkpt>
      <trkpt lat="43.24377" lon="6.02465">
        <ele>415.546875</ele>
        <time>2019-09-15T09:46:47Z</time>
      </trkpt>
      <trkpt lat="43.24374" lon="6.02461">
        <ele>414.56640625</ele>
        <time>2019-09-15T09:47:30Z</time>
      </trkpt>
      <trkpt lat="43.2438" lon="6.02458">
        <ele>414.23046875</ele>
        <time>2019-09-15T09:47:49Z</time>
      </trkpt>
      <trkpt lat="43.24377" lon="6.02456">
        <ele>413.71484375</ele>
        <time>2019-09-15T09:48:13Z</time>
      </trkpt>
      <trkpt lat="43.2438" lon="6.02457">
        <ele>414.13671875</ele>
        <time>2019-09-15T09:48:22Z</time>
      </trkpt>
      <trkpt lat="43.24382" lon="6.02458">
        <ele>414.26953125</ele>
        <time>2019-09-15T09:48:23Z</time>
      </trkpt>
      <trkpt lat="43.24384" lon="6.02458">
        <ele>414.4140625</ele>
        <time>2019-09-15T09:48:25Z</time>
      </trkpt>
      <trkpt lat="43.24385" lon="6.02457">
        <ele>414.40234375</ele>
        <time>2019-09-15T09:48:26Z</time>
      </trkpt>
      <trkpt lat="43.24387" lon="6.02457">
        <ele>414.4609375</ele>
        <time>2019-09-15T09:48:27Z</time>
      </trkpt>
      <trkpt lat="43.2439" lon="6.02458">
        <ele>414.81640625</ele>
        <time>2019-09-15T09:48:28Z</time>
      </trkpt>
      <trkpt lat="43.24392" lon="6.0246">
        <ele>415.46875</ele>
        <time>2019-09-15T09:48:29Z</time>
      </trkpt>
      <trkpt lat="43.24394" lon="6.02463">
        <ele>416.35546875</ele>
        <time>2019-09-15T09:48:30Z</time>
      </trkpt>
      <trkpt lat="43.24397" lon="6.02466">
        <ele>417.30859375</ele>
        <time>2019-09-15T09:48:31Z</time>
      </trkpt>
      <trkpt lat="43.24419" lon="6.02485">
        <ele>423.93359375</ele>
        <time>2019-09-15T09:48:40Z</time>
      </trkpt>
      <trkpt lat="43.24421" lon="6.02484">
        <ele>423.8515625</ele>
        <time>2019-09-15T09:48:41Z</time>
      </trkpt>
      <trkpt lat="43.2443" lon="6.02472">
        <ele>423.59375</ele>
        <time>2019-09-15T09:48:48Z</time>
      </trkpt>
      <trkpt lat="43.24436" lon="6.02467">
        <ele>424.00390625</ele>
        <time>2019-09-15T09:48:53Z</time>
      </trkpt>
      <trkpt lat="43.24441" lon="6.02464">
        <ele>424.80078125</ele>
        <time>2019-09-15T09:49:03Z</time>
      </trkpt>
      <trkpt lat="43.24443" lon="6.02464">
        <ele>425.2734375</ele>
        <time>2019-09-15T09:49:26Z</time>
      </trkpt>
      <trkpt lat="43.24443" lon="6.0246">
        <ele>424.546875</ele>
        <time>2019-09-15T09:49:59Z</time>
      </trkpt>
      <trkpt lat="43.24443" lon="6.02458">
        <ele>424.28515625</ele>
        <time>2019-09-15T09:50:36Z</time>
      </trkpt>
      <trkpt lat="43.24441" lon="6.0246">
        <ele>424.109375</ele>
        <time>2019-09-15T09:51:03Z</time>
      </trkpt>
      <trkpt lat="43.24447" lon="6.02458">
        <ele>425.11328125</ele>
        <time>2019-09-15T09:51:12Z</time>
      </trkpt>
      <trkpt lat="43.24453" lon="6.0246">
        <ele>427.1953125</ele>
        <time>2019-09-15T09:51:16Z</time>
      </trkpt>
      <trkpt lat="43.24455" lon="6.02459">
        <ele>427.41015625</ele>
        <time>2019-09-15T09:51:17Z</time>
      </trkpt>
      <trkpt lat="43.24456" lon="6.02457">
        <ele>427.52734375</ele>
        <time>2019-09-15T09:51:18Z</time>
      </trkpt>
      <trkpt lat="43.24458" lon="6.02456">
        <ele>427.796875</ele>
        <time>2019-09-15T09:51:19Z</time>
      </trkpt>
      <trkpt lat="43.24461" lon="6.02454">
        <ele>428.06640625</ele>
        <time>2019-09-15T09:51:20Z</time>
      </trkpt>
      <trkpt lat="43.24463" lon="6.02451">
        <ele>428.296875</ele>
        <time>2019-09-15T09:51:21Z</time>
      </trkpt>
      <trkpt lat="43.24483" lon="6.02437">
        <ele>429.40234375</ele>
        <time>2019-09-15T09:51:31Z</time>
      </trkpt>
      <trkpt lat="43.24495" lon="6.02428">
        <ele>428.1953125</ele>
        <time>2019-09-15T09:51:43Z</time>
      </trkpt>
      <trkpt lat="43.24499" lon="6.02427">
        <ele>428.1953125</ele>
        <time>2019-09-15T09:51:46Z</time>
      </trkpt>
      <trkpt lat="43.245" lon="6.02425">
        <ele>427.8515625</ele>
        <time>2019-09-15T09:51:47Z</time>
      </trkpt>
      <trkpt lat="43.24502" lon="6.02423">
        <ele>427.4765625</ele>
        <time>2019-09-15T09:51:48Z</time>
      </trkpt>
      <trkpt lat="43.24505" lon="6.02422">
        <ele>427.140625</ele>
        <time>2019-09-15T09:51:49Z</time>
      </trkpt>
      <trkpt lat="43.24507" lon="6.0242">
        <ele>426.9375</ele>
        <time>2019-09-15T09:51:50Z</time>
      </trkpt>
      <trkpt lat="43.2451" lon="6.0242">
        <ele>426.953125</ele>
        <time>2019-09-15T09:51:51Z</time>
      </trkpt>
      <trkpt lat="43.24531" lon="6.02422">
        <ele>428.75390625</ele>
        <time>2019-09-15T09:52:00Z</time>
      </trkpt>
      <trkpt lat="43.24533" lon="6.02422">
        <ele>428.66796875</ele>
        <time>2019-09-15T09:52:01Z</time>
      </trkpt>
      <trkpt lat="43.24534" lon="6.02421">
        <ele>428.453125</ele>
        <time>2019-09-15T09:52:02Z</time>
      </trkpt>
      <trkpt lat="43.24536" lon="6.02422">
        <ele>428.40234375</ele>
        <time>2019-09-15T09:52:03Z</time>
      </trkpt>
      <trkpt lat="43.24538" lon="6.02423">
        <ele>428.46484375</ele>
        <time>2019-09-15T09:52:04Z</time>
      </trkpt>
      <trkpt lat="43.24553" lon="6.02427">
        <ele>428.13671875</ele>
        <time>2019-09-15T09:52:12Z</time>
      </trkpt>
      <trkpt lat="43.24555" lon="6.02428">
        <ele>428.1953125</ele>
        <time>2019-09-15T09:52:13Z</time>
      </trkpt>
      <trkpt lat="43.24561" lon="6.0243">
        <ele>428.0703125</ele>
        <time>2019-09-15T09:52:16Z</time>
      </trkpt>
      <trkpt lat="43.24586" lon="6.02432">
        <ele>426.15234375</ele>
        <time>2019-09-15T09:52:27Z</time>
      </trkpt>
      <trkpt lat="43.246" lon="6.02437">
        <ele>425.3984375</ele>
        <time>2019-09-15T09:52:34Z</time>
      </trkpt>
      <trkpt lat="43.24602" lon="6.02438">
        <ele>425.34765625</ele>
        <time>2019-09-15T09:52:35Z</time>
      </trkpt>
      <trkpt lat="43.24633" lon="6.02455">
        <ele>426.12890625</ele>
        <time>2019-09-15T09:52:43Z</time>
      </trkpt>
      <trkpt lat="43.24635" lon="6.02457">
        <ele>426.34375</ele>
        <time>2019-09-15T09:52:44Z</time>
      </trkpt>
      <trkpt lat="43.24638" lon="6.02457">
        <ele>426.578125</ele>
        <time>2019-09-15T09:52:53Z</time>
      </trkpt>
      <trkpt lat="43.24642" lon="6.02458">
        <ele>426.921875</ele>
        <time>2019-09-15T09:53:14Z</time>
      </trkpt>
      <trkpt lat="43.24643" lon="6.02458">
        <ele>427.03125</ele>
        <time>2019-09-15T09:53:15Z</time>
      </trkpt>
      <trkpt lat="43.24645" lon="6.02457">
        <ele>427.1953125</ele>
        <time>2019-09-15T09:53:16Z</time>
      </trkpt>
      <trkpt lat="43.24645" lon="6.02454">
        <ele>427.19921875</ele>
        <time>2019-09-15T09:53:17Z</time>
      </trkpt>
      <trkpt lat="43.24643" lon="6.02453">
        <ele>427.03515625</ele>
        <time>2019-09-15T09:53:18Z</time>
      </trkpt>
      <trkpt lat="43.24641" lon="6.02452">
        <ele>426.828125</ele>
        <time>2019-09-15T09:53:19Z</time>
      </trkpt>
      <trkpt lat="43.24638" lon="6.02452">
        <ele>426.609375</ele>
        <time>2019-09-15T09:53:20Z</time>
      </trkpt>
      <trkpt lat="43.24636" lon="6.02452">
        <ele>426.38671875</ele>
        <time>2019-09-15T09:53:21Z</time>
      </trkpt>
      <trkpt lat="43.24633" lon="6.02452">
        <ele>426.1484375</ele>
        <time>2019-09-15T09:53:22Z</time>
      </trkpt>
      <trkpt lat="43.24631" lon="6.0245">
        <ele>425.87890625</ele>
        <time>2019-09-15T09:53:23Z</time>
      </trkpt>
      <trkpt lat="43.24628" lon="6.02448">
        <ele>425.61328125</ele>
        <time>2019-09-15T09:53:24Z</time>
      </trkpt>
      <trkpt lat="43.24607" lon="6.02438">
        <ele>424.80078125</ele>
        <time>2019-09-15T09:53:33Z</time>
      </trkpt>
      <trkpt lat="43.24605" lon="6.02436">
        <ele>424.8828125</ele>
        <time>2019-09-15T09:53:34Z</time>
      </trkpt>
      <trkpt lat="43.24604" lon="6.02435">
        <ele>424.9453125</ele>
        <time>2019-09-15T09:53:35Z</time>
      </trkpt>
      <trkpt lat="43.24603" lon="6.02435">
        <ele>425.04296875</ele>
        <time>2019-09-15T09:53:36Z</time>
      </trkpt>
      <trkpt lat="43.24601" lon="6.02435">
        <ele>425.15234375</ele>
        <time>2019-09-15T09:53:37Z</time>
      </trkpt>
      <trkpt lat="43.24599" lon="6.02434">
        <ele>425.3046875</ele>
        <time>2019-09-15T09:53:38Z</time>
      </trkpt>
      <trkpt lat="43.24596" lon="6.02434">
        <ele>425.546875</ele>
        <time>2019-09-15T09:53:39Z</time>
      </trkpt>
      <trkpt lat="43.24593" lon="6.02434">
        <ele>425.80859375</ele>
        <time>2019-09-15T09:53:40Z</time>
      </trkpt>
      <trkpt lat="43.24591" lon="6.02434">
        <ele>426.0703125</ele>
        <time>2019-09-15T09:53:41Z</time>
      </trkpt>
      <trkpt lat="43.24589" lon="6.02434">
        <ele>426.26171875</ele>
        <time>2019-09-15T09:53:42Z</time>
      </trkpt>
      <trkpt lat="43.24586" lon="6.02433">
        <ele>426.4140625</ele>
        <time>2019-09-15T09:53:43Z</time>
      </trkpt>
      <trkpt lat="43.24583" lon="6.02432">
        <ele>426.51171875</ele>
        <time>2019-09-15T09:53:44Z</time>
      </trkpt>
      <trkpt lat="43.2458" lon="6.02432">
        <ele>426.69140625</ele>
        <time>2019-09-15T09:53:45Z</time>
      </trkpt>
      <trkpt lat="43.24577" lon="6.02432">
        <ele>426.96484375</ele>
        <time>2019-09-15T09:53:46Z</time>
      </trkpt>
      <trkpt lat="43.24574" lon="6.02432">
        <ele>427.29296875</ele>
        <time>2019-09-15T09:53:47Z</time>
      </trkpt>
      <trkpt lat="43.24571" lon="6.02431">
        <ele>427.44921875</ele>
        <time>2019-09-15T09:53:48Z</time>
      </trkpt>
      <trkpt lat="43.24568" lon="6.0243">
        <ele>427.4609375</ele>
        <time>2019-09-15T09:53:49Z</time>
      </trkpt>
      <trkpt lat="43.24566" lon="6.02429">
        <ele>427.50390625</ele>
        <time>2019-09-15T09:53:50Z</time>
      </trkpt>
      <trkpt lat="43.24563" lon="6.02429">
        <ele>427.56640625</ele>
        <time>2019-09-15T09:53:51Z</time>
      </trkpt>
      <trkpt lat="43.2456" lon="6.02427">
        <ele>427.5390625</ele>
        <time>2019-09-15T09:53:52Z</time>
      </trkpt>
      <trkpt lat="43.24558" lon="6.02427">
        <ele>427.62890625</ele>
        <time>2019-09-15T09:53:53Z</time>
      </trkpt>
      <trkpt lat="43.24555" lon="6.02426">
        <ele>427.77734375</ele>
        <time>2019-09-15T09:53:54Z</time>
      </trkpt>
      <trkpt lat="43.24553" lon="6.02426">
        <ele>427.94921875</ele>
        <time>2019-09-15T09:53:55Z</time>
      </trkpt>
      <trkpt lat="43.24551" lon="6.02426">
        <ele>428.015625</ele>
        <time>2019-09-15T09:53:56Z</time>
      </trkpt>
      <trkpt lat="43.24549" lon="6.02425">
        <ele>427.98046875</ele>
        <time>2019-09-15T09:53:57Z</time>
      </trkpt>
      <trkpt lat="43.24545" lon="6.02424">
        <ele>428.125</ele>
        <time>2019-09-15T09:53:59Z</time>
      </trkpt>
      <trkpt lat="43.24543" lon="6.02424">
        <ele>428.45703125</ele>
        <time>2019-09-15T09:54:00Z</time>
      </trkpt>
      <trkpt lat="43.24541" lon="6.02425">
        <ele>428.69921875</ele>
        <time>2019-09-15T09:54:01Z</time>
      </trkpt>
      <trkpt lat="43.24518" lon="6.02424">
        <ele>428.53125</ele>
        <time>2019-09-15T09:54:09Z</time>
      </trkpt>
      <trkpt lat="43.24515" lon="6.02426">
        <ele>428.85546875</ele>
        <time>2019-09-15T09:54:10Z</time>
      </trkpt>
      <trkpt lat="43.24495" lon="6.02438">
        <ele>430.921875</ele>
        <time>2019-09-15T09:54:17Z</time>
      </trkpt>
      <trkpt lat="43.24493" lon="6.02439">
        <ele>430.78515625</ele>
        <time>2019-09-15T09:54:18Z</time>
      </trkpt>
      <trkpt lat="43.24491" lon="6.0244">
        <ele>430.74609375</ele>
        <time>2019-09-15T09:54:19Z</time>
      </trkpt>
      <trkpt lat="43.24488" lon="6.02441">
        <ele>430.8828125</ele>
        <time>2019-09-15T09:54:20Z</time>
      </trkpt>
      <trkpt lat="43.24486" lon="6.02443">
        <ele>430.91015625</ele>
        <time>2019-09-15T09:54:21Z</time>
      </trkpt>
      <trkpt lat="43.24481" lon="6.02447">
        <ele>431.3203125</ele>
        <time>2019-09-15T09:54:23Z</time>
      </trkpt>
      <trkpt lat="43.24463" lon="6.02463">
        <ele>430.4609375</ele>
        <time>2019-09-15T09:54:29Z</time>
      </trkpt>
      <trkpt lat="43.24455" lon="6.02464">
        <ele>428.421875</ele>
        <time>2019-09-15T09:54:33Z</time>
      </trkpt>
      <trkpt lat="43.24451" lon="6.0246">
        <ele>426.65234375</ele>
        <time>2019-09-15T09:54:55Z</time>
      </trkpt>
      <trkpt lat="43.24449" lon="6.02464">
        <ele>426.9140625</ele>
        <time>2019-09-15T09:55:38Z</time>
      </trkpt>
      <trkpt lat="43.24446" lon="6.0246">
        <ele>425.21484375</ele>
        <time>2019-09-15T09:56:17Z</time>
      </trkpt>
      <trkpt lat="43.24444" lon="6.02462">
        <ele>425.2578125</ele>
        <time>2019-09-15T09:56:46Z</time>
      </trkpt>
      <trkpt lat="43.24444" lon="6.02461">
        <ele>424.98828125</ele>
        <time>2019-09-15T09:57:23Z</time>
      </trkpt>
      <trkpt lat="43.24449" lon="6.02457">
        <ele>425.50390625</ele>
        <time>2019-09-15T09:58:05Z</time>
      </trkpt>
      <trkpt lat="43.24445" lon="6.02467">
        <ele>426.19140625</ele>
        <time>2019-09-15T09:58:36Z</time>
      </trkpt>
      <trkpt lat="43.24443" lon="6.02466">
        <ele>425.69140625</ele>
        <time>2019-09-15T09:59:07Z</time>
      </trkpt>
      <trkpt lat="43.24446" lon="6.02466">
        <ele>426.21484375</ele>
        <time>2019-09-15T09:59:39Z</time>
      </trkpt>
      <trkpt lat="43.24448" lon="6.02472">
        <ele>427.79296875</ele>
        <time>2019-09-15T10:00:22Z</time>
      </trkpt>
      <trkpt lat="43.24444" lon="6.02462">
        <ele>425.04296875</ele>
        <time>2019-09-15T10:00:58Z</time>
      </trkpt>
      <trkpt lat="43.24446" lon="6.0246">
        <ele>425.34765625</ele>
        <time>2019-09-15T10:01:14Z</time>
      </trkpt>
      <trkpt lat="43.24445" lon="6.02458">
        <ele>424.8359375</ele>
        <time>2019-09-15T10:01:41Z</time>
      </trkpt>
      <trkpt lat="43.24446" lon="6.02455">
        <ele>424.3359375</ele>
        <time>2019-09-15T10:02:05Z</time>
      </trkpt>
      <trkpt lat="43.24448" lon="6.02455">
        <ele>424.74609375</ele>
        <time>2019-09-15T10:02:26Z</time>
      </trkpt>
      <trkpt lat="43.24448" lon="6.02455">
        <ele>424.890625</ele>
        <time>2019-09-15T10:02:51Z</time>
      </trkpt>
      <trkpt lat="43.2445" lon="6.02454">
        <ele>425.20703125</ele>
        <time>2019-09-15T10:03:20Z</time>
      </trkpt>
      <trkpt lat="43.2445" lon="6.02454">
        <ele>425.1953125</ele>
        <time>2019-09-15T10:03:43Z</time>
      </trkpt>
      <trkpt lat="43.24449" lon="6.02452">
        <ele>424.51171875</ele>
        <time>2019-09-15T10:04:07Z</time>
      </trkpt>
      <trkpt lat="43.24447" lon="6.02451">
        <ele>424</ele>
        <time>2019-09-15T10:04:34Z</time>
      </trkpt>
      <trkpt lat="43.24448" lon="6.02451">
        <ele>424.078125</ele>
        <time>2019-09-15T10:04:56Z</time>
      </trkpt>
      <trkpt lat="43.24445" lon="6.02454">
        <ele>423.84765625</ele>
        <time>2019-09-15T10:05:16Z</time>
      </trkpt>
      <trkpt lat="43.24446" lon="6.02454">
        <ele>424.30078125</ele>
        <time>2019-09-15T10:05:33Z</time>
      </trkpt>
      <trkpt lat="43.24446" lon="6.02453">
        <ele>423.98046875</ele>
        <time>2019-09-15T10:05:36Z</time>
      </trkpt>
      <trkpt lat="43.24444" lon="6.02453">
        <ele>423.421875</ele>
        <time>2019-09-15T10:05:49Z</time>
      </trkpt>
      <trkpt lat="43.24446" lon="6.02465">
        <ele>426.04296875</ele>
        <time>2019-09-15T10:06:27Z</time>
      </trkpt>
      <trkpt lat="43.24447" lon="6.02463">
        <ele>426.015625</ele>
        <time>2019-09-15T10:07:02Z</time>
      </trkpt>
      <trkpt lat="43.24444" lon="6.02455">
        <ele>423.890625</ele>
        <time>2019-09-15T10:07:44Z</time>
      </trkpt>
      <trkpt lat="43.24443" lon="6.02454">
        <ele>423.45703125</ele>
        <time>2019-09-15T10:08:16Z</time>
      </trkpt>
      <trkpt lat="43.24447" lon="6.02457">
        <ele>425.00390625</ele>
        <time>2019-09-15T10:08:48Z</time>
      </trkpt>
      <trkpt lat="43.24448" lon="6.0246">
        <ele>425.83203125</ele>
        <time>2019-09-15T10:09:34Z</time>
      </trkpt>
      <trkpt lat="43.24455" lon="6.02458">
        <ele>427.2890625</ele>
        <time>2019-09-15T10:09:48Z</time>
      </trkpt>
      <trkpt lat="43.24463" lon="6.02457">
        <ele>429.27734375</ele>
        <time>2019-09-15T10:10:04Z</time>
      </trkpt>
      <trkpt lat="43.24464" lon="6.02456">
        <ele>429.3515625</ele>
        <time>2019-09-15T10:10:05Z</time>
      </trkpt>
      <trkpt lat="43.24468" lon="6.02453">
        <ele>429.95703125</ele>
        <time>2019-09-15T10:10:08Z</time>
      </trkpt>
      <trkpt lat="43.24487" lon="6.02438">
        <ele>429.9296875</ele>
        <time>2019-09-15T10:10:19Z</time>
      </trkpt>
      <trkpt lat="43.24499" lon="6.02428">
        <ele>428.6015625</ele>
        <time>2019-09-15T10:10:30Z</time>
      </trkpt>
      <trkpt lat="43.24502" lon="6.02424">
        <ele>427.73828125</ele>
        <time>2019-09-15T10:10:49Z</time>
      </trkpt>
      <trkpt lat="43.24503" lon="6.02421">
        <ele>426.72265625</ele>
        <time>2019-09-15T10:11:11Z</time>
      </trkpt>
      <trkpt lat="43.245" lon="6.02418">
        <ele>425.89453125</ele>
        <time>2019-09-15T10:11:41Z</time>
      </trkpt>
      <trkpt lat="43.24505" lon="6.02422">
        <ele>427.36328125</ele>
        <time>2019-09-15T10:12:13Z</time>
      </trkpt>
      <trkpt lat="43.24506" lon="6.02421">
        <ele>427.02734375</ele>
        <time>2019-09-15T10:12:15Z</time>
      </trkpt>
      <trkpt lat="43.24507" lon="6.02418">
        <ele>426.4140625</ele>
        <time>2019-09-15T10:12:17Z</time>
      </trkpt>
      <trkpt lat="43.24523" lon="6.02417">
        <ele>427.01953125</ele>
        <time>2019-09-15T10:12:28Z</time>
      </trkpt>
      <trkpt lat="43.24537" lon="6.02419">
        <ele>427.53125</ele>
        <time>2019-09-15T10:12:39Z</time>
      </trkpt>
      <trkpt lat="43.24549" lon="6.02421">
        <ele>427.11328125</ele>
        <time>2019-09-15T10:12:52Z</time>
      </trkpt>
      <trkpt lat="43.24555" lon="6.02424">
        <ele>427.16015625</ele>
        <time>2019-09-15T10:13:07Z</time>
      </trkpt>
      <trkpt lat="43.24564" lon="6.02428">
        <ele>427.35546875</ele>
        <time>2019-09-15T10:13:19Z</time>
      </trkpt>
      <trkpt lat="43.24581" lon="6.0243">
        <ele>426.34765625</ele>
        <time>2019-09-15T10:13:32Z</time>
      </trkpt>
      <trkpt lat="43.24584" lon="6.02431">
        <ele>426.1640625</ele>
        <time>2019-09-15T10:13:33Z</time>
      </trkpt>
      <trkpt lat="43.24591" lon="6.0243">
        <ele>425.5234375</ele>
        <time>2019-09-15T10:13:36Z</time>
      </trkpt>
      <trkpt lat="43.24593" lon="6.02431">
        <ele>425.421875</ele>
        <time>2019-09-15T10:13:37Z</time>
      </trkpt>
      <trkpt lat="43.24596" lon="6.02432">
        <ele>425.2890625</ele>
        <time>2019-09-15T10:13:38Z</time>
      </trkpt>
      <trkpt lat="43.24599" lon="6.02433">
        <ele>425.16796875</ele>
        <time>2019-09-15T10:13:39Z</time>
      </trkpt>
      <trkpt lat="43.24601" lon="6.02434">
        <ele>425.1171875</ele>
        <time>2019-09-15T10:13:40Z</time>
      </trkpt>
      <trkpt lat="43.24604" lon="6.02436">
        <ele>424.9765625</ele>
        <time>2019-09-15T10:13:42Z</time>
      </trkpt>
      <trkpt lat="43.24606" lon="6.02437">
        <ele>424.8125</ele>
        <time>2019-09-15T10:13:43Z</time>
      </trkpt>
      <trkpt lat="43.24609" lon="6.02438">
        <ele>424.64453125</ele>
        <time>2019-09-15T10:13:44Z</time>
      </trkpt>
      <trkpt lat="43.24616" lon="6.02444">
        <ele>424.30078125</ele>
        <time>2019-09-15T10:13:46Z</time>
      </trkpt>
      <trkpt lat="43.24621" lon="6.02446">
        <ele>424.859375</ele>
        <time>2019-09-15T10:13:47Z</time>
      </trkpt>
      <trkpt lat="43.24638" lon="6.02455">
        <ele>426.625</ele>
        <time>2019-09-15T10:13:54Z</time>
      </trkpt>
      <trkpt lat="43.24642" lon="6.02457">
        <ele>426.9375</ele>
        <time>2019-09-15T10:14:23Z</time>
      </trkpt>
      <trkpt lat="43.24644" lon="6.02457">
        <ele>427.12890625</ele>
        <time>2019-09-15T10:14:47Z</time>
      </trkpt>
      <trkpt lat="43.24644" lon="6.02456">
        <ele>427.08203125</ele>
        <time>2019-09-15T10:15:06Z</time>
      </trkpt>
      <trkpt lat="43.24643" lon="6.02458">
        <ele>427.06640625</ele>
        <time>2019-09-15T10:15:34Z</time>
      </trkpt>
      <trkpt lat="43.24642" lon="6.02456">
        <ele>426.9453125</ele>
        <time>2019-09-15T10:15:56Z</time>
      </trkpt>
      <trkpt lat="43.24641" lon="6.02457">
        <ele>426.828125</ele>
        <time>2019-09-15T10:16:17Z</time>
      </trkpt>
      <trkpt lat="43.24641" lon="6.02458">
        <ele>426.87890625</ele>
        <time>2019-09-15T10:16:33Z</time>
      </trkpt>
      <trkpt lat="43.24641" lon="6.02456">
        <ele>426.84765625</ele>
        <time>2019-09-15T10:16:57Z</time>
      </trkpt>
      <trkpt lat="43.24643" lon="6.02459">
        <ele>427.046875</ele>
        <time>2019-09-15T10:17:24Z</time>
      </trkpt>
      <trkpt lat="43.24645" lon="6.0246">
        <ele>427.19921875</ele>
        <time>2019-09-15T10:17:29Z</time>
      </trkpt>
      <trkpt lat="43.24645" lon="6.02461">
        <ele>427.28515625</ele>
        <time>2019-09-15T10:17:30Z</time>
      </trkpt>
      <trkpt lat="43.24646" lon="6.02463">
        <ele>427.34765625</ele>
        <time>2019-09-15T10:17:31Z</time>
      </trkpt>
      <trkpt lat="43.24647" lon="6.02466">
        <ele>427.4375</ele>
        <time>2019-09-15T10:17:32Z</time>
      </trkpt>
      <trkpt lat="43.24649" lon="6.02468">
        <ele>427.5703125</ele>
        <time>2019-09-15T10:17:33Z</time>
      </trkpt>
      <trkpt lat="43.24652" lon="6.02471">
        <ele>427.77734375</ele>
        <time>2019-09-15T10:17:34Z</time>
      </trkpt>
      <trkpt lat="43.24654" lon="6.02475">
        <ele>427.9453125</ele>
        <time>2019-09-15T10:17:35Z</time>
      </trkpt>
      <trkpt lat="43.24656" lon="6.02479">
        <ele>427.9609375</ele>
        <time>2019-09-15T10:17:36Z</time>
      </trkpt>
      <trkpt lat="43.24657" lon="6.02484">
        <ele>427.859375</ele>
        <time>2019-09-15T10:17:37Z</time>
      </trkpt>
      <trkpt lat="43.24656" lon="6.02487">
        <ele>427.72265625</ele>
        <time>2019-09-15T10:17:38Z</time>
      </trkpt>
      <trkpt lat="43.24657" lon="6.02489">
        <ele>427.71484375</ele>
        <time>2019-09-15T10:17:39Z</time>
      </trkpt>
      <trkpt lat="43.24658" lon="6.02485">
        <ele>427.9375</ele>
        <time>2019-09-15T10:17:44Z</time>
      </trkpt>
      <trkpt lat="43.24657" lon="6.02483">
        <ele>427.92578125</ele>
        <time>2019-09-15T10:17:45Z</time>
      </trkpt>
      <trkpt lat="43.24656" lon="6.0248">
        <ele>427.87890625</ele>
        <time>2019-09-15T10:17:46Z</time>
      </trkpt>
      <trkpt lat="43.24654" lon="6.02477">
        <ele>427.80859375</ele>
        <time>2019-09-15T10:17:47Z</time>
      </trkpt>
      <trkpt lat="43.24652" lon="6.02474">
        <ele>427.66796875</ele>
        <time>2019-09-15T10:17:48Z</time>
      </trkpt>
      <trkpt lat="43.24649" lon="6.02472">
        <ele>427.48046875</ele>
        <time>2019-09-15T10:17:49Z</time>
      </trkpt>
      <trkpt lat="43.24647" lon="6.02473">
        <ele>427.2109375</ele>
        <time>2019-09-15T10:17:50Z</time>
      </trkpt>
      <trkpt lat="43.24645" lon="6.02476">
        <ele>426.91796875</ele>
        <time>2019-09-15T10:17:51Z</time>
      </trkpt>
      <trkpt lat="43.24645" lon="6.0248">
        <ele>426.7109375</ele>
        <time>2019-09-15T10:17:52Z</time>
      </trkpt>
      <trkpt lat="43.24645" lon="6.02485">
        <ele>426.5859375</ele>
        <time>2019-09-15T10:17:53Z</time>
      </trkpt>
      <trkpt lat="43.24646" lon="6.0249">
        <ele>426.47265625</ele>
        <time>2019-09-15T10:17:54Z</time>
      </trkpt>
      <trkpt lat="43.24646" lon="6.02496">
        <ele>426.234375</ele>
        <time>2019-09-15T10:17:55Z</time>
      </trkpt>
      <trkpt lat="43.24646" lon="6.02503">
        <ele>425.76171875</ele>
        <time>2019-09-15T10:17:56Z</time>
      </trkpt>
      <trkpt lat="43.24645" lon="6.02518">
        <ele>424.609375</ele>
        <time>2019-09-15T10:17:58Z</time>
      </trkpt>
      <trkpt lat="43.24644" lon="6.02539">
        <ele>422.9453125</ele>
        <time>2019-09-15T10:18:01Z</time>
      </trkpt>
      <trkpt lat="43.24644" lon="6.02547">
        <ele>422.3359375</ele>
        <time>2019-09-15T10:18:02Z</time>
      </trkpt>
      <trkpt lat="43.24644" lon="6.02564">
        <ele>421.09765625</ele>
        <time>2019-09-15T10:18:05Z</time>
      </trkpt>
      <trkpt lat="43.24643" lon="6.02566">
        <ele>420.8828125</ele>
        <time>2019-09-15T10:18:06Z</time>
      </trkpt>
      <trkpt lat="43.24643" lon="6.02569">
        <ele>420.6484375</ele>
        <time>2019-09-15T10:18:07Z</time>
      </trkpt>
      <trkpt lat="43.24643" lon="6.02571">
        <ele>420.43359375</ele>
        <time>2019-09-15T10:18:08Z</time>
      </trkpt>
      <trkpt lat="43.24643" lon="6.02574">
        <ele>420.25</ele>
        <time>2019-09-15T10:18:09Z</time>
      </trkpt>
      <trkpt lat="43.24643" lon="6.02576">
        <ele>420.046875</ele>
        <time>2019-09-15T10:18:10Z</time>
      </trkpt>
      <trkpt lat="43.24642" lon="6.0258">
        <ele>419.7578125</ele>
        <time>2019-09-15T10:18:11Z</time>
      </trkpt>
      <trkpt lat="43.24636" lon="6.02644">
        <ele>414.11328125</ele>
        <time>2019-09-15T10:18:18Z</time>
      </trkpt>
      <trkpt lat="43.24632" lon="6.02669">
        <ele>411.3828125</ele>
        <time>2019-09-15T10:18:20Z</time>
      </trkpt>
      <trkpt lat="43.24626" lon="6.02711">
        <ele>407.03125</ele>
        <time>2019-09-15T10:18:23Z</time>
      </trkpt>
      <trkpt lat="43.24624" lon="6.02756">
        <ele>403.36328125</ele>
        <time>2019-09-15T10:18:26Z</time>
      </trkpt>
      <trkpt lat="43.24622" lon="6.0277">
        <ele>402.12109375</ele>
        <time>2019-09-15T10:18:27Z</time>
      </trkpt>
      <trkpt lat="43.24619" lon="6.02783">
        <ele>400.29296875</ele>
        <time>2019-09-15T10:18:28Z</time>
      </trkpt>
      <trkpt lat="43.24605" lon="6.02823">
        <ele>394.95703125</ele>
        <time>2019-09-15T10:18:31Z</time>
      </trkpt>
      <trkpt lat="43.24601" lon="6.02837">
        <ele>393.34765625</ele>
        <time>2019-09-15T10:18:32Z</time>
      </trkpt>
      <trkpt lat="43.24589" lon="6.02878">
        <ele>388.6015625</ele>
        <time>2019-09-15T10:18:35Z</time>
      </trkpt>
      <trkpt lat="43.24576" lon="6.02935">
        <ele>383.91796875</ele>
        <time>2019-09-15T10:18:39Z</time>
      </trkpt>
      <trkpt lat="43.2456" lon="6.03018">
        <ele>379.12109375</ele>
        <time>2019-09-15T10:18:45Z</time>
      </trkpt>
      <trkpt lat="43.24554" lon="6.03045">
        <ele>377.5078125</ele>
        <time>2019-09-15T10:18:47Z</time>
      </trkpt>
      <trkpt lat="43.24548" lon="6.03073">
        <ele>375.9375</ele>
        <time>2019-09-15T10:18:49Z</time>
      </trkpt>
      <trkpt lat="43.24544" lon="6.03131">
        <ele>372.640625</ele>
        <time>2019-09-15T10:18:53Z</time>
      </trkpt>
      <trkpt lat="43.24545" lon="6.03145">
        <ele>371.70703125</ele>
        <time>2019-09-15T10:18:54Z</time>
      </trkpt>
      <trkpt lat="43.24547" lon="6.03159">
        <ele>370.9921875</ele>
        <time>2019-09-15T10:18:55Z</time>
      </trkpt>
      <trkpt lat="43.2455" lon="6.03174">
        <ele>370.6328125</ele>
        <time>2019-09-15T10:18:56Z</time>
      </trkpt>
      <trkpt lat="43.24556" lon="6.03203">
        <ele>369.35546875</ele>
        <time>2019-09-15T10:18:58Z</time>
      </trkpt>
      <trkpt lat="43.24566" lon="6.03259">
        <ele>366.47265625</ele>
        <time>2019-09-15T10:19:02Z</time>
      </trkpt>
      <trkpt lat="43.24579" lon="6.0336">
        <ele>362.4296875</ele>
        <time>2019-09-15T10:19:09Z</time>
      </trkpt>
      <trkpt lat="43.24579" lon="6.03438">
        <ele>359.70703125</ele>
        <time>2019-09-15T10:19:15Z</time>
      </trkpt>
      <trkpt lat="43.24579" lon="6.03478">
        <ele>356.984375</ele>
        <time>2019-09-15T10:19:18Z</time>
      </trkpt>
      <trkpt lat="43.24579" lon="6.03492">
        <ele>356.41015625</ele>
        <time>2019-09-15T10:19:19Z</time>
      </trkpt>
      <trkpt lat="43.2458" lon="6.03532">
        <ele>354.3046875</ele>
        <time>2019-09-15T10:19:23Z</time>
      </trkpt>
      <trkpt lat="43.2458" lon="6.03537">
        <ele>353.80078125</ele>
        <time>2019-09-15T10:19:24Z</time>
      </trkpt>
      <trkpt lat="43.24578" lon="6.03539">
        <ele>353.06640625</ele>
        <time>2019-09-15T10:19:25Z</time>
      </trkpt>
      <trkpt lat="43.24575" lon="6.0354">
        <ele>352.171875</ele>
        <time>2019-09-15T10:19:26Z</time>
      </trkpt>
      <trkpt lat="43.24573" lon="6.03539">
        <ele>351.23046875</ele>
        <time>2019-09-15T10:19:27Z</time>
      </trkpt>
      <trkpt lat="43.2457" lon="6.03537">
        <ele>350.60546875</ele>
        <time>2019-09-15T10:19:28Z</time>
      </trkpt>
      <trkpt lat="43.24569" lon="6.03534">
        <ele>350.25390625</ele>
        <time>2019-09-15T10:19:29Z</time>
      </trkpt>
      <trkpt lat="43.24568" lon="6.03529">
        <ele>350.32421875</ele>
        <time>2019-09-15T10:19:30Z</time>
      </trkpt>
      <trkpt lat="43.24568" lon="6.03525">
        <ele>350.46875</ele>
        <time>2019-09-15T10:19:31Z</time>
      </trkpt>
      <trkpt lat="43.24567" lon="6.0352">
        <ele>350.49609375</ele>
        <time>2019-09-15T10:19:32Z</time>
      </trkpt>
      <trkpt lat="43.24566" lon="6.03516">
        <ele>350.36328125</ele>
        <time>2019-09-15T10:19:33Z</time>
      </trkpt>
      <trkpt lat="43.24564" lon="6.03511">
        <ele>350.19140625</ele>
        <time>2019-09-15T10:19:34Z</time>
      </trkpt>
      <trkpt lat="43.24562" lon="6.03506">
        <ele>350.06640625</ele>
        <time>2019-09-15T10:19:35Z</time>
      </trkpt>
      <trkpt lat="43.24534" lon="6.03417">
        <ele>346.2578125</ele>
        <time>2019-09-15T10:19:47Z</time>
      </trkpt>
      <trkpt lat="43.24505" lon="6.03338">
        <ele>341.9453125</ele>
        <time>2019-09-15T10:19:55Z</time>
      </trkpt>
      <trkpt lat="43.24502" lon="6.03332">
        <ele>341.22265625</ele>
        <time>2019-09-15T10:19:56Z</time>
      </trkpt>
      <trkpt lat="43.24499" lon="6.03329">
        <ele>340.44921875</ele>
        <time>2019-09-15T10:19:57Z</time>
      </trkpt>
      <trkpt lat="43.24496" lon="6.03329">
        <ele>339.4609375</ele>
        <time>2019-09-15T10:19:58Z</time>
      </trkpt>
      <trkpt lat="43.24492" lon="6.0333">
        <ele>338.20703125</ele>
        <time>2019-09-15T10:19:59Z</time>
      </trkpt>
      <trkpt lat="43.24489" lon="6.03333">
        <ele>337.23828125</ele>
        <time>2019-09-15T10:20:00Z</time>
      </trkpt>
      <trkpt lat="43.24488" lon="6.03335">
        <ele>336.58984375</ele>
        <time>2019-09-15T10:20:01Z</time>
      </trkpt>
      <trkpt lat="43.24487" lon="6.03337">
        <ele>336.1015625</ele>
        <time>2019-09-15T10:20:02Z</time>
      </trkpt>
      <trkpt lat="43.24489" lon="6.0334">
        <ele>336.5703125</ele>
        <time>2019-09-15T10:20:13Z</time>
      </trkpt>
      <trkpt lat="43.24489" lon="6.03343">
        <ele>336.51953125</ele>
        <time>2019-09-15T10:20:27Z</time>
      </trkpt>
      <trkpt lat="43.24489" lon="6.03343">
        <ele>336.29296875</ele>
        <time>2019-09-15T10:20:43Z</time>
      </trkpt>
      <trkpt lat="43.24489" lon="6.03345">
        <ele>336.3515625</ele>
        <time>2019-09-15T10:20:44Z</time>
      </trkpt>
      <trkpt lat="43.2449" lon="6.03352">
        <ele>336.23046875</ele>
        <time>2019-09-15T10:20:53Z</time>
      </trkpt>
      <trkpt lat="43.24493" lon="6.03386">
        <ele>334.80078125</ele>
        <time>2019-09-15T10:20:58Z</time>
      </trkpt>
      <trkpt lat="43.24494" lon="6.03438">
        <ele>330.29296875</ele>
        <time>2019-09-15T10:21:03Z</time>
      </trkpt>
      <trkpt lat="43.24493" lon="6.03474">
        <ele>327.41796875</ele>
        <time>2019-09-15T10:21:06Z</time>
      </trkpt>
      <trkpt lat="43.24492" lon="6.03487">
        <ele>326.55859375</ele>
        <time>2019-09-15T10:21:07Z</time>
      </trkpt>
      <trkpt lat="43.24491" lon="6.03528">
        <ele>324.19921875</ele>
        <time>2019-09-15T10:21:10Z</time>
      </trkpt>
      <trkpt lat="43.24487" lon="6.03557">
        <ele>321.1484375</ele>
        <time>2019-09-15T10:21:12Z</time>
      </trkpt>
      <trkpt lat="43.24483" lon="6.03571">
        <ele>319.12890625</ele>
        <time>2019-09-15T10:21:13Z</time>
      </trkpt>
      <trkpt lat="43.24477" lon="6.03585">
        <ele>316.66796875</ele>
        <time>2019-09-15T10:21:14Z</time>
      </trkpt>
      <trkpt lat="43.24471" lon="6.03598">
        <ele>314.62109375</ele>
        <time>2019-09-15T10:21:15Z</time>
      </trkpt>
      <trkpt lat="43.24464" lon="6.0361">
        <ele>312.77734375</ele>
        <time>2019-09-15T10:21:16Z</time>
      </trkpt>
      <trkpt lat="43.24458" lon="6.03622">
        <ele>311.046875</ele>
        <time>2019-09-15T10:21:17Z</time>
      </trkpt>
      <trkpt lat="43.24448" lon="6.03643">
        <ele>308.125</ele>
        <time>2019-09-15T10:21:19Z</time>
      </trkpt>
      <trkpt lat="43.24445" lon="6.03655">
        <ele>306.8046875</ele>
        <time>2019-09-15T10:21:20Z</time>
      </trkpt>
      <trkpt lat="43.24443" lon="6.03669">
        <ele>305.609375</ele>
        <time>2019-09-15T10:21:21Z</time>
      </trkpt>
      <trkpt lat="43.24442" lon="6.03682">
        <ele>304.60546875</ele>
        <time>2019-09-15T10:21:22Z</time>
      </trkpt>
      <trkpt lat="43.24441" lon="6.03697">
        <ele>303.7890625</ele>
        <time>2019-09-15T10:21:23Z</time>
      </trkpt>
      <trkpt lat="43.2444" lon="6.03711">
        <ele>302.9296875</ele>
        <time>2019-09-15T10:21:24Z</time>
      </trkpt>
      <trkpt lat="43.24437" lon="6.03726">
        <ele>301.828125</ele>
        <time>2019-09-15T10:21:25Z</time>
      </trkpt>
      <trkpt lat="43.24434" lon="6.0374">
        <ele>300.51953125</ele>
        <time>2019-09-15T10:21:26Z</time>
      </trkpt>
      <trkpt lat="43.24426" lon="6.03768">
        <ele>298.09375</ele>
        <time>2019-09-15T10:21:28Z</time>
      </trkpt>
      <trkpt lat="43.24422" lon="6.03782">
        <ele>296.81640625</ele>
        <time>2019-09-15T10:21:29Z</time>
      </trkpt>
      <trkpt lat="43.24415" lon="6.03794">
        <ele>295.46484375</ele>
        <time>2019-09-15T10:21:30Z</time>
      </trkpt>
      <trkpt lat="43.24408" lon="6.03803">
        <ele>293.9765625</ele>
        <time>2019-09-15T10:21:31Z</time>
      </trkpt>
      <trkpt lat="43.244" lon="6.03811">
        <ele>292.5078125</ele>
        <time>2019-09-15T10:21:32Z</time>
      </trkpt>
      <trkpt lat="43.24393" lon="6.03819">
        <ele>291.26171875</ele>
        <time>2019-09-15T10:21:33Z</time>
      </trkpt>
      <trkpt lat="43.24388" lon="6.03827">
        <ele>290.7890625</ele>
        <time>2019-09-15T10:21:34Z</time>
      </trkpt>
      <trkpt lat="43.24385" lon="6.03836">
        <ele>290.265625</ele>
        <time>2019-09-15T10:21:35Z</time>
      </trkpt>
      <trkpt lat="43.24383" lon="6.03846">
        <ele>289.6796875</ele>
        <time>2019-09-15T10:21:36Z</time>
      </trkpt>
      <trkpt lat="43.24382" lon="6.03857">
        <ele>289.21484375</ele>
        <time>2019-09-15T10:21:37Z</time>
      </trkpt>
      <trkpt lat="43.24381" lon="6.03868">
        <ele>289.16015625</ele>
        <time>2019-09-15T10:21:38Z</time>
      </trkpt>
      <trkpt lat="43.24373" lon="6.03934">
        <ele>287.8125</ele>
        <time>2019-09-15T10:21:44Z</time>
      </trkpt>
      <trkpt lat="43.24369" lon="6.03944">
        <ele>287.46484375</ele>
        <time>2019-09-15T10:21:45Z</time>
      </trkpt>
      <trkpt lat="43.24365" lon="6.03953">
        <ele>286.96875</ele>
        <time>2019-09-15T10:21:46Z</time>
      </trkpt>
      <trkpt lat="43.24313" lon="6.04019">
        <ele>284.9921875</ele>
        <time>2019-09-15T10:21:57Z</time>
      </trkpt>
      <trkpt lat="43.24296" lon="6.04053">
        <ele>284.74609375</ele>
        <time>2019-09-15T10:22:08Z</time>
      </trkpt>
      <trkpt lat="43.24277" lon="6.04107">
        <ele>281.078125</ele>
        <time>2019-09-15T10:22:19Z</time>
      </trkpt>
      <trkpt lat="43.2426" lon="6.04166">
        <ele>279.11328125</ele>
        <time>2019-09-15T10:22:28Z</time>
      </trkpt>
      <trkpt lat="43.24253" lon="6.04197">
        <ele>277.375</ele>
        <time>2019-09-15T10:22:33Z</time>
      </trkpt>
      <trkpt lat="43.24251" lon="6.04202">
        <ele>277.08203125</ele>
        <time>2019-09-15T10:22:34Z</time>
      </trkpt>
      <trkpt lat="43.2425" lon="6.04208">
        <ele>276.77734375</ele>
        <time>2019-09-15T10:22:35Z</time>
      </trkpt>
      <trkpt lat="43.24227" lon="6.0431">
        <ele>271.01953125</ele>
        <time>2019-09-15T10:22:50Z</time>
      </trkpt>
      <trkpt lat="43.24225" lon="6.04337">
        <ele>270.1484375</ele>
        <time>2019-09-15T10:22:54Z</time>
      </trkpt>
      <trkpt lat="43.24222" lon="6.04354">
        <ele>270.48046875</ele>
        <time>2019-09-15T10:22:57Z</time>
      </trkpt>
      <trkpt lat="43.2422" lon="6.0436">
        <ele>270.9453125</ele>
        <time>2019-09-15T10:22:58Z</time>
      </trkpt>
      <trkpt lat="43.24202" lon="6.04413">
        <ele>275.96484375</ele>
        <time>2019-09-15T10:23:13Z</time>
      </trkpt>
      <trkpt lat="43.24202" lon="6.04416">
        <ele>275.93359375</ele>
        <time>2019-09-15T10:23:26Z</time>
      </trkpt>
      <trkpt lat="43.24201" lon="6.04417">
        <ele>276.19140625</ele>
        <time>2019-09-15T10:23:48Z</time>
      </trkpt>
      <trkpt lat="43.24201" lon="6.0442">
        <ele>276.4453125</ele>
        <time>2019-09-15T10:23:49Z</time>
      </trkpt>
      <trkpt lat="43.242" lon="6.04423">
        <ele>276.6796875</ele>
        <time>2019-09-15T10:23:50Z</time>
      </trkpt>
      <trkpt lat="43.24199" lon="6.04426">
        <ele>276.97265625</ele>
        <time>2019-09-15T10:23:51Z</time>
      </trkpt>
      <trkpt lat="43.24197" lon="6.0443">
        <ele>277.04296875</ele>
        <time>2019-09-15T10:23:52Z</time>
      </trkpt>
      <trkpt lat="43.24183" lon="6.04475">
        <ele>278.1171875</ele>
        <time>2019-09-15T10:24:02Z</time>
      </trkpt>
      <trkpt lat="43.2415" lon="6.04556">
        <ele>277.93359375</ele>
        <time>2019-09-15T10:24:11Z</time>
      </trkpt>
      <trkpt lat="43.24145" lon="6.04566">
        <ele>277.953125</ele>
        <time>2019-09-15T10:24:12Z</time>
      </trkpt>
      <trkpt lat="43.24128" lon="6.04605">
        <ele>275.90625</ele>
        <time>2019-09-15T10:24:16Z</time>
      </trkpt>
      <trkpt lat="43.24114" lon="6.04654">
        <ele>272.3125</ele>
        <time>2019-09-15T10:24:21Z</time>
      </trkpt>
      <trkpt lat="43.24112" lon="6.04663">
        <ele>271.6640625</ele>
        <time>2019-09-15T10:24:22Z</time>
      </trkpt>
      <trkpt lat="43.24112" lon="6.04672">
        <ele>271.02734375</ele>
        <time>2019-09-15T10:24:23Z</time>
      </trkpt>
      <trkpt lat="43.24112" lon="6.04682">
        <ele>270.3671875</ele>
        <time>2019-09-15T10:24:24Z</time>
      </trkpt>
      <trkpt lat="43.24112" lon="6.04702">
        <ele>267.984375</ele>
        <time>2019-09-15T10:24:26Z</time>
      </trkpt>
      <trkpt lat="43.24115" lon="6.04723">
        <ele>264.8984375</ele>
        <time>2019-09-15T10:24:28Z</time>
      </trkpt>
      <trkpt lat="43.24119" lon="6.04744">
        <ele>261.29296875</ele>
        <time>2019-09-15T10:24:30Z</time>
      </trkpt>
      <trkpt lat="43.2412" lon="6.04754">
        <ele>259.28125</ele>
        <time>2019-09-15T10:24:31Z</time>
      </trkpt>
      <trkpt lat="43.24119" lon="6.04763">
        <ele>257.5234375</ele>
        <time>2019-09-15T10:24:32Z</time>
      </trkpt>
      <trkpt lat="43.24117" lon="6.04773">
        <ele>256.3828125</ele>
        <time>2019-09-15T10:24:33Z</time>
      </trkpt>
      <trkpt lat="43.24113" lon="6.04782">
        <ele>255.8515625</ele>
        <time>2019-09-15T10:24:34Z</time>
      </trkpt>
      <trkpt lat="43.24106" lon="6.04801">
        <ele>254.7109375</ele>
        <time>2019-09-15T10:24:36Z</time>
      </trkpt>
      <trkpt lat="43.24098" lon="6.04832">
        <ele>252.8359375</ele>
        <time>2019-09-15T10:24:39Z</time>
      </trkpt>
      <trkpt lat="43.24092" lon="6.04863">
        <ele>251.5546875</ele>
        <time>2019-09-15T10:24:42Z</time>
      </trkpt>
      <trkpt lat="43.24091" lon="6.04874">
        <ele>250.68359375</ele>
        <time>2019-09-15T10:24:43Z</time>
      </trkpt>
      <trkpt lat="43.2409" lon="6.04895">
        <ele>248.6484375</ele>
        <time>2019-09-15T10:24:45Z</time>
      </trkpt>
      <trkpt lat="43.24091" lon="6.04902">
        <ele>247.359375</ele>
        <time>2019-09-15T10:24:46Z</time>
      </trkpt>
      <trkpt lat="43.24092" lon="6.04907">
        <ele>246.24609375</ele>
        <time>2019-09-15T10:24:47Z</time>
      </trkpt>
      <trkpt lat="43.24094" lon="6.04909">
        <ele>245.1328125</ele>
        <time>2019-09-15T10:24:48Z</time>
      </trkpt>
      <trkpt lat="43.24096" lon="6.04908">
        <ele>244.28125</ele>
        <time>2019-09-15T10:24:49Z</time>
      </trkpt>
      <trkpt lat="43.24098" lon="6.04907">
        <ele>243.7421875</ele>
        <time>2019-09-15T10:24:50Z</time>
      </trkpt>
      <trkpt lat="43.241" lon="6.04904">
        <ele>243.4453125</ele>
        <time>2019-09-15T10:24:51Z</time>
      </trkpt>
      <trkpt lat="43.24101" lon="6.04902">
        <ele>243.15625</ele>
        <time>2019-09-15T10:24:52Z</time>
      </trkpt>
      <trkpt lat="43.24116" lon="6.04872">
        <ele>241.375</ele>
        <time>2019-09-15T10:25:04Z</time>
      </trkpt>
      <trkpt lat="43.24122" lon="6.04864">
        <ele>240.1796875</ele>
        <time>2019-09-15T10:25:06Z</time>
      </trkpt>
      <trkpt lat="43.24135" lon="6.04841">
        <ele>239.1171875</ele>
        <time>2019-09-15T10:25:10Z</time>
      </trkpt>
      <trkpt lat="43.24148" lon="6.0482">
        <ele>238.67578125</ele>
        <time>2019-09-15T10:25:13Z</time>
      </trkpt>
      <trkpt lat="43.24153" lon="6.04814">
        <ele>238.22265625</ele>
        <time>2019-09-15T10:25:14Z</time>
      </trkpt>
      <trkpt lat="43.24158" lon="6.04811">
        <ele>237.31640625</ele>
        <time>2019-09-15T10:25:15Z</time>
      </trkpt>
      <trkpt lat="43.24161" lon="6.04811">
        <ele>236.03515625</ele>
        <time>2019-09-15T10:25:16Z</time>
      </trkpt>
      <trkpt lat="43.24163" lon="6.04815">
        <ele>234.7578125</ele>
        <time>2019-09-15T10:25:17Z</time>
      </trkpt>
      <trkpt lat="43.24163" lon="6.04819">
        <ele>233.984375</ele>
        <time>2019-09-15T10:25:18Z</time>
      </trkpt>
      <trkpt lat="43.24161" lon="6.04824">
        <ele>233.64453125</ele>
        <time>2019-09-15T10:25:19Z</time>
      </trkpt>
      <trkpt lat="43.24158" lon="6.04829">
        <ele>233.7890625</ele>
        <time>2019-09-15T10:25:20Z</time>
      </trkpt>
      <trkpt lat="43.24154" lon="6.04834">
        <ele>234.00390625</ele>
        <time>2019-09-15T10:25:21Z</time>
      </trkpt>
      <trkpt lat="43.24151" lon="6.04839">
        <ele>233.92578125</ele>
        <time>2019-09-15T10:25:22Z</time>
      </trkpt>
      <trkpt lat="43.24148" lon="6.04846">
        <ele>233.4921875</ele>
        <time>2019-09-15T10:25:23Z</time>
      </trkpt>
      <trkpt lat="43.24145" lon="6.04853">
        <ele>232.6328125</ele>
        <time>2019-09-15T10:25:24Z</time>
      </trkpt>
      <trkpt lat="43.24144" lon="6.04862">
        <ele>231.3984375</ele>
        <time>2019-09-15T10:25:25Z</time>
      </trkpt>
      <trkpt lat="43.24143" lon="6.04871">
        <ele>230.1171875</ele>
        <time>2019-09-15T10:25:26Z</time>
      </trkpt>
      <trkpt lat="43.24139" lon="6.04901">
        <ele>226.234375</ele>
        <time>2019-09-15T10:25:29Z</time>
      </trkpt>
      <trkpt lat="43.24138" lon="6.04922">
        <ele>223.078125</ele>
        <time>2019-09-15T10:25:31Z</time>
      </trkpt>
      <trkpt lat="43.24129" lon="6.04966">
        <ele>222.69140625</ele>
        <time>2019-09-15T10:25:35Z</time>
      </trkpt>
      <trkpt lat="43.24113" lon="6.05016">
        <ele>223.53125</ele>
        <time>2019-09-15T10:25:40Z</time>
      </trkpt>
      <trkpt lat="43.24107" lon="6.05037">
        <ele>223.25</ele>
        <time>2019-09-15T10:25:43Z</time>
      </trkpt>
      <trkpt lat="43.24106" lon="6.05045">
        <ele>222.7109375</ele>
        <time>2019-09-15T10:25:44Z</time>
      </trkpt>
      <trkpt lat="43.24105" lon="6.05064">
        <ele>220.8671875</ele>
        <time>2019-09-15T10:25:46Z</time>
      </trkpt>
      <trkpt lat="43.24098" lon="6.05119">
        <ele>216.40234375</ele>
        <time>2019-09-15T10:25:51Z</time>
      </trkpt>
      <trkpt lat="43.24092" lon="6.05139">
        <ele>215.23046875</ele>
        <time>2019-09-15T10:25:53Z</time>
      </trkpt>
      <trkpt lat="43.24089" lon="6.05151">
        <ele>214.56640625</ele>
        <time>2019-09-15T10:25:54Z</time>
      </trkpt>
      <trkpt lat="43.24087" lon="6.05162">
        <ele>213.96484375</ele>
        <time>2019-09-15T10:25:55Z</time>
      </trkpt>
      <trkpt lat="43.24077" lon="6.05208">
        <ele>210.671875</ele>
        <time>2019-09-15T10:25:59Z</time>
      </trkpt>
      <trkpt lat="43.24071" lon="6.05259">
        <ele>207.265625</ele>
        <time>2019-09-15T10:26:03Z</time>
      </trkpt>
      <trkpt lat="43.24069" lon="6.05272">
        <ele>206.234375</ele>
        <time>2019-09-15T10:26:04Z</time>
      </trkpt>
      <trkpt lat="43.24064" lon="6.05312">
        <ele>203.78515625</ele>
        <time>2019-09-15T10:26:07Z</time>
      </trkpt>
      <trkpt lat="43.24057" lon="6.05353">
        <ele>201.88671875</ele>
        <time>2019-09-15T10:26:10Z</time>
      </trkpt>
      <trkpt lat="43.2405" lon="6.05394">
        <ele>199.4609375</ele>
        <time>2019-09-15T10:26:13Z</time>
      </trkpt>
      <trkpt lat="43.24043" lon="6.05447">
        <ele>196.36328125</ele>
        <time>2019-09-15T10:26:17Z</time>
      </trkpt>
      <trkpt lat="43.24042" lon="6.0546">
        <ele>195.3515625</ele>
        <time>2019-09-15T10:26:18Z</time>
      </trkpt>
      <trkpt lat="43.24038" lon="6.05488">
        <ele>193.4765625</ele>
        <time>2019-09-15T10:26:20Z</time>
      </trkpt>
      <trkpt lat="43.24033" lon="6.0553">
        <ele>191.171875</ele>
        <time>2019-09-15T10:26:23Z</time>
      </trkpt>
      <trkpt lat="43.2402" lon="6.05601">
        <ele>188.6171875</ele>
        <time>2019-09-15T10:26:28Z</time>
      </trkpt>
      <trkpt lat="43.24006" lon="6.05657">
        <ele>185.38671875</ele>
        <time>2019-09-15T10:26:32Z</time>
      </trkpt>
      <trkpt lat="43.24004" lon="6.0567">
        <ele>184.59765625</ele>
        <time>2019-09-15T10:26:33Z</time>
      </trkpt>
      <trkpt lat="43.24003" lon="6.05682">
        <ele>184.37109375</ele>
        <time>2019-09-15T10:26:34Z</time>
      </trkpt>
      <trkpt lat="43.24002" lon="6.05695">
        <ele>184.33203125</ele>
        <time>2019-09-15T10:26:35Z</time>
      </trkpt>
      <trkpt lat="43.23996" lon="6.05737">
        <ele>184.41015625</ele>
        <time>2019-09-15T10:26:38Z</time>
      </trkpt>
      <trkpt lat="43.23996" lon="6.0575">
        <ele>184.125</ele>
        <time>2019-09-15T10:26:39Z</time>
      </trkpt>
      <trkpt lat="43.23997" lon="6.05764">
        <ele>183.8359375</ele>
        <time>2019-09-15T10:26:40Z</time>
      </trkpt>
      <trkpt lat="43.23998" lon="6.05777">
        <ele>183.734375</ele>
        <time>2019-09-15T10:26:41Z</time>
      </trkpt>
      <trkpt lat="43.24" lon="6.05786">
        <ele>183.765625</ele>
        <time>2019-09-15T10:26:42Z</time>
      </trkpt>
      <trkpt lat="43.24002" lon="6.05791">
        <ele>183.83984375</ele>
        <time>2019-09-15T10:26:43Z</time>
      </trkpt>
      <trkpt lat="43.24003" lon="6.05794">
        <ele>183.91015625</ele>
        <time>2019-09-15T10:26:45Z</time>
      </trkpt>
      <trkpt lat="43.24002" lon="6.05796">
        <ele>183.81640625</ele>
        <time>2019-09-15T10:26:59Z</time>
      </trkpt>
      <trkpt lat="43.24005" lon="6.05797">
        <ele>184.16015625</ele>
        <time>2019-09-15T10:27:30Z</time>
      </trkpt>
      <trkpt lat="43.24005" lon="6.05798">
        <ele>184.07421875</ele>
        <time>2019-09-15T10:28:01Z</time>
      </trkpt>
      <trkpt lat="43.24004" lon="6.05801">
        <ele>183.94140625</ele>
        <time>2019-09-15T10:28:17Z</time>
      </trkpt>
      <trkpt lat="43.24003" lon="6.05804">
        <ele>183.92578125</ele>
        <time>2019-09-15T10:28:18Z</time>
      </trkpt>
      <trkpt lat="43.24004" lon="6.05807">
        <ele>183.94140625</ele>
        <time>2019-09-15T10:28:19Z</time>
      </trkpt>
      <trkpt lat="43.24003" lon="6.05813">
        <ele>183.91015625</ele>
        <time>2019-09-15T10:28:20Z</time>
      </trkpt>
      <trkpt lat="43.24003" lon="6.05819">
        <ele>183.86328125</ele>
        <time>2019-09-15T10:28:21Z</time>
      </trkpt>
      <trkpt lat="43.24003" lon="6.05828">
        <ele>183.8046875</ele>
        <time>2019-09-15T10:28:22Z</time>
      </trkpt>
      <trkpt lat="43.24002" lon="6.05836">
        <ele>183.6640625</ele>
        <time>2019-09-15T10:28:23Z</time>
      </trkpt>
      <trkpt lat="43.24" lon="6.05844">
        <ele>183.44921875</ele>
        <time>2019-09-15T10:28:24Z</time>
      </trkpt>
      <trkpt lat="43.23998" lon="6.05858">
        <ele>183.046875</ele>
        <time>2019-09-15T10:28:26Z</time>
      </trkpt>
      <trkpt lat="43.23997" lon="6.05864">
        <ele>182.94140625</ele>
        <time>2019-09-15T10:28:27Z</time>
      </trkpt>
      <trkpt lat="43.23996" lon="6.05869">
        <ele>182.73828125</ele>
        <time>2019-09-15T10:28:28Z</time>
      </trkpt>
      <trkpt lat="43.23994" lon="6.05874">
        <ele>182.54296875</ele>
        <time>2019-09-15T10:28:29Z</time>
      </trkpt>
      <trkpt lat="43.23993" lon="6.0588">
        <ele>182.421875</ele>
        <time>2019-09-15T10:28:30Z</time>
      </trkpt>
      <trkpt lat="43.23993" lon="6.05886">
        <ele>182.4375</ele>
        <time>2019-09-15T10:28:31Z</time>
      </trkpt>
      <trkpt lat="43.2399" lon="6.05898">
        <ele>182.31640625</ele>
        <time>2019-09-15T10:28:33Z</time>
      </trkpt>
      <trkpt lat="43.23984" lon="6.05931">
        <ele>181.66015625</ele>
        <time>2019-09-15T10:28:42Z</time>
      </trkpt>
      <trkpt lat="43.23983" lon="6.05932">
        <ele>181.45703125</ele>
        <time>2019-09-15T10:28:43Z</time>
      </trkpt>
      <trkpt lat="43.23974" lon="6.05959">
        <ele>180.26171875</ele>
        <time>2019-09-15T10:28:52Z</time>
      </trkpt>
      <trkpt lat="43.23971" lon="6.05967">
        <ele>179.8046875</ele>
        <time>2019-09-15T10:28:54Z</time>
      </trkpt>
      <trkpt lat="43.23963" lon="6.05981">
        <ele>178.08203125</ele>
        <time>2019-09-15T10:28:57Z</time>
      </trkpt>
      <trkpt lat="43.2396" lon="6.05983">
        <ele>177.46484375</ele>
        <time>2019-09-15T10:28:58Z</time>
      </trkpt>
      <trkpt lat="43.23959" lon="6.05985">
        <ele>177.203125</ele>
        <time>2019-09-15T10:28:59Z</time>
      </trkpt>
      <trkpt lat="43.2396" lon="6.05988">
        <ele>177.38671875</ele>
        <time>2019-09-15T10:29:00Z</time>
      </trkpt>
      <trkpt lat="43.23962" lon="6.0599">
        <ele>177.8046875</ele>
        <time>2019-09-15T10:29:01Z</time>
      </trkpt>
      <trkpt lat="43.23966" lon="6.05988">
        <ele>178.62109375</ele>
        <time>2019-09-15T10:29:03Z</time>
      </trkpt>
      <trkpt lat="43.23968" lon="6.05984">
        <ele>179.05859375</ele>
        <time>2019-09-15T10:29:04Z</time>
      </trkpt>
      <trkpt lat="43.2397" lon="6.0598">
        <ele>179.5390625</ele>
        <time>2019-09-15T10:29:05Z</time>
      </trkpt>
      <trkpt lat="43.23986" lon="6.05952">
        <ele>182.9921875</ele>
        <time>2019-09-15T10:29:14Z</time>
      </trkpt>
      <trkpt lat="43.2399" lon="6.05945">
        <ele>183.6328125</ele>
        <time>2019-09-15T10:29:23Z</time>
      </trkpt>
      <trkpt lat="43.23998" lon="6.05918">
        <ele>184.46875</ele>
        <time>2019-09-15T10:29:30Z</time>
      </trkpt>
      <trkpt lat="43.23999" lon="6.0591">
        <ele>184.125</ele>
        <time>2019-09-15T10:29:31Z</time>
      </trkpt>
      <trkpt lat="43.24001" lon="6.05891">
        <ele>183.89453125</ele>
        <time>2019-09-15T10:29:34Z</time>
      </trkpt>
      <trkpt lat="43.24003" lon="6.05885">
        <ele>183.9375</ele>
        <time>2019-09-15T10:29:35Z</time>
      </trkpt>
      <trkpt lat="43.24005" lon="6.05879">
        <ele>184.1015625</ele>
        <time>2019-09-15T10:29:36Z</time>
      </trkpt>
      <trkpt lat="43.24006" lon="6.05873">
        <ele>184.67578125</ele>
        <time>2019-09-15T10:29:37Z</time>
      </trkpt>
      <trkpt lat="43.24008" lon="6.05867">
        <ele>185.33203125</ele>
        <time>2019-09-15T10:29:38Z</time>
      </trkpt>
      <trkpt lat="43.24012" lon="6.05853">
        <ele>186.5546875</ele>
        <time>2019-09-15T10:29:40Z</time>
      </trkpt>
      <trkpt lat="43.24014" lon="6.05846">
        <ele>187.12890625</ele>
        <time>2019-09-15T10:29:41Z</time>
      </trkpt>
      <trkpt lat="43.24015" lon="6.0584">
        <ele>187.13671875</ele>
        <time>2019-09-15T10:29:42Z</time>
      </trkpt>
      <trkpt lat="43.24015" lon="6.05833">
        <ele>187.0703125</ele>
        <time>2019-09-15T10:29:43Z</time>
      </trkpt>
      <trkpt lat="43.24015" lon="6.05826">
        <ele>187.01953125</ele>
        <time>2019-09-15T10:29:44Z</time>
      </trkpt>
      <trkpt lat="43.24015" lon="6.05821">
        <ele>186.9921875</ele>
        <time>2019-09-15T10:29:45Z</time>
      </trkpt>
      <trkpt lat="43.24015" lon="6.05817">
        <ele>187.14453125</ele>
        <time>2019-09-15T10:29:46Z</time>
      </trkpt>
      <trkpt lat="43.24014" lon="6.05813">
        <ele>186.890625</ele>
        <time>2019-09-15T10:29:47Z</time>
      </trkpt>
      <trkpt lat="43.24009" lon="6.05802">
        <ele>185.33984375</ele>
        <time>2019-09-15T10:29:59Z</time>
      </trkpt>
      <trkpt lat="43.24006" lon="6.058">
        <ele>184.359375</ele>
        <time>2019-09-15T10:30:21Z</time>
      </trkpt>
      <trkpt lat="43.24005" lon="6.05801">
        <ele>184.1875</ele>
        <time>2019-09-15T10:30:22Z</time>
      </trkpt>
      <trkpt lat="43.24005" lon="6.05805">
        <ele>184.0546875</ele>
        <time>2019-09-15T10:30:23Z</time>
      </trkpt>
      <trkpt lat="43.24003" lon="6.05834">
        <ele>183.86328125</ele>
        <time>2019-09-15T10:30:27Z</time>
      </trkpt>
      <trkpt lat="43.24" lon="6.05857">
        <ele>183.34375</ele>
        <time>2019-09-15T10:30:30Z</time>
      </trkpt>
      <trkpt lat="43.23999" lon="6.05864">
        <ele>183.20703125</ele>
        <time>2019-09-15T10:30:31Z</time>
      </trkpt>
      <trkpt lat="43.23997" lon="6.05871">
        <ele>183.0078125</ele>
        <time>2019-09-15T10:30:32Z</time>
      </trkpt>
      <trkpt lat="43.23996" lon="6.05878">
        <ele>182.79296875</ele>
        <time>2019-09-15T10:30:33Z</time>
      </trkpt>
      <trkpt lat="43.23995" lon="6.05885">
        <ele>182.71875</ele>
        <time>2019-09-15T10:30:34Z</time>
      </trkpt>
      <trkpt lat="43.23994" lon="6.05892">
        <ele>182.74609375</ele>
        <time>2019-09-15T10:30:35Z</time>
      </trkpt>
      <trkpt lat="43.2399" lon="6.05922">
        <ele>182.890625</ele>
        <time>2019-09-15T10:30:39Z</time>
      </trkpt>
      <trkpt lat="43.23988" lon="6.05928">
        <ele>182.734375</ele>
        <time>2019-09-15T10:30:40Z</time>
      </trkpt>
      <trkpt lat="43.23987" lon="6.05931">
        <ele>182.44921875</ele>
        <time>2019-09-15T10:30:41Z</time>
      </trkpt>
      <trkpt lat="43.23985" lon="6.05935">
        <ele>182.09765625</ele>
        <time>2019-09-15T10:30:42Z</time>
      </trkpt>
      <trkpt lat="43.23983" lon="6.05939">
        <ele>181.703125</ele>
        <time>2019-09-15T10:30:43Z</time>
      </trkpt>
      <trkpt lat="43.23981" lon="6.05944">
        <ele>181.453125</ele>
        <time>2019-09-15T10:30:44Z</time>
      </trkpt>
      <trkpt lat="43.2398" lon="6.05948">
        <ele>181.34765625</ele>
        <time>2019-09-15T10:30:45Z</time>
      </trkpt>
      <trkpt lat="43.23977" lon="6.0596">
        <ele>180.93359375</ele>
        <time>2019-09-15T10:30:56Z</time>
      </trkpt>
      <trkpt lat="43.23975" lon="6.05964">
        <ele>180.59375</ele>
        <time>2019-09-15T10:31:16Z</time>
      </trkpt>
      <trkpt lat="43.23971" lon="6.05973">
        <ele>179.78125</ele>
        <time>2019-09-15T10:31:41Z</time>
      </trkpt>
      <trkpt lat="43.23961" lon="6.05997">
        <ele>177.546875</ele>
        <time>2019-09-15T10:31:47Z</time>
      </trkpt>
      <trkpt lat="43.23958" lon="6.06003">
        <ele>176.99609375</ele>
        <time>2019-09-15T10:31:48Z</time>
      </trkpt>
      <trkpt lat="43.2395" lon="6.06032">
        <ele>174.875</ele>
        <time>2019-09-15T10:31:51Z</time>
      </trkpt>
      <trkpt lat="43.2395" lon="6.06043">
        <ele>174.5078125</ele>
        <time>2019-09-15T10:31:52Z</time>
      </trkpt>
      <trkpt lat="43.23952" lon="6.06054">
        <ele>174.51171875</ele>
        <time>2019-09-15T10:31:53Z</time>
      </trkpt>
      <trkpt lat="43.23957" lon="6.06075">
        <ele>174.6796875</ele>
        <time>2019-09-15T10:31:55Z</time>
      </trkpt>
      <trkpt lat="43.23958" lon="6.06085">
        <ele>174.10546875</ele>
        <time>2019-09-15T10:31:56Z</time>
      </trkpt>
      <trkpt lat="43.23961" lon="6.0612">
        <ele>172.40234375</ele>
        <time>2019-09-15T10:32:00Z</time>
      </trkpt>
      <trkpt lat="43.23963" lon="6.06127">
        <ele>172.25390625</ele>
        <time>2019-09-15T10:32:01Z</time>
      </trkpt>
      <trkpt lat="43.23973" lon="6.06154">
        <ele>171.06640625</ele>
        <time>2019-09-15T10:32:05Z</time>
      </trkpt>
      <trkpt lat="43.23982" lon="6.06186">
        <ele>168.26953125</ele>
        <time>2019-09-15T10:32:09Z</time>
      </trkpt>
      <trkpt lat="43.23983" lon="6.06194">
        <ele>167.5078125</ele>
        <time>2019-09-15T10:32:10Z</time>
      </trkpt>
      <trkpt lat="43.23982" lon="6.06203">
        <ele>166.7421875</ele>
        <time>2019-09-15T10:32:11Z</time>
      </trkpt>
      <trkpt lat="43.23974" lon="6.06242">
        <ele>162.9921875</ele>
        <time>2019-09-15T10:32:15Z</time>
      </trkpt>
      <trkpt lat="43.23973" lon="6.06253">
        <ele>162.2734375</ele>
        <time>2019-09-15T10:32:16Z</time>
      </trkpt>
      <trkpt lat="43.23973" lon="6.06264">
        <ele>161.53125</ele>
        <time>2019-09-15T10:32:17Z</time>
      </trkpt>
      <trkpt lat="43.23974" lon="6.06275">
        <ele>160.70703125</ele>
        <time>2019-09-15T10:32:18Z</time>
      </trkpt>
      <trkpt lat="43.23986" lon="6.06348">
        <ele>157.17578125</ele>
        <time>2019-09-15T10:32:24Z</time>
      </trkpt>
      <trkpt lat="43.23991" lon="6.06405">
        <ele>157.41015625</ele>
        <time>2019-09-15T10:32:28Z</time>
      </trkpt>
      <trkpt lat="43.23993" lon="6.06427">
        <ele>156.37109375</ele>
        <time>2019-09-15T10:32:30Z</time>
      </trkpt>
      <trkpt lat="43.23991" lon="6.06436">
        <ele>155.9765625</ele>
        <time>2019-09-15T10:32:31Z</time>
      </trkpt>
      <trkpt lat="43.2399" lon="6.06444">
        <ele>155.87109375</ele>
        <time>2019-09-15T10:32:32Z</time>
      </trkpt>
      <trkpt lat="43.23992" lon="6.06452">
        <ele>155.59765625</ele>
        <time>2019-09-15T10:32:33Z</time>
      </trkpt>
      <trkpt lat="43.23994" lon="6.06459">
        <ele>155.1875</ele>
        <time>2019-09-15T10:32:34Z</time>
      </trkpt>
      <trkpt lat="43.2401" lon="6.06492">
        <ele>152.359375</ele>
        <time>2019-09-15T10:32:41Z</time>
      </trkpt>
      <trkpt lat="43.24011" lon="6.06497">
        <ele>152.28515625</ele>
        <time>2019-09-15T10:32:52Z</time>
      </trkpt>
      <trkpt lat="43.24011" lon="6.06494">
        <ele>152.3515625</ele>
        <time>2019-09-15T10:33:18Z</time>
      </trkpt>
      <trkpt lat="43.24012" lon="6.06494">
        <ele>152.484375</ele>
        <time>2019-09-15T10:33:45Z</time>
      </trkpt>
      <trkpt lat="43.24012" lon="6.06496">
        <ele>152.41796875</ele>
        <time>2019-09-15T10:34:12Z</time>
      </trkpt>
      <trkpt lat="43.24012" lon="6.06496">
        <ele>152.421875</ele>
        <time>2019-09-15T10:34:45Z</time>
      </trkpt>
      <trkpt lat="43.24012" lon="6.06495">
        <ele>152.44921875</ele>
        <time>2019-09-15T10:35:13Z</time>
      </trkpt>
      <trkpt lat="43.24012" lon="6.06495">
        <ele>152.3984375</ele>
        <time>2019-09-15T10:35:40Z</time>
      </trkpt>
      <trkpt lat="43.24017" lon="6.065">
        <ele>152.5859375</ele>
        <time>2019-09-15T10:35:53Z</time>
      </trkpt>
      <trkpt lat="43.24018" lon="6.06498">
        <ele>152.73046875</ele>
        <time>2019-09-15T10:35:54Z</time>
      </trkpt>
      <trkpt lat="43.24018" lon="6.06495">
        <ele>152.82421875</ele>
        <time>2019-09-15T10:35:55Z</time>
      </trkpt>
      <trkpt lat="43.24017" lon="6.06493">
        <ele>152.875</ele>
        <time>2019-09-15T10:35:56Z</time>
      </trkpt>
      <trkpt lat="43.24016" lon="6.06491">
        <ele>152.88671875</ele>
        <time>2019-09-15T10:35:57Z</time>
      </trkpt>
      <trkpt lat="43.24014" lon="6.0649">
        <ele>152.8203125</ele>
        <time>2019-09-15T10:35:58Z</time>
      </trkpt>
      <trkpt lat="43.24013" lon="6.06494">
        <ele>152.5234375</ele>
        <time>2019-09-15T10:36:00Z</time>
      </trkpt>
      <trkpt lat="43.24012" lon="6.06497">
        <ele>152.33984375</ele>
        <time>2019-09-15T10:36:01Z</time>
      </trkpt>
      <trkpt lat="43.2401" lon="6.06501">
        <ele>152.11328125</ele>
        <time>2019-09-15T10:36:02Z</time>
      </trkpt>
      <trkpt lat="43.24009" lon="6.06505">
        <ele>151.890625</ele>
        <time>2019-09-15T10:36:03Z</time>
      </trkpt>
      <trkpt lat="43.24009" lon="6.06509">
        <ele>151.671875</ele>
        <time>2019-09-15T10:36:04Z</time>
      </trkpt>
      <trkpt lat="43.24009" lon="6.06538">
        <ele>151.24609375</ele>
        <time>2019-09-15T10:36:10Z</time>
      </trkpt>
      <trkpt lat="43.24009" lon="6.06543">
        <ele>151.19921875</ele>
        <time>2019-09-15T10:36:11Z</time>
      </trkpt>
      <trkpt lat="43.24008" lon="6.06548">
        <ele>151.1328125</ele>
        <time>2019-09-15T10:36:12Z</time>
      </trkpt>
      <trkpt lat="43.24007" lon="6.06553">
        <ele>151.07421875</ele>
        <time>2019-09-15T10:36:13Z</time>
      </trkpt>
      <trkpt lat="43.24005" lon="6.06557">
        <ele>151.01953125</ele>
        <time>2019-09-15T10:36:14Z</time>
      </trkpt>
      <trkpt lat="43.24003" lon="6.06562">
        <ele>151.1875</ele>
        <time>2019-09-15T10:36:15Z</time>
      </trkpt>
      <trkpt lat="43.24" lon="6.06566">
        <ele>151.56640625</ele>
        <time>2019-09-15T10:36:16Z</time>
      </trkpt>
      <trkpt lat="43.23996" lon="6.0657">
        <ele>151.921875</ele>
        <time>2019-09-15T10:36:17Z</time>
      </trkpt>
      <trkpt lat="43.23953" lon="6.06614">
        <ele>154.3359375</ele>
        <time>2019-09-15T10:36:32Z</time>
      </trkpt>
      <trkpt lat="43.239" lon="6.06657">
        <ele>154.8125</ele>
        <time>2019-09-15T10:36:48Z</time>
      </trkpt>
      <trkpt lat="43.23871" lon="6.06678">
        <ele>154.39453125</ele>
        <time>2019-09-15T10:36:56Z</time>
      </trkpt>
      <trkpt lat="43.23867" lon="6.0668">
        <ele>154.390625</ele>
        <time>2019-09-15T10:36:57Z</time>
      </trkpt>
      <trkpt lat="43.23863" lon="6.06681">
        <ele>154.43359375</ele>
        <time>2019-09-15T10:36:58Z</time>
      </trkpt>
      <trkpt lat="43.23801" lon="6.06699">
        <ele>155.37890625</ele>
        <time>2019-09-15T10:37:14Z</time>
      </trkpt>
      <trkpt lat="43.23759" lon="6.06744">
        <ele>155.578125</ele>
        <time>2019-09-15T10:37:25Z</time>
      </trkpt>
      <trkpt lat="43.23755" lon="6.06746">
        <ele>155.7734375</ele>
        <time>2019-09-15T10:37:26Z</time>
      </trkpt>
      <trkpt lat="43.23751" lon="6.06748">
        <ele>156.06640625</ele>
        <time>2019-09-15T10:37:27Z</time>
      </trkpt>
      <trkpt lat="43.23716" lon="6.06758">
        <ele>160.11328125</ele>
        <time>2019-09-15T10:37:38Z</time>
      </trkpt>
      <trkpt lat="43.23708" lon="6.06792">
        <ele>161.83203125</ele>
        <time>2019-09-15T10:37:51Z</time>
      </trkpt>
      <trkpt lat="43.23705" lon="6.06816">
        <ele>162.37890625</ele>
        <time>2019-09-15T10:38:01Z</time>
      </trkpt>
      <trkpt lat="43.23703" lon="6.06825">
        <ele>162.7109375</ele>
        <time>2019-09-15T10:38:05Z</time>
      </trkpt>
      <trkpt lat="43.23703" lon="6.06827">
        <ele>162.62109375</ele>
        <time>2019-09-15T10:38:06Z</time>
      </trkpt>
      <trkpt lat="43.23703" lon="6.0683">
        <ele>162.65625</ele>
        <time>2019-09-15T10:38:07Z</time>
      </trkpt>
      <trkpt lat="43.237" lon="6.06841">
        <ele>163.1484375</ele>
        <time>2019-09-15T10:38:12Z</time>
      </trkpt>
      <trkpt lat="43.23699" lon="6.06843">
        <ele>163.296875</ele>
        <time>2019-09-15T10:38:13Z</time>
      </trkpt>
      <trkpt lat="43.23698" lon="6.06845">
        <ele>163.46875</ele>
        <time>2019-09-15T10:38:14Z</time>
      </trkpt>
      <trkpt lat="43.23697" lon="6.06847">
        <ele>163.6640625</ele>
        <time>2019-09-15T10:38:15Z</time>
      </trkpt>
      <trkpt lat="43.23696" lon="6.06849">
        <ele>163.875</ele>
        <time>2019-09-15T10:38:16Z</time>
      </trkpt>
      <trkpt lat="43.23695" lon="6.06851">
        <ele>164.125</ele>
        <time>2019-09-15T10:38:17Z</time>
      </trkpt>
      <trkpt lat="43.23695" lon="6.06853">
        <ele>164.22265625</ele>
        <time>2019-09-15T10:38:18Z</time>
      </trkpt>
      <trkpt lat="43.23694" lon="6.06855">
        <ele>164.21875</ele>
        <time>2019-09-15T10:38:19Z</time>
      </trkpt>
      <trkpt lat="43.23693" lon="6.06857">
        <ele>164.19140625</ele>
        <time>2019-09-15T10:38:20Z</time>
      </trkpt>
      <trkpt lat="43.23694" lon="6.0686">
        <ele>163.9765625</ele>
        <time>2019-09-15T10:38:21Z</time>
      </trkpt>
      <trkpt lat="43.23694" lon="6.06862">
        <ele>163.6484375</ele>
        <time>2019-09-15T10:38:22Z</time>
      </trkpt>
      <trkpt lat="43.23687" lon="6.06898">
        <ele>161.73046875</ele>
        <time>2019-09-15T10:38:34Z</time>
      </trkpt>
      <trkpt lat="43.23678" lon="6.06906">
        <ele>162.75390625</ele>
        <time>2019-09-15T10:38:46Z</time>
      </trkpt>
      <trkpt lat="43.23676" lon="6.06908">
        <ele>162.953125</ele>
        <time>2019-09-15T10:39:16Z</time>
      </trkpt>
      <trkpt lat="43.23658" lon="6.06921">
        <ele>163.74609375</ele>
        <time>2019-09-15T10:39:21Z</time>
      </trkpt>
      <trkpt lat="43.23652" lon="6.06925">
        <ele>163.83203125</ele>
        <time>2019-09-15T10:39:22Z</time>
      </trkpt>
      <trkpt lat="43.23647" lon="6.06928">
        <ele>163.875</ele>
        <time>2019-09-15T10:39:23Z</time>
      </trkpt>
      <trkpt lat="43.23645" lon="6.0693">
        <ele>163.9140625</ele>
        <time>2019-09-15T10:39:24Z</time>
      </trkpt>
      <trkpt lat="43.23642" lon="6.0693">
        <ele>164.0625</ele>
        <time>2019-09-15T10:39:25Z</time>
      </trkpt>
      <trkpt lat="43.2364" lon="6.06929">
        <ele>164.203125</ele>
        <time>2019-09-15T10:39:26Z</time>
      </trkpt>
      <trkpt lat="43.23615" lon="6.06911">
        <ele>168.30078125</ele>
        <time>2019-09-15T10:39:36Z</time>
      </trkpt>
      <trkpt lat="43.23607" lon="6.06899">
        <ele>170.1171875</ele>
        <time>2019-09-15T10:39:43Z</time>
      </trkpt>
      <trkpt lat="43.23592" lon="6.06879">
        <ele>173.71484375</ele>
        <time>2019-09-15T10:39:55Z</time>
      </trkpt>
      <trkpt lat="43.2358" lon="6.06865">
        <ele>176.01953125</ele>
        <time>2019-09-15T10:40:08Z</time>
      </trkpt>
      <trkpt lat="43.23582" lon="6.06868">
        <ele>175.62109375</ele>
        <time>2019-09-15T10:40:13Z</time>
      </trkpt>
      <trkpt lat="43.23594" lon="6.06883">
        <ele>172.79296875</ele>
        <time>2019-09-15T10:40:19Z</time>
      </trkpt>
      <trkpt lat="43.23613" lon="6.06909">
        <ele>168.40234375</ele>
        <time>2019-09-15T10:40:24Z</time>
      </trkpt>
      <trkpt lat="43.23623" lon="6.06922">
        <ele>165.9140625</ele>
        <time>2019-09-15T10:40:26Z</time>
      </trkpt>
      <trkpt lat="43.23629" lon="6.06926">
        <ele>164.94140625</ele>
        <time>2019-09-15T10:40:27Z</time>
      </trkpt>
      <trkpt lat="43.23634" lon="6.06929">
        <ele>164.25390625</ele>
        <time>2019-09-15T10:40:28Z</time>
      </trkpt>
      <trkpt lat="43.23639" lon="6.06932">
        <ele>163.72265625</ele>
        <time>2019-09-15T10:40:29Z</time>
      </trkpt>
      <trkpt lat="43.23645" lon="6.06933">
        <ele>163.421875</ele>
        <time>2019-09-15T10:40:30Z</time>
      </trkpt>
      <trkpt lat="43.23661" lon="6.06923">
        <ele>163.08203125</ele>
        <time>2019-09-15T10:40:33Z</time>
      </trkpt>
      <trkpt lat="43.23678" lon="6.06908">
        <ele>162.5546875</ele>
        <time>2019-09-15T10:40:42Z</time>
      </trkpt>
      <trkpt lat="43.2368" lon="6.06907">
        <ele>162.0859375</ele>
        <time>2019-09-15T10:40:53Z</time>
      </trkpt>
      <trkpt lat="43.23683" lon="6.0691">
        <ele>161.21875</ele>
        <time>2019-09-15T10:40:54Z</time>
      </trkpt>
      <trkpt lat="43.23684" lon="6.06916">
        <ele>160.19140625</ele>
        <time>2019-09-15T10:40:55Z</time>
      </trkpt>
      <trkpt lat="43.23684" lon="6.06923">
        <ele>159.32421875</ele>
        <time>2019-09-15T10:40:56Z</time>
      </trkpt>
      <trkpt lat="43.23684" lon="6.06929">
        <ele>158.5390625</ele>
        <time>2019-09-15T10:40:57Z</time>
      </trkpt>
      <trkpt lat="43.23685" lon="6.06933">
        <ele>157.77734375</ele>
        <time>2019-09-15T10:40:58Z</time>
      </trkpt>
      <trkpt lat="43.23688" lon="6.06934">
        <ele>157.0546875</ele>
        <time>2019-09-15T10:40:59Z</time>
      </trkpt>
      <trkpt lat="43.23692" lon="6.06933">
        <ele>156.54296875</ele>
        <time>2019-09-15T10:41:00Z</time>
      </trkpt>
      <trkpt lat="43.23696" lon="6.06928">
        <ele>156.484375</ele>
        <time>2019-09-15T10:41:01Z</time>
      </trkpt>
      <trkpt lat="43.23698" lon="6.06922">
        <ele>156.6171875</ele>
        <time>2019-09-15T10:41:02Z</time>
      </trkpt>
      <trkpt lat="43.23701" lon="6.06919">
        <ele>156.421875</ele>
        <time>2019-09-15T10:41:03Z</time>
      </trkpt>
      <trkpt lat="43.23703" lon="6.0692">
        <ele>155.7890625</ele>
        <time>2019-09-15T10:41:04Z</time>
      </trkpt>
      <trkpt lat="43.23704" lon="6.06925">
        <ele>155.1875</ele>
        <time>2019-09-15T10:41:05Z</time>
      </trkpt>
      <trkpt lat="43.23702" lon="6.06932">
        <ele>154.83984375</ele>
        <time>2019-09-15T10:41:06Z</time>
      </trkpt>
      <trkpt lat="43.237" lon="6.06939">
        <ele>154.49609375</ele>
        <time>2019-09-15T10:41:07Z</time>
      </trkpt>
      <trkpt lat="43.23697" lon="6.06947">
        <ele>154.1875</ele>
        <time>2019-09-15T10:41:08Z</time>
      </trkpt>
      <trkpt lat="43.23693" lon="6.06953">
        <ele>154.02734375</ele>
        <time>2019-09-15T10:41:09Z</time>
      </trkpt>
      <trkpt lat="43.23688" lon="6.06958">
        <ele>154.1484375</ele>
        <time>2019-09-15T10:41:10Z</time>
      </trkpt>
      <trkpt lat="43.23683" lon="6.06962">
        <ele>154.5546875</ele>
        <time>2019-09-15T10:41:11Z</time>
      </trkpt>
      <trkpt lat="43.23676" lon="6.06964">
        <ele>155.140625</ele>
        <time>2019-09-15T10:41:12Z</time>
      </trkpt>
      <trkpt lat="43.2367" lon="6.06967">
        <ele>155.69921875</ele>
        <time>2019-09-15T10:41:13Z</time>
      </trkpt>
      <trkpt lat="43.23665" lon="6.06969">
        <ele>155.5703125</ele>
        <time>2019-09-15T10:41:14Z</time>
      </trkpt>
      <trkpt lat="43.2366" lon="6.06973">
        <ele>155.30859375</ele>
        <time>2019-09-15T10:41:15Z</time>
      </trkpt>
      <trkpt lat="43.23655" lon="6.06975">
        <ele>155.0625</ele>
        <time>2019-09-15T10:41:16Z</time>
      </trkpt>
      <trkpt lat="43.23642" lon="6.06982">
        <ele>154.34375</ele>
        <time>2019-09-15T10:41:20Z</time>
      </trkpt>
      <trkpt lat="43.2364" lon="6.06982">
        <ele>154.28515625</ele>
        <time>2019-09-15T10:41:21Z</time>
      </trkpt>
      <trkpt lat="43.23638" lon="6.06984">
        <ele>154.05078125</ele>
        <time>2019-09-15T10:41:22Z</time>
      </trkpt>
      <trkpt lat="43.23636" lon="6.06986">
        <ele>153.69921875</ele>
        <time>2019-09-15T10:41:23Z</time>
      </trkpt>
      <trkpt lat="43.23634" lon="6.06989">
        <ele>153.31640625</ele>
        <time>2019-09-15T10:41:24Z</time>
      </trkpt>
      <trkpt lat="43.23632" lon="6.06991">
        <ele>152.984375</ele>
        <time>2019-09-15T10:41:25Z</time>
      </trkpt>
      <trkpt lat="43.23628" lon="6.06993">
        <ele>152.73046875</ele>
        <time>2019-09-15T10:41:27Z</time>
      </trkpt>
      <trkpt lat="43.23626" lon="6.06992">
        <ele>152.83984375</ele>
        <time>2019-09-15T10:41:29Z</time>
      </trkpt>
      <trkpt lat="43.23623" lon="6.0699">
        <ele>153.1484375</ele>
        <time>2019-09-15T10:41:32Z</time>
      </trkpt>
      <trkpt lat="43.23621" lon="6.06992">
        <ele>152.91015625</ele>
        <time>2019-09-15T10:41:33Z</time>
      </trkpt>
      <trkpt lat="43.23619" lon="6.06994">
        <ele>152.578125</ele>
        <time>2019-09-15T10:41:34Z</time>
      </trkpt>
      <trkpt lat="43.23613" lon="6.06999">
        <ele>151.76171875</ele>
        <time>2019-09-15T10:41:37Z</time>
      </trkpt>
      <trkpt lat="43.23611" lon="6.06998">
        <ele>151.71875</ele>
        <time>2019-09-15T10:41:38Z</time>
      </trkpt>
      <trkpt lat="43.23575" lon="6.06979">
        <ele>151.32421875</ele>
        <time>2019-09-15T10:41:47Z</time>
      </trkpt>
      <trkpt lat="43.23569" lon="6.06977">
        <ele>150.91015625</ele>
        <time>2019-09-15T10:41:48Z</time>
      </trkpt>
      <trkpt lat="43.23561" lon="6.06977">
        <ele>150.18359375</ele>
        <time>2019-09-15T10:41:49Z</time>
      </trkpt>
      <trkpt lat="43.23553" lon="6.06975">
        <ele>149.48046875</ele>
        <time>2019-09-15T10:41:50Z</time>
      </trkpt>
      <trkpt lat="43.23544" lon="6.06971">
        <ele>148.7578125</ele>
        <time>2019-09-15T10:41:51Z</time>
      </trkpt>
      <trkpt lat="43.23536" lon="6.06969">
        <ele>147.90234375</ele>
        <time>2019-09-15T10:41:52Z</time>
      </trkpt>
      <trkpt lat="43.23488" lon="6.06963">
        <ele>143.2890625</ele>
        <time>2019-09-15T10:41:57Z</time>
      </trkpt>
      <trkpt lat="43.23451" lon="6.06961">
        <ele>141.171875</ele>
        <time>2019-09-15T10:42:01Z</time>
      </trkpt>
      <trkpt lat="43.23434" lon="6.06963">
        <ele>139.91796875</ele>
        <time>2019-09-15T10:42:04Z</time>
      </trkpt>
      <trkpt lat="43.23355" lon="6.06957">
        <ele>137.3828125</ele>
        <time>2019-09-15T10:42:16Z</time>
      </trkpt>
      <trkpt lat="43.23277" lon="6.06949">
        <ele>136.33984375</ele>
        <time>2019-09-15T10:42:28Z</time>
      </trkpt>
      <trkpt lat="43.2319" lon="6.06941">
        <ele>133.984375</ele>
        <time>2019-09-15T10:42:39Z</time>
      </trkpt>
      <trkpt lat="43.2311" lon="6.06944">
        <ele>130.546875</ele>
        <time>2019-09-15T10:42:49Z</time>
      </trkpt>
      <trkpt lat="43.23055" lon="6.06952">
        <ele>129.3203125</ele>
        <time>2019-09-15T10:42:56Z</time>
      </trkpt>
      <trkpt lat="43.23048" lon="6.06954">
        <ele>129.0390625</ele>
        <time>2019-09-15T10:42:57Z</time>
      </trkpt>
      <trkpt lat="43.2304" lon="6.06957">
        <ele>128.671875</ele>
        <time>2019-09-15T10:42:58Z</time>
      </trkpt>
      <trkpt lat="43.22997" lon="6.06978">
        <ele>127.4921875</ele>
        <time>2019-09-15T10:43:04Z</time>
      </trkpt>
      <trkpt lat="43.22961" lon="6.06989">
        <ele>127.07421875</ele>
        <time>2019-09-15T10:43:09Z</time>
      </trkpt>
      <trkpt lat="43.22953" lon="6.06988">
        <ele>127.13671875</ele>
        <time>2019-09-15T10:43:10Z</time>
      </trkpt>
      <trkpt lat="43.22946" lon="6.06984">
        <ele>127.24609375</ele>
        <time>2019-09-15T10:43:11Z</time>
      </trkpt>
      <trkpt lat="43.2294" lon="6.06984">
        <ele>127.27734375</ele>
        <time>2019-09-15T10:43:12Z</time>
      </trkpt>
      <trkpt lat="43.22933" lon="6.06986">
        <ele>127.17578125</ele>
        <time>2019-09-15T10:43:13Z</time>
      </trkpt>
      <trkpt lat="43.22927" lon="6.06992">
        <ele>127</ele>
        <time>2019-09-15T10:43:14Z</time>
      </trkpt>
      <trkpt lat="43.22921" lon="6.06998">
        <ele>127.01171875</ele>
        <time>2019-09-15T10:43:15Z</time>
      </trkpt>
      <trkpt lat="43.22915" lon="6.07003">
        <ele>127.1484375</ele>
        <time>2019-09-15T10:43:16Z</time>
      </trkpt>
      <trkpt lat="43.22908" lon="6.07006">
        <ele>127.23828125</ele>
        <time>2019-09-15T10:43:17Z</time>
      </trkpt>
      <trkpt lat="43.22901" lon="6.07008">
        <ele>127.2890625</ele>
        <time>2019-09-15T10:43:18Z</time>
      </trkpt>
      <trkpt lat="43.22849" lon="6.07018">
        <ele>126.41796875</ele>
        <time>2019-09-15T10:43:25Z</time>
      </trkpt>
      <trkpt lat="43.22842" lon="6.07018">
        <ele>126.16796875</ele>
        <time>2019-09-15T10:43:26Z</time>
      </trkpt>
      <trkpt lat="43.22714" lon="6.06996">
        <ele>123.9140625</ele>
        <time>2019-09-15T10:43:43Z</time>
      </trkpt>
      <trkpt lat="43.22598" lon="6.06981">
        <ele>121.48828125</ele>
        <time>2019-09-15T10:43:59Z</time>
      </trkpt>
      <trkpt lat="43.22528" lon="6.06982">
        <ele>121.31640625</ele>
        <time>2019-09-15T10:44:09Z</time>
      </trkpt>
      <trkpt lat="43.22522" lon="6.06979">
        <ele>121.44140625</ele>
        <time>2019-09-15T10:44:10Z</time>
      </trkpt>
      <trkpt lat="43.22517" lon="6.06973">
        <ele>121.640625</ele>
        <time>2019-09-15T10:44:11Z</time>
      </trkpt>
      <trkpt lat="43.22512" lon="6.06967">
        <ele>121.8671875</ele>
        <time>2019-09-15T10:44:12Z</time>
      </trkpt>
      <trkpt lat="43.22507" lon="6.06962">
        <ele>122.05859375</ele>
        <time>2019-09-15T10:44:13Z</time>
      </trkpt>
      <trkpt lat="43.22501" lon="6.06958">
        <ele>122.21484375</ele>
        <time>2019-09-15T10:44:14Z</time>
      </trkpt>
      <trkpt lat="43.22495" lon="6.06955">
        <ele>122.31640625</ele>
        <time>2019-09-15T10:44:15Z</time>
      </trkpt>
      <trkpt lat="43.22488" lon="6.06954">
        <ele>122.3515625</ele>
        <time>2019-09-15T10:44:16Z</time>
      </trkpt>
      <trkpt lat="43.22482" lon="6.06955">
        <ele>122.3046875</ele>
        <time>2019-09-15T10:44:17Z</time>
      </trkpt>
      <trkpt lat="43.22475" lon="6.06958">
        <ele>122.203125</ele>
        <time>2019-09-15T10:44:18Z</time>
      </trkpt>
      <trkpt lat="43.2247" lon="6.06963">
        <ele>122.03125</ele>
        <time>2019-09-15T10:44:19Z</time>
      </trkpt>
      <trkpt lat="43.22464" lon="6.06968">
        <ele>121.828125</ele>
        <time>2019-09-15T10:44:20Z</time>
      </trkpt>
      <trkpt lat="43.22459" lon="6.06974">
        <ele>121.60546875</ele>
        <time>2019-09-15T10:44:21Z</time>
      </trkpt>
      <trkpt lat="43.22453" lon="6.0698">
        <ele>121.41015625</ele>
        <time>2019-09-15T10:44:22Z</time>
      </trkpt>
      <trkpt lat="43.22448" lon="6.06984">
        <ele>121.2890625</ele>
        <time>2019-09-15T10:44:23Z</time>
      </trkpt>
      <trkpt lat="43.22441" lon="6.06985">
        <ele>121.28515625</ele>
        <time>2019-09-15T10:44:24Z</time>
      </trkpt>
      <trkpt lat="43.22407" lon="6.06985">
        <ele>121.83984375</ele>
        <time>2019-09-15T10:44:29Z</time>
      </trkpt>
      <trkpt lat="43.22301" lon="6.06968">
        <ele>122.83984375</ele>
        <time>2019-09-15T10:44:45Z</time>
      </trkpt>
      <trkpt lat="43.22258" lon="6.0694">
        <ele>124.66796875</ele>
        <time>2019-09-15T10:44:52Z</time>
      </trkpt>
      <trkpt lat="43.22253" lon="6.06936">
        <ele>124.9140625</ele>
        <time>2019-09-15T10:44:53Z</time>
      </trkpt>
      <trkpt lat="43.2224" lon="6.06921">
        <ele>124.98046875</ele>
        <time>2019-09-15T10:45:01Z</time>
      </trkpt>
      <trkpt lat="43.22225" lon="6.06907">
        <ele>124.9921875</ele>
        <time>2019-09-15T10:45:15Z</time>
      </trkpt>
      <trkpt lat="43.22163" lon="6.0685">
        <ele>125.5078125</ele>
        <time>2019-09-15T10:45:28Z</time>
      </trkpt>
      <trkpt lat="43.22096" lon="6.06785">
        <ele>125.66796875</ele>
        <time>2019-09-15T10:45:42Z</time>
      </trkpt>
      <trkpt lat="43.22035" lon="6.06725">
        <ele>126.25390625</ele>
        <time>2019-09-15T10:45:56Z</time>
      </trkpt>
      <trkpt lat="43.21953" lon="6.06644">
        <ele>128.44921875</ele>
        <time>2019-09-15T10:46:13Z</time>
      </trkpt>
      <trkpt lat="43.21854" lon="6.06538">
        <ele>127.7265625</ele>
        <time>2019-09-15T10:46:31Z</time>
      </trkpt>
      <trkpt lat="43.21757" lon="6.06457">
        <ele>124.5546875</ele>
        <time>2019-09-15T10:46:48Z</time>
      </trkpt>
      <trkpt lat="43.21698" lon="6.06424">
        <ele>121.70703125</ele>
        <time>2019-09-15T10:46:56Z</time>
      </trkpt>
      <trkpt lat="43.21605" lon="6.06357">
        <ele>120.78515625</ele>
        <time>2019-09-15T10:47:10Z</time>
      </trkpt>
      <trkpt lat="43.21515" lon="6.06276">
        <ele>116.39453125</ele>
        <time>2019-09-15T10:47:24Z</time>
      </trkpt>
      <trkpt lat="43.21423" lon="6.06219">
        <ele>113.671875</ele>
        <time>2019-09-15T10:47:37Z</time>
      </trkpt>
      <trkpt lat="43.21345" lon="6.06157">
        <ele>111.75</ele>
        <time>2019-09-15T10:47:48Z</time>
      </trkpt>
      <trkpt lat="43.21339" lon="6.0615">
        <ele>111.57421875</ele>
        <time>2019-09-15T10:47:49Z</time>
      </trkpt>
      <trkpt lat="43.21241" lon="6.06029">
        <ele>111.6875</ele>
        <time>2019-09-15T10:48:06Z</time>
      </trkpt>
      <trkpt lat="43.21149" lon="6.05906">
        <ele>113.68359375</ele>
        <time>2019-09-15T10:48:25Z</time>
      </trkpt>
      <trkpt lat="43.21064" lon="6.05794">
        <ele>115.53515625</ele>
        <time>2019-09-15T10:48:43Z</time>
      </trkpt>
      <trkpt lat="43.2099" lon="6.05666">
        <ele>115.27734375</ele>
        <time>2019-09-15T10:49:01Z</time>
      </trkpt>
      <trkpt lat="43.20956" lon="6.0553">
        <ele>116.63671875</ele>
        <time>2019-09-15T10:49:16Z</time>
      </trkpt>
      <trkpt lat="43.20939" lon="6.05367">
        <ele>114.24609375</ele>
        <time>2019-09-15T10:49:32Z</time>
      </trkpt>
      <trkpt lat="43.20909" lon="6.05268">
        <ele>110.55078125</ele>
        <time>2019-09-15T10:49:42Z</time>
      </trkpt>
      <trkpt lat="43.20905" lon="6.0526">
        <ele>110.4765625</ele>
        <time>2019-09-15T10:49:43Z</time>
      </trkpt>
      <trkpt lat="43.20845" lon="6.05147">
        <ele>106.7421875</ele>
        <time>2019-09-15T10:49:57Z</time>
      </trkpt>
      <trkpt lat="43.20786" lon="6.05039">
        <ele>106.07421875</ele>
        <time>2019-09-15T10:50:12Z</time>
      </trkpt>
      <trkpt lat="43.20784" lon="6.0503">
        <ele>105.9921875</ele>
        <time>2019-09-15T10:50:13Z</time>
      </trkpt>
      <trkpt lat="43.20782" lon="6.05021">
        <ele>105.9453125</ele>
        <time>2019-09-15T10:50:14Z</time>
      </trkpt>
      <trkpt lat="43.20767" lon="6.04918">
        <ele>106.81640625</ele>
        <time>2019-09-15T10:50:28Z</time>
      </trkpt>
      <trkpt lat="43.20727" lon="6.04838">
        <ele>106.953125</ele>
        <time>2019-09-15T10:50:43Z</time>
      </trkpt>
      <trkpt lat="43.20679" lon="6.04755">
        <ele>106.23046875</ele>
        <time>2019-09-15T10:51:00Z</time>
      </trkpt>
      <trkpt lat="43.20676" lon="6.04752">
        <ele>106.08984375</ele>
        <time>2019-09-15T10:51:01Z</time>
      </trkpt>
      <trkpt lat="43.20663" lon="6.04745">
        <ele>105.96875</ele>
        <time>2019-09-15T10:51:04Z</time>
      </trkpt>
      <trkpt lat="43.20648" lon="6.04733">
        <ele>106</ele>
        <time>2019-09-15T10:51:08Z</time>
      </trkpt>
      <trkpt lat="43.20645" lon="6.04729">
        <ele>105.984375</ele>
        <time>2019-09-15T10:51:09Z</time>
      </trkpt>
      <trkpt lat="43.20643" lon="6.04724">
        <ele>105.90625</ele>
        <time>2019-09-15T10:51:10Z</time>
      </trkpt>
      <trkpt lat="43.2064" lon="6.04719">
        <ele>105.82421875</ele>
        <time>2019-09-15T10:51:11Z</time>
      </trkpt>
      <trkpt lat="43.20638" lon="6.04714">
        <ele>105.7265625</ele>
        <time>2019-09-15T10:51:12Z</time>
      </trkpt>
      <trkpt lat="43.20634" lon="6.04711">
        <ele>105.609375</ele>
        <time>2019-09-15T10:51:13Z</time>
      </trkpt>
      <trkpt lat="43.20631" lon="6.04707">
        <ele>105.48046875</ele>
        <time>2019-09-15T10:51:14Z</time>
      </trkpt>
      <trkpt lat="43.20627" lon="6.04705">
        <ele>105.3359375</ele>
        <time>2019-09-15T10:51:15Z</time>
      </trkpt>
      <trkpt lat="43.20622" lon="6.04702">
        <ele>105.1796875</ele>
        <time>2019-09-15T10:51:16Z</time>
      </trkpt>
      <trkpt lat="43.20618" lon="6.04701">
        <ele>105.0078125</ele>
        <time>2019-09-15T10:51:17Z</time>
      </trkpt>
      <trkpt lat="43.20613" lon="6.047">
        <ele>104.91796875</ele>
        <time>2019-09-15T10:51:18Z</time>
      </trkpt>
      <trkpt lat="43.20608" lon="6.04701">
        <ele>104.81640625</ele>
        <time>2019-09-15T10:51:19Z</time>
      </trkpt>
      <trkpt lat="43.20603" lon="6.04703">
        <ele>104.6953125</ele>
        <time>2019-09-15T10:51:20Z</time>
      </trkpt>
      <trkpt lat="43.20598" lon="6.04706">
        <ele>104.53515625</ele>
        <time>2019-09-15T10:51:21Z</time>
      </trkpt>
      <trkpt lat="43.20594" lon="6.0471">
        <ele>104.30859375</ele>
        <time>2019-09-15T10:51:22Z</time>
      </trkpt>
      <trkpt lat="43.20589" lon="6.04714">
        <ele>104.015625</ele>
        <time>2019-09-15T10:51:23Z</time>
      </trkpt>
      <trkpt lat="43.20586" lon="6.04719">
        <ele>103.85546875</ele>
        <time>2019-09-15T10:51:24Z</time>
      </trkpt>
      <trkpt lat="43.20582" lon="6.04724">
        <ele>103.72265625</ele>
        <time>2019-09-15T10:51:25Z</time>
      </trkpt>
      <trkpt lat="43.20578" lon="6.04728">
        <ele>103.5703125</ele>
        <time>2019-09-15T10:51:26Z</time>
      </trkpt>
      <trkpt lat="43.20573" lon="6.0473">
        <ele>103.3984375</ele>
        <time>2019-09-15T10:51:27Z</time>
      </trkpt>
      <trkpt lat="43.20568" lon="6.04733">
        <ele>103.21875</ele>
        <time>2019-09-15T10:51:28Z</time>
      </trkpt>
      <trkpt lat="43.20563" lon="6.04734">
        <ele>103.0234375</ele>
        <time>2019-09-15T10:51:29Z</time>
      </trkpt>
      <trkpt lat="43.20557" lon="6.04735">
        <ele>102.8359375</ele>
        <time>2019-09-15T10:51:30Z</time>
      </trkpt>
      <trkpt lat="43.20543" lon="6.04735">
        <ele>102.30078125</ele>
        <time>2019-09-15T10:51:33Z</time>
      </trkpt>
      <trkpt lat="43.20538" lon="6.04733">
        <ele>102.13671875</ele>
        <time>2019-09-15T10:51:34Z</time>
      </trkpt>
      <trkpt lat="43.20534" lon="6.04732">
        <ele>101.99609375</ele>
        <time>2019-09-15T10:51:35Z</time>
      </trkpt>
      <trkpt lat="43.20531" lon="6.04731">
        <ele>101.92578125</ele>
        <time>2019-09-15T10:51:36Z</time>
      </trkpt>
      <trkpt lat="43.20527" lon="6.04732">
        <ele>101.8515625</ele>
        <time>2019-09-15T10:51:37Z</time>
      </trkpt>
      <trkpt lat="43.20524" lon="6.04733">
        <ele>101.765625</ele>
        <time>2019-09-15T10:51:38Z</time>
      </trkpt>
      <trkpt lat="43.20521" lon="6.04736">
        <ele>101.65234375</ele>
        <time>2019-09-15T10:51:39Z</time>
      </trkpt>
      <trkpt lat="43.2052" lon="6.04741">
        <ele>101.51953125</ele>
        <time>2019-09-15T10:51:40Z</time>
      </trkpt>
      <trkpt lat="43.20521" lon="6.04746">
        <ele>101.51171875</ele>
        <time>2019-09-15T10:51:41Z</time>
      </trkpt>
      <trkpt lat="43.20524" lon="6.0475">
        <ele>101.6171875</ele>
        <time>2019-09-15T10:51:42Z</time>
      </trkpt>
      <trkpt lat="43.20528" lon="6.04752">
        <ele>101.76953125</ele>
        <time>2019-09-15T10:51:43Z</time>
      </trkpt>
      <trkpt lat="43.20532" lon="6.04751">
        <ele>101.9140625</ele>
        <time>2019-09-15T10:51:44Z</time>
      </trkpt>
      <trkpt lat="43.20536" lon="6.0475">
        <ele>102.046875</ele>
        <time>2019-09-15T10:51:45Z</time>
      </trkpt>
      <trkpt lat="43.20539" lon="6.04748">
        <ele>102.171875</ele>
        <time>2019-09-15T10:51:46Z</time>
      </trkpt>
      <trkpt lat="43.20542" lon="6.04746">
        <ele>102.28515625</ele>
        <time>2019-09-15T10:51:47Z</time>
      </trkpt>
      <trkpt lat="43.20545" lon="6.04744">
        <ele>102.3984375</ele>
        <time>2019-09-15T10:51:48Z</time>
      </trkpt>
      <trkpt lat="43.20549" lon="6.04743">
        <ele>102.51953125</ele>
        <time>2019-09-15T10:51:49Z</time>
      </trkpt>
      <trkpt lat="43.20552" lon="6.04741">
        <ele>102.6484375</ele>
        <time>2019-09-15T10:51:50Z</time>
      </trkpt>
      <trkpt lat="43.20556" lon="6.0474">
        <ele>102.79296875</ele>
        <time>2019-09-15T10:51:51Z</time>
      </trkpt>
      <trkpt lat="43.2056" lon="6.0474">
        <ele>102.93359375</ele>
        <time>2019-09-15T10:51:52Z</time>
      </trkpt>
      <trkpt lat="43.20564" lon="6.04741">
        <ele>103.078125</ele>
        <time>2019-09-15T10:51:53Z</time>
      </trkpt>
      <trkpt lat="43.20568" lon="6.04743">
        <ele>103.21875</ele>
        <time>2019-09-15T10:51:54Z</time>
      </trkpt>
      <trkpt lat="43.20572" lon="6.04745">
        <ele>103.34765625</ele>
        <time>2019-09-15T10:51:55Z</time>
      </trkpt>
      <trkpt lat="43.20575" lon="6.04748">
        <ele>103.46875</ele>
        <time>2019-09-15T10:51:56Z</time>
      </trkpt>
      <trkpt lat="43.20578" lon="6.04752">
        <ele>103.57421875</ele>
        <time>2019-09-15T10:51:57Z</time>
      </trkpt>
      <trkpt lat="43.2058" lon="6.04756">
        <ele>103.64453125</ele>
        <time>2019-09-15T10:51:58Z</time>
      </trkpt>
      <trkpt lat="43.20581" lon="6.04761">
        <ele>103.6875</ele>
        <time>2019-09-15T10:51:59Z</time>
      </trkpt>
      <trkpt lat="43.20582" lon="6.04767">
        <ele>103.71875</ele>
        <time>2019-09-15T10:52:00Z</time>
      </trkpt>
      <trkpt lat="43.20584" lon="6.04772">
        <ele>103.78125</ele>
        <time>2019-09-15T10:52:01Z</time>
      </trkpt>
      <trkpt lat="43.20586" lon="6.04776">
        <ele>103.86328125</ele>
        <time>2019-09-15T10:52:02Z</time>
      </trkpt>
      <trkpt lat="43.20588" lon="6.04781">
        <ele>103.94140625</ele>
        <time>2019-09-15T10:52:03Z</time>
      </trkpt>
      <trkpt lat="43.2059" lon="6.04786">
        <ele>103.99609375</ele>
        <time>2019-09-15T10:52:04Z</time>
      </trkpt>
      <trkpt lat="43.20591" lon="6.04792">
        <ele>104</ele>
        <time>2019-09-15T10:52:05Z</time>
      </trkpt>
      <trkpt lat="43.20592" lon="6.04797">
        <ele>104</ele>
        <time>2019-09-15T10:52:06Z</time>
      </trkpt>
      <trkpt lat="43.20592" lon="6.04803">
        <ele>103.8359375</ele>
        <time>2019-09-15T10:52:07Z</time>
      </trkpt>
      <trkpt lat="43.20592" lon="6.04809">
        <ele>103.64453125</ele>
        <time>2019-09-15T10:52:08Z</time>
      </trkpt>
      <trkpt lat="43.20584" lon="6.04834">
        <ele>102.5625</ele>
        <time>2019-09-15T10:52:13Z</time>
      </trkpt>
      <trkpt lat="43.20584" lon="6.0484">
        <ele>102.3828125</ele>
        <time>2019-09-15T10:52:14Z</time>
      </trkpt>
      <trkpt lat="43.20583" lon="6.04846">
        <ele>102.21875</ele>
        <time>2019-09-15T10:52:15Z</time>
      </trkpt>
      <trkpt lat="43.20582" lon="6.04851">
        <ele>102.07421875</ele>
        <time>2019-09-15T10:52:16Z</time>
      </trkpt>
      <trkpt lat="43.20581" lon="6.04856">
        <ele>102</ele>
        <time>2019-09-15T10:52:17Z</time>
      </trkpt>
      <trkpt lat="43.2058" lon="6.04861">
        <ele>102</ele>
        <time>2019-09-15T10:52:18Z</time>
      </trkpt>
      <trkpt lat="43.20578" lon="6.04866">
        <ele>102</ele>
        <time>2019-09-15T10:52:19Z</time>
      </trkpt>
      <trkpt lat="43.20539" lon="6.04961">
        <ele>100.1171875</ele>
        <time>2019-09-15T10:52:37Z</time>
      </trkpt>
      <trkpt lat="43.20535" lon="6.04968">
        <ele>100</ele>
        <time>2019-09-15T10:52:38Z</time>
      </trkpt>
      <trkpt lat="43.20531" lon="6.04974">
        <ele>100</ele>
        <time>2019-09-15T10:52:39Z</time>
      </trkpt>
      <trkpt lat="43.20527" lon="6.0498">
        <ele>100</ele>
        <time>2019-09-15T10:52:40Z</time>
      </trkpt>
      <trkpt lat="43.20522" lon="6.04985">
        <ele>100</ele>
        <time>2019-09-15T10:52:41Z</time>
      </trkpt>
      <trkpt lat="43.20516" lon="6.04989">
        <ele>100</ele>
        <time>2019-09-15T10:52:42Z</time>
      </trkpt>
      <trkpt lat="43.2051" lon="6.04993">
        <ele>99.984375</ele>
        <time>2019-09-15T10:52:43Z</time>
      </trkpt>
      <trkpt lat="43.20505" lon="6.04997">
        <ele>99.859375</ele>
        <time>2019-09-15T10:52:44Z</time>
      </trkpt>
      <trkpt lat="43.20451" lon="6.05019">
        <ele>100</ele>
        <time>2019-09-15T10:52:52Z</time>
      </trkpt>
      <trkpt lat="43.20436" lon="6.05025">
        <ele>99.28125</ele>
        <time>2019-09-15T10:52:54Z</time>
      </trkpt>
      <trkpt lat="43.20375" lon="6.05032">
        <ele>96.40625</ele>
        <time>2019-09-15T10:53:01Z</time>
      </trkpt>
      <trkpt lat="43.20338" lon="6.05036">
        <ele>95.39453125</ele>
        <time>2019-09-15T10:53:05Z</time>
      </trkpt>
      <trkpt lat="43.2033" lon="6.0504">
        <ele>95.18359375</ele>
        <time>2019-09-15T10:53:06Z</time>
      </trkpt>
      <trkpt lat="43.20315" lon="6.05046">
        <ele>95.0078125</ele>
        <time>2019-09-15T10:53:08Z</time>
      </trkpt>
      <trkpt lat="43.20295" lon="6.0505">
        <ele>94.3828125</ele>
        <time>2019-09-15T10:53:11Z</time>
      </trkpt>
      <trkpt lat="43.20289" lon="6.05053">
        <ele>94.15625</ele>
        <time>2019-09-15T10:53:12Z</time>
      </trkpt>
      <trkpt lat="43.20284" lon="6.05056">
        <ele>93.984375</ele>
        <time>2019-09-15T10:53:13Z</time>
      </trkpt>
      <trkpt lat="43.20281" lon="6.05059">
        <ele>93.8671875</ele>
        <time>2019-09-15T10:53:14Z</time>
      </trkpt>
      <trkpt lat="43.20278" lon="6.05062">
        <ele>93.78515625</ele>
        <time>2019-09-15T10:53:15Z</time>
      </trkpt>
      <trkpt lat="43.20277" lon="6.05066">
        <ele>93.7265625</ele>
        <time>2019-09-15T10:53:16Z</time>
      </trkpt>
      <trkpt lat="43.20276" lon="6.0507">
        <ele>93.6953125</ele>
        <time>2019-09-15T10:53:17Z</time>
      </trkpt>
      <trkpt lat="43.20276" lon="6.05072">
        <ele>93.68359375</ele>
        <time>2019-09-15T10:53:18Z</time>
      </trkpt>
      <trkpt lat="43.20275" lon="6.05075">
        <ele>93.671875</ele>
        <time>2019-09-15T10:53:19Z</time>
      </trkpt>
      <trkpt lat="43.20275" lon="6.05076">
        <ele>93.65625</ele>
        <time>2019-09-15T10:53:20Z</time>
      </trkpt>
      <trkpt lat="43.20274" lon="6.05078">
        <ele>93.625</ele>
        <time>2019-09-15T10:53:21Z</time>
      </trkpt>
      <trkpt lat="43.20272" lon="6.05081">
        <ele>93.5703125</ele>
        <time>2019-09-15T10:53:24Z</time>
      </trkpt>
      <trkpt lat="43.20271" lon="6.05082">
        <ele>93.5234375</ele>
        <time>2019-09-15T10:53:25Z</time>
      </trkpt>
      <trkpt lat="43.20259" lon="6.05093">
        <ele>93.0859375</ele>
        <time>2019-09-15T10:53:29Z</time>
      </trkpt>
      <trkpt lat="43.20184" lon="6.05127">
        <ele>91</ele>
        <time>2019-09-15T10:53:41Z</time>
      </trkpt>
      <trkpt lat="43.20077" lon="6.05142">
        <ele>87.32421875</ele>
        <time>2019-09-15T10:53:55Z</time>
      </trkpt>
      <trkpt lat="43.20045" lon="6.0514">
        <ele>86.37109375</ele>
        <time>2019-09-15T10:53:59Z</time>
      </trkpt>
      <trkpt lat="43.20037" lon="6.05137">
        <ele>86.08984375</ele>
        <time>2019-09-15T10:54:00Z</time>
      </trkpt>
      <trkpt lat="43.2003" lon="6.05133">
        <ele>85.828125</ele>
        <time>2019-09-15T10:54:01Z</time>
      </trkpt>
      <trkpt lat="43.20023" lon="6.05128">
        <ele>85.63671875</ele>
        <time>2019-09-15T10:54:02Z</time>
      </trkpt>
      <trkpt lat="43.20016" lon="6.05122">
        <ele>85.5625</ele>
        <time>2019-09-15T10:54:03Z</time>
      </trkpt>
      <trkpt lat="43.2001" lon="6.05116">
        <ele>85.6015625</ele>
        <time>2019-09-15T10:54:04Z</time>
      </trkpt>
      <trkpt lat="43.20004" lon="6.05109">
        <ele>85.7421875</ele>
        <time>2019-09-15T10:54:05Z</time>
      </trkpt>
      <trkpt lat="43.2" lon="6.05101">
        <ele>85.73828125</ele>
        <time>2019-09-15T10:54:06Z</time>
      </trkpt>
      <trkpt lat="43.19995" lon="6.05093">
        <ele>85.57421875</ele>
        <time>2019-09-15T10:54:07Z</time>
      </trkpt>
      <trkpt lat="43.19991" lon="6.05084">
        <ele>85.4375</ele>
        <time>2019-09-15T10:54:08Z</time>
      </trkpt>
      <trkpt lat="43.19988" lon="6.05074">
        <ele>85.31640625</ele>
        <time>2019-09-15T10:54:09Z</time>
      </trkpt>
      <trkpt lat="43.19985" lon="6.05065">
        <ele>85.21484375</ele>
        <time>2019-09-15T10:54:10Z</time>
      </trkpt>
      <trkpt lat="43.19983" lon="6.05055">
        <ele>85.1328125</ele>
        <time>2019-09-15T10:54:11Z</time>
      </trkpt>
      <trkpt lat="43.19981" lon="6.05045">
        <ele>85.0703125</ele>
        <time>2019-09-15T10:54:12Z</time>
      </trkpt>
      <trkpt lat="43.1998" lon="6.05035">
        <ele>85.0234375</ele>
        <time>2019-09-15T10:54:13Z</time>
      </trkpt>
      <trkpt lat="43.19979" lon="6.04906">
        <ele>84.99609375</ele>
        <time>2019-09-15T10:54:27Z</time>
      </trkpt>
      <trkpt lat="43.20006" lon="6.048">
        <ele>85.9609375</ele>
        <time>2019-09-15T10:54:41Z</time>
      </trkpt>
      <trkpt lat="43.20016" lon="6.04743">
        <ele>86.34375</ele>
        <time>2019-09-15T10:54:50Z</time>
      </trkpt>
      <trkpt lat="43.20019" lon="6.04737">
        <ele>86.42578125</ele>
        <time>2019-09-15T10:54:51Z</time>
      </trkpt>
      <trkpt lat="43.2002" lon="6.0473">
        <ele>86.48828125</ele>
        <time>2019-09-15T10:54:52Z</time>
      </trkpt>
      <trkpt lat="43.2002" lon="6.04724">
        <ele>86.4921875</ele>
        <time>2019-09-15T10:54:53Z</time>
      </trkpt>
      <trkpt lat="43.20019" lon="6.04717">
        <ele>86.43359375</ele>
        <time>2019-09-15T10:54:54Z</time>
      </trkpt>
      <trkpt lat="43.20016" lon="6.04712">
        <ele>86.32421875</ele>
        <time>2019-09-15T10:54:55Z</time>
      </trkpt>
      <trkpt lat="43.20011" lon="6.04708">
        <ele>86.1640625</ele>
        <time>2019-09-15T10:54:56Z</time>
      </trkpt>
      <trkpt lat="43.20006" lon="6.04706">
        <ele>85.97265625</ele>
        <time>2019-09-15T10:54:57Z</time>
      </trkpt>
      <trkpt lat="43.2" lon="6.04708">
        <ele>85.7734375</ele>
        <time>2019-09-15T10:54:58Z</time>
      </trkpt>
      <trkpt lat="43.19996" lon="6.04712">
        <ele>85.59765625</ele>
        <time>2019-09-15T10:54:59Z</time>
      </trkpt>
      <trkpt lat="43.19992" lon="6.04717">
        <ele>85.49609375</ele>
        <time>2019-09-15T10:55:00Z</time>
      </trkpt>
      <trkpt lat="43.19988" lon="6.04723">
        <ele>85.5234375</ele>
        <time>2019-09-15T10:55:01Z</time>
      </trkpt>
      <trkpt lat="43.19985" lon="6.04728">
        <ele>85.59375</ele>
        <time>2019-09-15T10:55:02Z</time>
      </trkpt>
      <trkpt lat="43.19981" lon="6.04734">
        <ele>85.6953125</ele>
        <time>2019-09-15T10:55:03Z</time>
      </trkpt>
      <trkpt lat="43.19976" lon="6.04738">
        <ele>85.6640625</ele>
        <time>2019-09-15T10:55:04Z</time>
      </trkpt>
      <trkpt lat="43.19971" lon="6.04742">
        <ele>85.41015625</ele>
        <time>2019-09-15T10:55:05Z</time>
      </trkpt>
      <trkpt lat="43.19954" lon="6.04753">
        <ele>84.21484375</ele>
        <time>2019-09-15T10:55:08Z</time>
      </trkpt>
      <trkpt lat="43.19948" lon="6.04755">
        <ele>84</ele>
        <time>2019-09-15T10:55:09Z</time>
      </trkpt>
      <trkpt lat="43.19942" lon="6.04756">
        <ele>84</ele>
        <time>2019-09-15T10:55:10Z</time>
      </trkpt>
      <trkpt lat="43.19818" lon="6.04772">
        <ele>81.18359375</ele>
        <time>2019-09-15T10:55:27Z</time>
      </trkpt>
      <trkpt lat="43.1973" lon="6.04768">
        <ele>80</ele>
        <time>2019-09-15T10:55:38Z</time>
      </trkpt>
      <trkpt lat="43.19649" lon="6.04716">
        <ele>80</ele>
        <time>2019-09-15T10:55:51Z</time>
      </trkpt>
      <trkpt lat="43.19569" lon="6.04677">
        <ele>79</ele>
        <time>2019-09-15T10:56:06Z</time>
      </trkpt>
      <trkpt lat="43.1948" lon="6.0465">
        <ele>78</ele>
        <time>2019-09-15T10:56:22Z</time>
      </trkpt>
      <trkpt lat="43.19468" lon="6.04646">
        <ele>78</ele>
        <time>2019-09-15T10:56:24Z</time>
      </trkpt>
      <trkpt lat="43.19461" lon="6.04643">
        <ele>78</ele>
        <time>2019-09-15T10:56:25Z</time>
      </trkpt>
      <trkpt lat="43.19455" lon="6.04639">
        <ele>78</ele>
        <time>2019-09-15T10:56:26Z</time>
      </trkpt>
      <trkpt lat="43.19417" lon="6.04608">
        <ele>77.765625</ele>
        <time>2019-09-15T10:56:32Z</time>
      </trkpt>
      <trkpt lat="43.19411" lon="6.04607">
        <ele>77.5546875</ele>
        <time>2019-09-15T10:56:33Z</time>
      </trkpt>
      <trkpt lat="43.19406" lon="6.0461">
        <ele>77.3515625</ele>
        <time>2019-09-15T10:56:34Z</time>
      </trkpt>
      <trkpt lat="43.19402" lon="6.04616">
        <ele>77.2109375</ele>
        <time>2019-09-15T10:56:35Z</time>
      </trkpt>
      <trkpt lat="43.19401" lon="6.04624">
        <ele>77.1640625</ele>
        <time>2019-09-15T10:56:36Z</time>
      </trkpt>
      <trkpt lat="43.19402" lon="6.04633">
        <ele>77.2265625</ele>
        <time>2019-09-15T10:56:37Z</time>
      </trkpt>
      <trkpt lat="43.19406" lon="6.0464">
        <ele>77.3515625</ele>
        <time>2019-09-15T10:56:38Z</time>
      </trkpt>
      <trkpt lat="43.19409" lon="6.04648">
        <ele>77.46484375</ele>
        <time>2019-09-15T10:56:39Z</time>
      </trkpt>
      <trkpt lat="43.19411" lon="6.04656">
        <ele>77.546875</ele>
        <time>2019-09-15T10:56:40Z</time>
      </trkpt>
      <trkpt lat="43.19412" lon="6.04665">
        <ele>77.578125</ele>
        <time>2019-09-15T10:56:41Z</time>
      </trkpt>
      <trkpt lat="43.19412" lon="6.04674">
        <ele>77.56640625</ele>
        <time>2019-09-15T10:56:42Z</time>
      </trkpt>
      <trkpt lat="43.19411" lon="6.04684">
        <ele>77.53515625</ele>
        <time>2019-09-15T10:56:43Z</time>
      </trkpt>
      <trkpt lat="43.19407" lon="6.04712">
        <ele>77.3984375</ele>
        <time>2019-09-15T10:56:46Z</time>
      </trkpt>
      <trkpt lat="43.19405" lon="6.04721">
        <ele>77.31640625</ele>
        <time>2019-09-15T10:56:47Z</time>
      </trkpt>
      <trkpt lat="43.19399" lon="6.04736">
        <ele>77.1015625</ele>
        <time>2019-09-15T10:56:49Z</time>
      </trkpt>
      <trkpt lat="43.19369" lon="6.04797">
        <ele>77</ele>
        <time>2019-09-15T10:57:01Z</time>
      </trkpt>
      <trkpt lat="43.1936" lon="6.04813">
        <ele>77</ele>
        <time>2019-09-15T10:57:05Z</time>
      </trkpt>
      <trkpt lat="43.19356" lon="6.04816">
        <ele>77</ele>
        <time>2019-09-15T10:57:06Z</time>
      </trkpt>
      <trkpt lat="43.19352" lon="6.04819">
        <ele>77</ele>
        <time>2019-09-15T10:57:07Z</time>
      </trkpt>
      <trkpt lat="43.19348" lon="6.04821">
        <ele>77</ele>
        <time>2019-09-15T10:57:08Z</time>
      </trkpt>
      <trkpt lat="43.19344" lon="6.04825">
        <ele>77</ele>
        <time>2019-09-15T10:57:09Z</time>
      </trkpt>
      <trkpt lat="43.19342" lon="6.04829">
        <ele>77</ele>
        <time>2019-09-15T10:57:10Z</time>
      </trkpt>
      <trkpt lat="43.1934" lon="6.04834">
        <ele>77</ele>
        <time>2019-09-15T10:57:11Z</time>
      </trkpt>
      <trkpt lat="43.19338" lon="6.0484">
        <ele>77</ele>
        <time>2019-09-15T10:57:12Z</time>
      </trkpt>
      <trkpt lat="43.19336" lon="6.04845">
        <ele>77</ele>
        <time>2019-09-15T10:57:13Z</time>
      </trkpt>
      <trkpt lat="43.19333" lon="6.0485">
        <ele>77</ele>
        <time>2019-09-15T10:57:14Z</time>
      </trkpt>
      <trkpt lat="43.19274" lon="6.04919">
        <ele>75.62109375</ele>
        <time>2019-09-15T10:57:30Z</time>
      </trkpt>
      <trkpt lat="43.19209" lon="6.04959">
        <ele>75</ele>
        <time>2019-09-15T10:57:45Z</time>
      </trkpt>
      <trkpt lat="43.19205" lon="6.04961">
        <ele>75</ele>
        <time>2019-09-15T10:57:46Z</time>
      </trkpt>
      <trkpt lat="43.19111" lon="6.04999">
        <ele>74</ele>
        <time>2019-09-15T10:58:06Z</time>
      </trkpt>
      <trkpt lat="43.19034" lon="6.05033">
        <ele>73</ele>
        <time>2019-09-15T10:58:21Z</time>
      </trkpt>
      <trkpt lat="43.19029" lon="6.05037">
        <ele>73</ele>
        <time>2019-09-15T10:58:22Z</time>
      </trkpt>
      <trkpt lat="43.19025" lon="6.05041">
        <ele>73</ele>
        <time>2019-09-15T10:58:23Z</time>
      </trkpt>
      <trkpt lat="43.19012" lon="6.05063">
        <ele>73</ele>
        <time>2019-09-15T10:58:27Z</time>
      </trkpt>
      <trkpt lat="43.18977" lon="6.05175">
        <ele>72.90625</ele>
        <time>2019-09-15T10:58:44Z</time>
      </trkpt>
      <trkpt lat="43.18972" lon="6.05265">
        <ele>72</ele>
        <time>2019-09-15T10:58:57Z</time>
      </trkpt>
      <trkpt lat="43.18969" lon="6.0527">
        <ele>72</ele>
        <time>2019-09-15T10:58:58Z</time>
      </trkpt>
      <trkpt lat="43.18964" lon="6.05273">
        <ele>72</ele>
        <time>2019-09-15T10:58:59Z</time>
      </trkpt>
      <trkpt lat="43.18958" lon="6.05273">
        <ele>72</ele>
        <time>2019-09-15T10:59:00Z</time>
      </trkpt>
      <trkpt lat="43.18953" lon="6.05272">
        <ele>72</ele>
        <time>2019-09-15T10:59:01Z</time>
      </trkpt>
      <trkpt lat="43.18947" lon="6.0527">
        <ele>72</ele>
        <time>2019-09-15T10:59:02Z</time>
      </trkpt>
      <trkpt lat="43.1888" lon="6.05238">
        <ele>71.41796875</ele>
        <time>2019-09-15T10:59:15Z</time>
      </trkpt>
      <trkpt lat="43.18858" lon="6.05231">
        <ele>71</ele>
        <time>2019-09-15T10:59:19Z</time>
      </trkpt>
      <trkpt lat="43.18843" lon="6.05221">
        <ele>71</ele>
        <time>2019-09-15T10:59:22Z</time>
      </trkpt>
      <trkpt lat="43.18773" lon="6.05165">
        <ele>71</ele>
        <time>2019-09-15T10:59:37Z</time>
      </trkpt>
      <trkpt lat="43.18702" lon="6.05133">
        <ele>71</ele>
        <time>2019-09-15T10:59:51Z</time>
      </trkpt>
      <trkpt lat="43.18658" lon="6.05126">
        <ele>71</ele>
        <time>2019-09-15T11:00:00Z</time>
      </trkpt>
      <trkpt lat="43.18555" lon="6.05137">
        <ele>70.8125</ele>
        <time>2019-09-15T11:00:22Z</time>
      </trkpt>
      <trkpt lat="43.18542" lon="6.05136">
        <ele>70.8359375</ele>
        <time>2019-09-15T11:00:25Z</time>
      </trkpt>
      <trkpt lat="43.18537" lon="6.05137">
        <ele>70.8046875</ele>
        <time>2019-09-15T11:00:26Z</time>
      </trkpt>
      <trkpt lat="43.18533" lon="6.05138">
        <ele>70.7890625</ele>
        <time>2019-09-15T11:00:27Z</time>
      </trkpt>
      <trkpt lat="43.1852" lon="6.0514">
        <ele>70.86328125</ele>
        <time>2019-09-15T11:00:30Z</time>
      </trkpt>
      <trkpt lat="43.18484" lon="6.05155">
        <ele>71.13671875</ele>
        <time>2019-09-15T11:00:38Z</time>
      </trkpt>
      <trkpt lat="43.18479" lon="6.05158">
        <ele>71.03125</ele>
        <time>2019-09-15T11:00:39Z</time>
      </trkpt>
      <trkpt lat="43.18474" lon="6.05162">
        <ele>70.87890625</ele>
        <time>2019-09-15T11:00:40Z</time>
      </trkpt>
      <trkpt lat="43.18447" lon="6.05191">
        <ele>69.84765625</ele>
        <time>2019-09-15T11:00:47Z</time>
      </trkpt>
      <trkpt lat="43.1844" lon="6.05198">
        <ele>69.61328125</ele>
        <time>2019-09-15T11:00:49Z</time>
      </trkpt>
      <trkpt lat="43.18436" lon="6.052">
        <ele>69.5390625</ele>
        <time>2019-09-15T11:00:50Z</time>
      </trkpt>
      <trkpt lat="43.18431" lon="6.05201">
        <ele>69.5</ele>
        <time>2019-09-15T11:00:51Z</time>
      </trkpt>
      <trkpt lat="43.18427" lon="6.05201">
        <ele>69.49609375</ele>
        <time>2019-09-15T11:00:52Z</time>
      </trkpt>
      <trkpt lat="43.18424" lon="6.052">
        <ele>69.53515625</ele>
        <time>2019-09-15T11:00:53Z</time>
      </trkpt>
      <trkpt lat="43.1842" lon="6.052">
        <ele>69.68359375</ele>
        <time>2019-09-15T11:00:54Z</time>
      </trkpt>
      <trkpt lat="43.18387" lon="6.05182">
        <ele>71.46875</ele>
        <time>2019-09-15T11:01:06Z</time>
      </trkpt>
      <trkpt lat="43.18336" lon="6.05152">
        <ele>73</ele>
        <time>2019-09-15T11:01:21Z</time>
      </trkpt>
      <trkpt lat="43.18287" lon="6.05127">
        <ele>72.06640625</ele>
        <time>2019-09-15T11:01:34Z</time>
      </trkpt>
      <trkpt lat="43.18234" lon="6.05098">
        <ele>72</ele>
        <time>2019-09-15T11:01:47Z</time>
      </trkpt>
      <trkpt lat="43.18205" lon="6.05081">
        <ele>71.1015625</ele>
        <time>2019-09-15T11:01:54Z</time>
      </trkpt>
      <trkpt lat="43.18201" lon="6.0508">
        <ele>71</ele>
        <time>2019-09-15T11:01:55Z</time>
      </trkpt>
      <trkpt lat="43.18196" lon="6.05081">
        <ele>71</ele>
        <time>2019-09-15T11:01:56Z</time>
      </trkpt>
      <trkpt lat="43.18191" lon="6.05081">
        <ele>71</ele>
        <time>2019-09-15T11:01:57Z</time>
      </trkpt>
      <trkpt lat="43.18186" lon="6.05082">
        <ele>71</ele>
        <time>2019-09-15T11:01:58Z</time>
      </trkpt>
      <trkpt lat="43.18181" lon="6.05082">
        <ele>71</ele>
        <time>2019-09-15T11:01:59Z</time>
      </trkpt>
      <trkpt lat="43.18166" lon="6.05083">
        <ele>71</ele>
        <time>2019-09-15T11:02:02Z</time>
      </trkpt>
      <trkpt lat="43.18162" lon="6.05084">
        <ele>71</ele>
        <time>2019-09-15T11:02:03Z</time>
      </trkpt>
      <trkpt lat="43.18136" lon="6.05097">
        <ele>70.91015625</ele>
        <time>2019-09-15T11:02:09Z</time>
      </trkpt>
      <trkpt lat="43.18059" lon="6.05135">
        <ele>70</ele>
        <time>2019-09-15T11:02:25Z</time>
      </trkpt>
      <trkpt lat="43.18015" lon="6.05156">
        <ele>69.24609375</ele>
        <time>2019-09-15T11:02:34Z</time>
      </trkpt>
      <trkpt lat="43.17992" lon="6.05165">
        <ele>69</ele>
        <time>2019-09-15T11:02:39Z</time>
      </trkpt>
      <trkpt lat="43.17979" lon="6.05172">
        <ele>69</ele>
        <time>2019-09-15T11:02:42Z</time>
      </trkpt>
      <trkpt lat="43.17975" lon="6.05175">
        <ele>69</ele>
        <time>2019-09-15T11:02:43Z</time>
      </trkpt>
      <trkpt lat="43.17972" lon="6.0518">
        <ele>69</ele>
        <time>2019-09-15T11:02:44Z</time>
      </trkpt>
      <trkpt lat="43.1797" lon="6.05187">
        <ele>69</ele>
        <time>2019-09-15T11:02:45Z</time>
      </trkpt>
      <trkpt lat="43.17968" lon="6.05193">
        <ele>69</ele>
        <time>2019-09-15T11:02:46Z</time>
      </trkpt>
      <trkpt lat="43.17967" lon="6.052">
        <ele>69</ele>
        <time>2019-09-15T11:02:47Z</time>
      </trkpt>
      <trkpt lat="43.17962" lon="6.05221">
        <ele>69</ele>
        <time>2019-09-15T11:02:50Z</time>
      </trkpt>
      <trkpt lat="43.17958" lon="6.05227">
        <ele>69</ele>
        <time>2019-09-15T11:02:51Z</time>
      </trkpt>
      <trkpt lat="43.17953" lon="6.05232">
        <ele>69</ele>
        <time>2019-09-15T11:02:52Z</time>
      </trkpt>
      <trkpt lat="43.1788" lon="6.05285">
        <ele>68</ele>
        <time>2019-09-15T11:03:06Z</time>
      </trkpt>
      <trkpt lat="43.17808" lon="6.05346">
        <ele>66.84375</ele>
        <time>2019-09-15T11:03:23Z</time>
      </trkpt>
      <trkpt lat="43.17731" lon="6.054">
        <ele>66</ele>
        <time>2019-09-15T11:03:40Z</time>
      </trkpt>
      <trkpt lat="43.17656" lon="6.05468">
        <ele>65</ele>
        <time>2019-09-15T11:03:57Z</time>
      </trkpt>
      <trkpt lat="43.17579" lon="6.05532">
        <ele>64</ele>
        <time>2019-09-15T11:04:15Z</time>
      </trkpt>
      <trkpt lat="43.17567" lon="6.05545">
        <ele>64</ele>
        <time>2019-09-15T11:04:18Z</time>
      </trkpt>
      <trkpt lat="43.17549" lon="6.05575">
        <ele>63.46875</ele>
        <time>2019-09-15T11:04:24Z</time>
      </trkpt>
      <trkpt lat="43.17547" lon="6.05582">
        <ele>63.40234375</ele>
        <time>2019-09-15T11:04:25Z</time>
      </trkpt>
      <trkpt lat="43.17543" lon="6.05601">
        <ele>63.24609375</ele>
        <time>2019-09-15T11:04:28Z</time>
      </trkpt>
      <trkpt lat="43.1754" lon="6.05607">
        <ele>63.16015625</ele>
        <time>2019-09-15T11:04:29Z</time>
      </trkpt>
      <trkpt lat="43.17537" lon="6.05612">
        <ele>63.04296875</ele>
        <time>2019-09-15T11:04:30Z</time>
      </trkpt>
      <trkpt lat="43.17533" lon="6.05617">
        <ele>63</ele>
        <time>2019-09-15T11:04:31Z</time>
      </trkpt>
      <trkpt lat="43.17529" lon="6.0562">
        <ele>63</ele>
        <time>2019-09-15T11:04:32Z</time>
      </trkpt>
      <trkpt lat="43.17524" lon="6.05624">
        <ele>63</ele>
        <time>2019-09-15T11:04:33Z</time>
      </trkpt>
      <trkpt lat="43.17454" lon="6.05671">
        <ele>63</ele>
        <time>2019-09-15T11:04:50Z</time>
      </trkpt>
      <trkpt lat="43.17393" lon="6.05726">
        <ele>62.921875</ele>
        <time>2019-09-15T11:05:07Z</time>
      </trkpt>
      <trkpt lat="43.17335" lon="6.05769">
        <ele>62</ele>
        <time>2019-09-15T11:05:22Z</time>
      </trkpt>
      <trkpt lat="43.17274" lon="6.05817">
        <ele>62</ele>
        <time>2019-09-15T11:05:38Z</time>
      </trkpt>
      <trkpt lat="43.17249" lon="6.05835">
        <ele>62</ele>
        <time>2019-09-15T11:05:45Z</time>
      </trkpt>
      <trkpt lat="43.17245" lon="6.05838">
        <ele>62</ele>
        <time>2019-09-15T11:05:46Z</time>
      </trkpt>
      <trkpt lat="43.17224" lon="6.0586">
        <ele>61.76171875</ele>
        <time>2019-09-15T11:05:52Z</time>
      </trkpt>
      <trkpt lat="43.1722" lon="6.05863">
        <ele>61.61328125</ele>
        <time>2019-09-15T11:05:53Z</time>
      </trkpt>
      <trkpt lat="43.17216" lon="6.05866">
        <ele>61.4609375</ele>
        <time>2019-09-15T11:05:54Z</time>
      </trkpt>
      <trkpt lat="43.17212" lon="6.0587">
        <ele>61.3203125</ele>
        <time>2019-09-15T11:05:55Z</time>
      </trkpt>
      <trkpt lat="43.17208" lon="6.05874">
        <ele>61.1953125</ele>
        <time>2019-09-15T11:05:56Z</time>
      </trkpt>
      <trkpt lat="43.17205" lon="6.05878">
        <ele>61.0625</ele>
        <time>2019-09-15T11:05:57Z</time>
      </trkpt>
      <trkpt lat="43.17197" lon="6.05883">
        <ele>61</ele>
        <time>2019-09-15T11:05:59Z</time>
      </trkpt>
      <trkpt lat="43.17156" lon="6.05917">
        <ele>61</ele>
        <time>2019-09-15T11:06:11Z</time>
      </trkpt>
      <trkpt lat="43.17147" lon="6.05928">
        <ele>61</ele>
        <time>2019-09-15T11:06:14Z</time>
      </trkpt>
      <trkpt lat="43.17144" lon="6.05933">
        <ele>61</ele>
        <time>2019-09-15T11:06:15Z</time>
      </trkpt>
      <trkpt lat="43.17142" lon="6.05938">
        <ele>61</ele>
        <time>2019-09-15T11:06:16Z</time>
      </trkpt>
      <trkpt lat="43.17137" lon="6.05954">
        <ele>61</ele>
        <time>2019-09-15T11:06:19Z</time>
      </trkpt>
      <trkpt lat="43.17135" lon="6.05959">
        <ele>61</ele>
        <time>2019-09-15T11:06:20Z</time>
      </trkpt>
      <trkpt lat="43.17133" lon="6.05964">
        <ele>61</ele>
        <time>2019-09-15T11:06:21Z</time>
      </trkpt>
      <trkpt lat="43.17122" lon="6.05983">
        <ele>61</ele>
        <time>2019-09-15T11:06:25Z</time>
      </trkpt>
      <trkpt lat="43.1708" lon="6.06063">
        <ele>59.57421875</ele>
        <time>2019-09-15T11:06:40Z</time>
      </trkpt>
      <trkpt lat="43.1705" lon="6.06121">
        <ele>58.50390625</ele>
        <time>2019-09-15T11:06:50Z</time>
      </trkpt>
      <trkpt lat="43.1704" lon="6.06145">
        <ele>58.0703125</ele>
        <time>2019-09-15T11:06:54Z</time>
      </trkpt>
      <trkpt lat="43.17034" lon="6.06155">
        <ele>58</ele>
        <time>2019-09-15T11:06:56Z</time>
      </trkpt>
      <trkpt lat="43.17002" lon="6.06199">
        <ele>57</ele>
        <time>2019-09-15T11:07:05Z</time>
      </trkpt>
      <trkpt lat="43.16999" lon="6.06204">
        <ele>57</ele>
        <time>2019-09-15T11:07:06Z</time>
      </trkpt>
      <trkpt lat="43.16995" lon="6.06208">
        <ele>57</ele>
        <time>2019-09-15T11:07:07Z</time>
      </trkpt>
      <trkpt lat="43.1693" lon="6.06297">
        <ele>55.01953125</ele>
        <time>2019-09-15T11:07:25Z</time>
      </trkpt>
      <trkpt lat="43.1689" lon="6.06381">
        <ele>55</ele>
        <time>2019-09-15T11:07:40Z</time>
      </trkpt>
      <trkpt lat="43.16886" lon="6.06394">
        <ele>55</ele>
        <time>2019-09-15T11:07:42Z</time>
      </trkpt>
      <trkpt lat="43.16881" lon="6.06406">
        <ele>55</ele>
        <time>2019-09-15T11:07:44Z</time>
      </trkpt>
      <trkpt lat="43.16865" lon="6.06437">
        <ele>55</ele>
        <time>2019-09-15T11:07:53Z</time>
      </trkpt>
      <trkpt lat="43.16865" lon="6.0644">
        <ele>55</ele>
        <time>2019-09-15T11:07:54Z</time>
      </trkpt>
      <trkpt lat="43.16863" lon="6.06443">
        <ele>55</ele>
        <time>2019-09-15T11:07:55Z</time>
      </trkpt>
      <trkpt lat="43.16817" lon="6.0649">
        <ele>55</ele>
        <time>2019-09-15T11:08:08Z</time>
      </trkpt>
      <trkpt lat="43.16802" lon="6.06506">
        <ele>55</ele>
        <time>2019-09-15T11:08:12Z</time>
      </trkpt>
      <trkpt lat="43.16798" lon="6.0651">
        <ele>55</ele>
        <time>2019-09-15T11:08:13Z</time>
      </trkpt>
      <trkpt lat="43.16794" lon="6.06513">
        <ele>55</ele>
        <time>2019-09-15T11:08:14Z</time>
      </trkpt>
      <trkpt lat="43.16783" lon="6.06528">
        <ele>55</ele>
        <time>2019-09-15T11:08:18Z</time>
      </trkpt>
      <trkpt lat="43.16783" lon="6.06533">
        <ele>55</ele>
        <time>2019-09-15T11:08:19Z</time>
      </trkpt>
      <trkpt lat="43.16784" lon="6.06538">
        <ele>55</ele>
        <time>2019-09-15T11:08:20Z</time>
      </trkpt>
      <trkpt lat="43.16785" lon="6.06543">
        <ele>55</ele>
        <time>2019-09-15T11:08:21Z</time>
      </trkpt>
      <trkpt lat="43.16785" lon="6.0655">
        <ele>55.0859375</ele>
        <time>2019-09-15T11:08:22Z</time>
      </trkpt>
      <trkpt lat="43.16784" lon="6.06556">
        <ele>55.28125</ele>
        <time>2019-09-15T11:08:23Z</time>
      </trkpt>
      <trkpt lat="43.16781" lon="6.06562">
        <ele>55.4140625</ele>
        <time>2019-09-15T11:08:24Z</time>
      </trkpt>
      <trkpt lat="43.16777" lon="6.06567">
        <ele>55.453125</ele>
        <time>2019-09-15T11:08:25Z</time>
      </trkpt>
      <trkpt lat="43.16772" lon="6.06569">
        <ele>55.38671875</ele>
        <time>2019-09-15T11:08:26Z</time>
      </trkpt>
      <trkpt lat="43.16768" lon="6.06572">
        <ele>55.28515625</ele>
        <time>2019-09-15T11:08:27Z</time>
      </trkpt>
      <trkpt lat="43.16701" lon="6.06597">
        <ele>55</ele>
        <time>2019-09-15T11:08:41Z</time>
      </trkpt>
      <trkpt lat="43.1661" lon="6.06642">
        <ele>53.640625</ele>
        <time>2019-09-15T11:09:00Z</time>
      </trkpt>
      <trkpt lat="43.16599" lon="6.06646">
        <ele>53.265625</ele>
        <time>2019-09-15T11:09:02Z</time>
      </trkpt>
      <trkpt lat="43.16594" lon="6.06649">
        <ele>53.078125</ele>
        <time>2019-09-15T11:09:03Z</time>
      </trkpt>
      <trkpt lat="43.16589" lon="6.06652">
        <ele>53</ele>
        <time>2019-09-15T11:09:04Z</time>
      </trkpt>
      <trkpt lat="43.16512" lon="6.06703">
        <ele>53</ele>
        <time>2019-09-15T11:09:19Z</time>
      </trkpt>
      <trkpt lat="43.16497" lon="6.06714">
        <ele>52.5703125</ele>
        <time>2019-09-15T11:09:22Z</time>
      </trkpt>
      <trkpt lat="43.16424" lon="6.06742">
        <ele>52</ele>
        <time>2019-09-15T11:09:36Z</time>
      </trkpt>
      <trkpt lat="43.16327" lon="6.06776">
        <ele>52</ele>
        <time>2019-09-15T11:09:54Z</time>
      </trkpt>
      <trkpt lat="43.16291" lon="6.06794">
        <ele>52</ele>
        <time>2019-09-15T11:10:02Z</time>
      </trkpt>
      <trkpt lat="43.16279" lon="6.06805">
        <ele>52</ele>
        <time>2019-09-15T11:10:05Z</time>
      </trkpt>
      <trkpt lat="43.16274" lon="6.06806">
        <ele>52</ele>
        <time>2019-09-15T11:10:06Z</time>
      </trkpt>
      <trkpt lat="43.16269" lon="6.06805">
        <ele>52</ele>
        <time>2019-09-15T11:10:07Z</time>
      </trkpt>
      <trkpt lat="43.16266" lon="6.068">
        <ele>52</ele>
        <time>2019-09-15T11:10:08Z</time>
      </trkpt>
      <trkpt lat="43.16264" lon="6.06794">
        <ele>52</ele>
        <time>2019-09-15T11:10:09Z</time>
      </trkpt>
      <trkpt lat="43.16261" lon="6.06787">
        <ele>52</ele>
        <time>2019-09-15T11:10:10Z</time>
      </trkpt>
      <trkpt lat="43.1626" lon="6.0678">
        <ele>52</ele>
        <time>2019-09-15T11:10:11Z</time>
      </trkpt>
      <trkpt lat="43.16258" lon="6.06773">
        <ele>51.953125</ele>
        <time>2019-09-15T11:10:12Z</time>
      </trkpt>
      <trkpt lat="43.16239" lon="6.06728">
        <ele>51</ele>
        <time>2019-09-15T11:10:19Z</time>
      </trkpt>
      <trkpt lat="43.16236" lon="6.06723">
        <ele>51</ele>
        <time>2019-09-15T11:10:20Z</time>
      </trkpt>
      <trkpt lat="43.16231" lon="6.0672">
        <ele>51</ele>
        <time>2019-09-15T11:10:21Z</time>
      </trkpt>
      <trkpt lat="43.16227" lon="6.06718">
        <ele>51</ele>
        <time>2019-09-15T11:10:22Z</time>
      </trkpt>
      <trkpt lat="43.16222" lon="6.06717">
        <ele>51</ele>
        <time>2019-09-15T11:10:23Z</time>
      </trkpt>
      <trkpt lat="43.16216" lon="6.06717">
        <ele>51</ele>
        <time>2019-09-15T11:10:24Z</time>
      </trkpt>
      <trkpt lat="43.16211" lon="6.06718">
        <ele>51</ele>
        <time>2019-09-15T11:10:25Z</time>
      </trkpt>
      <trkpt lat="43.1619" lon="6.06721">
        <ele>51</ele>
        <time>2019-09-15T11:10:29Z</time>
      </trkpt>
      <trkpt lat="43.16185" lon="6.06723">
        <ele>51</ele>
        <time>2019-09-15T11:10:30Z</time>
      </trkpt>
      <trkpt lat="43.16173" lon="6.06724">
        <ele>50.9296875</ele>
        <time>2019-09-15T11:10:38Z</time>
      </trkpt>
      <trkpt lat="43.16172" lon="6.06727">
        <ele>50.9375</ele>
        <time>2019-09-15T11:11:03Z</time>
      </trkpt>
      <trkpt lat="43.1617" lon="6.06727">
        <ele>50.88671875</ele>
        <time>2019-09-15T11:11:35Z</time>
      </trkpt>
      <trkpt lat="43.16169" lon="6.06727">
        <ele>50.875</ele>
        <time>2019-09-15T11:11:44Z</time>
      </trkpt>
      <trkpt lat="43.16168" lon="6.06728">
        <ele>50.875</ele>
        <time>2019-09-15T11:11:45Z</time>
      </trkpt>
      <trkpt lat="43.16168" lon="6.0673">
        <ele>50.87890625</ele>
        <time>2019-09-15T11:11:46Z</time>
      </trkpt>
      <trkpt lat="43.16167" lon="6.06731">
        <ele>50.89453125</ele>
        <time>2019-09-15T11:11:47Z</time>
      </trkpt>
      <trkpt lat="43.16167" lon="6.06734">
        <ele>50.9140625</ele>
        <time>2019-09-15T11:11:48Z</time>
      </trkpt>
      <trkpt lat="43.16169" lon="6.06762">
        <ele>51</ele>
        <time>2019-09-15T11:11:57Z</time>
      </trkpt>
      <trkpt lat="43.1617" lon="6.06769">
        <ele>51</ele>
        <time>2019-09-15T11:12:07Z</time>
      </trkpt>
      <trkpt lat="43.16169" lon="6.06769">
        <ele>51</ele>
        <time>2019-09-15T11:12:35Z</time>
      </trkpt>
      <trkpt lat="43.1617" lon="6.06772">
        <ele>51</ele>
        <time>2019-09-15T11:13:14Z</time>
      </trkpt>
      <trkpt lat="43.16172" lon="6.06776">
        <ele>51</ele>
        <time>2019-09-15T11:13:53Z</time>
      </trkpt>
      <trkpt lat="43.16172" lon="6.06776">
        <ele>51</ele>
        <time>2019-09-15T11:14:19Z</time>
      </trkpt>
    </trkseg>
  </trk>
</gpx>